[[{"header":{"parameterUnit":"m.s-1","parameterCategory":1,"la1":30.6,"la2":29.2853,"lo1":-89.7004,"lo2":-87.6739,"dy":0.0162,"dx":0.0183,"nx":112,"ny":82,"refTime":"2026-04-08T00:00:00:Z","depth":0,"parameterNumber":2,"parameterNumberName":"U-component_of_WINDS"},"data":[0.0,0.0,0.0,0.0,0.0,0.0,0.0,0.0,0.0,0.0,0.0,0.0,0.0,0.0,0.0,0.0,0.0,0.0,0.0,0.0,0.0,0.0,0.0,0.0,0.0,0.0,0.0,0.0,0.0,0.0,0.0,0.0,0.0,0.0,0.0,0.0,0.0,0.0,0.0,0.0,0.0,0.0,0.0,0.0,0.0,0.0,0.0,0.0,0.0,0.0,0.0,0.0,0.0,0.0,0.0,0.0,0.0,0.0,0.0,0.0,0.0,0.0,0.0,0.0,0.0,0.0,0.0,0.0,0.0,0.0,0.0,0.0,0.0,0.0,0.0,0.0,0.0,0.0,0.0,0.0,0.0,0.0,0.0,0.0,0.0,0.0,0.0,0.0,0.0,0.0,0.1192,0.0453,0.0411,0.0301,0.0033,0.2769,0.3628,0.1649,0.0,0.0,0.0,0.0,0.0,0.0,0.0,0.0,0.0,0.0,0.0,0.0,0.0,0.0,0.0,0.0,0.0,0.0,0.0,0.0,0.0,0.0,0.0,0.0,0.0,0.0,0.0,0.0,0.0,0.0,0.0,0.0,0.0,0.0,0.0,0.0,0.0,0.0,0.0,0.0,0.0,0.0,0.0,0.0,0.0,0.0,0.0,0.0,0.0,0.0,0.0,0.0,0.0,0.0,0.0,0.0,0.0,0.0,0.0,0.0,0.0,0.0,0.0,0.0,0.0,0.0,0.0,0.0,0.0,0.0,0.0,0.0,0.0,0.0,0.0,0.0,0.0,0.0,0.0,0.0,0.0,0.0,0.0,0.0,0.0,0.0,0.0,0.0,0.0,0.0,0.0,0.0,0.0,0.0,0.0,0.0,0.0,0.0,0.0,0.0,0.0,0.0,0.0,0.0,0.2268,0.2132,0.2212,0.167,0.0132,0.1599,0.1947,0.0385,0.0,0.0,0.0,0.0,0.0,0.0,0.0,0.0,0.0,0.0,0.0,0.0,0.0,0.0,0.0,0.0,0.0,0.0,0.0,0.0,0.0,0.0,0.0,0.0,0.0,0.0,0.0,0.0,0.0,0.0,0.0,0.0,0.0,0.0,0.0,0.0,0.0,0.0,0.0,0.0,0.0,0.0,0.0,0.0,0.0,0.0,0.0,0.0,0.0,0.0,0.0,0.0,0.0,0.0,0.0,0.0,0.0,0.0,0.0,0.0,0.0,0.0,0.0,0.0,0.0,0.0,0.0,0.0,0.0,0.0,0.0,0.0,0.0,0.0,0.0,0.0,0.0,0.0,0.0,0.0,0.0,0.0,0.0,0.0,0.0,0.0,0.0,0.0,0.0,0.0,0.0,0.0,0.0,0.0,0.0,0.0,0.0,0.0,0.0,0.0,0.0,0.0,0.0,0.2143,0.2596,0.2606,0.2676,0.1971,0.0165,0.135,0.1863,0.1016,0.2521,0.0,0.0,0.0,0.0,0.0,0.0,0.0,0.0,0.0,0.0,0.0,0.0,0.0,0.0,0.0,0.0,0.0,0.0,0.0,0.0,0.0,0.0,0.0,0.0,0.0,0.0,0.0,0.0,0.0,0.0,0.0,0.0,0.0,0.0,0.0,0.0,0.0,0.0,0.0,0.0,0.0,0.0,0.0,0.0,0.0,0.0,0.0,0.0,0.0,0.0,0.0,0.0,0.0,0.0,0.0,0.0,0.0,0.0,0.0,0.0,0.0,0.0,0.0,0.0,0.0,0.0,0.0,0.0,0.0,0.0,0.0,0.0,0.0,0.0,0.0,0.0,0.0,0.0,0.0,0.0,0.0,0.0,0.0,0.0,0.0,0.0,0.0,0.0,0.0,0.0,0.0,0.0,0.0,0.0,0.0,0.0,0.0,0.0,0.0,0.0,0.0,0.0,0.3597,0.371,0.3319,0.3293,0.2436,0.0198,0.1346,0.1972,0.1399,0.1906,0.0,0.0,0.0,0.0,0.0,0.0,0.0,0.0,0.0,0.0,0.0,0.0,0.0,0.0,0.0,0.0,0.0,0.0,0.0,0.0,0.0,0.0,0.0,0.0,0.0,0.0,0.0,0.0,0.0,0.0,0.0,0.0,0.0,0.0,0.0,0.0,0.0,0.0,0.0,0.0,0.0,0.0,0.0,0.0,0.0,0.0,0.0,0.0,0.0,0.0,0.0,0.0,0.0,0.0,0.0,0.0,0.0,0.0,0.0,0.0,0.0,0.0,0.0,0.0,0.0,0.0,0.0,0.0,0.0,0.0,0.0,0.0,0.0,0.0,0.0,0.0,0.0,0.0,0.0,0.0,0.0,0.0,0.0,0.0,0.0,0.0,0.0,0.0,0.0,0.0,0.0,0.0,0.0,0.0,0.0,0.0,0.0,0.0,0.0,0.0,0.0,0.0,0.6289,0.6651,0.5092,0.5086,0.3801,0.0297,0.1338,0.1619,0.022,0.1433,0.0,0.0,0.0,0.0,0.0,0.0,0.0,0.0,0.0,0.0,0.0,0.0,0.0,0.0,0.0,0.0,0.0,0.0,0.0,0.0,0.0,0.0,0.0,0.0,0.0,0.0,0.0,0.0,0.0,0.0,0.0,0.0,0.0,0.0,0.0,0.0,0.0,0.0,0.0,0.0,0.0,0.0,0.0,0.0,0.0,0.0,0.0,0.0,0.0,0.0,0.0,0.0,0.0,0.0,0.0,0.0,0.0,0.0,0.0,0.0,0.0,0.0,0.0,0.0,0.0,0.0,0.0,0.0,0.0,0.0,0.0,0.0,0.0,0.0,0.0,0.0,0.0,0.0,0.0,0.0,0.0,0.0,0.0,0.0,0.0,0.0,0.0,0.0,0.0,0.0,0.0,0.0,0.0,0.0,0.0,0.0,0.0,0.0,0.0,0.0,0.0,0.0,0.5838,0.6416,0.6859,0.6976,0.5973,0.3407,0.3614,0.3516,0.2669,0.0,0.0,0.0,0.0,0.0,0.0,0.0,0.0,0.0,0.0,0.0,0.0,0.0,0.0,0.0,0.0,0.0,0.0,0.0,0.0,0.0,0.0,0.0,0.0,0.0,0.0,0.0,0.0,0.0,0.0,0.0,0.0,0.0,0.0,0.0,0.0,0.0,0.0,0.0,0.0,0.0,0.0,0.0,0.0,0.0,0.0,0.0,0.0,0.0,0.0,0.0,0.0,0.0,0.0,0.0,0.0,0.0,0.0,0.0,0.0,0.0,0.0,0.0,0.0,0.0,0.0,0.0,0.0,0.0,0.0,0.0,0.0,0.0,0.0,0.0,0.0,0.0,0.0,0.0,0.0,0.0,0.0,0.0,0.0,0.0,0.0,0.0,0.0,0.0,0.0,0.0,0.0,0.0,0.0,0.0,0.0,0.0,0.0,0.0,0.0,0.0,0.0,0.5073,0.5785,0.6544,0.787,0.7498,0.6634,0.5311,0.5064,0.4733,0.4243,0.0,0.0,0.0,0.0,0.0,0.0,0.0,0.0,0.0,0.0,0.0,0.0,0.0,0.0,0.0,0.0,0.0,0.0,0.0,0.0,0.0,0.0,0.0,0.0,0.0,0.0,0.0,0.0,0.0,0.0,0.0,0.0,0.0,0.0,0.0,0.0,0.0,0.0,0.0,0.0,0.0,0.0,0.0,0.0,0.0,0.0,0.0,0.0,0.0,0.0,0.0,0.0,0.0,0.0,0.0,0.0,0.0,0.0,0.0,0.0,0.0,0.0,0.0,0.0,0.0,0.0,0.0,0.0,0.0,0.0,0.0,0.0,0.0,0.0,0.0,0.0,0.0,0.0,0.0,0.0,0.0,0.0,0.0,0.0,0.0,0.0,0.0,0.0,0.0,0.0,0.0,0.0,0.0,0.0,0.0,0.0,0.0,0.0,0.0,0.0,0.0,0.0,0.5318,0.6528,0.7505,0.7934,0.6431,0.5435,0.5424,0.5246,0.4911,0.0,0.0,0.0,0.0,0.0,0.0,0.0,0.0,0.0,0.0,0.0,0.0,0.0,0.0,0.0,0.0,0.0,0.0,0.0,0.0,0.0,0.0,0.0,0.0,0.0,0.0,0.0,0.0,0.0,0.0,0.0,0.0,0.0,0.0,0.0,0.0,0.0,0.0,0.0,0.0,0.0,0.0,0.0,0.0,0.0,0.0,0.0,0.0,0.0,0.0,0.0,0.0,0.0,0.0,0.0,0.0,0.0,0.0,0.0,0.0,0.0,0.0,0.0,0.0,0.0,0.0,0.0,0.0,0.0,0.0,0.0,0.0,0.0,0.0,0.0,0.0,0.0,0.0,0.0,0.0,0.0,0.0,0.0,0.0,0.0,0.0,0.0,0.0,0.0,0.0,0.0,0.0,0.0,0.0,0.0,0.0,0.0,0.0,0.0,0.0,0.0,0.0,0.0,0.3315,0.3845,0.463,0.6012,0.68,0.7222,0.7228,0.8044,0.8266,0.7545,0.0,0.0,0.0,0.0,0.0,0.0,0.0,0.0,0.0,0.0,0.0,0.0,0.0,0.0,0.0,0.0,0.0,0.0,0.0,0.0,0.0,0.0,0.0,0.0,0.0,0.0,0.0,0.0,0.0,0.0,0.0,0.0,0.0,0.0,0.0,0.0,0.0,0.0,0.0,0.0,0.0,0.0,0.0,0.0,0.0,0.0,0.0,0.0,0.0,0.0,0.0,0.0,0.0,0.0,0.0,0.0,0.0,0.0,0.0,0.0,0.0,0.0,0.0,0.0,0.0,0.0,0.0,0.0,0.0,0.0,0.0,0.0,0.0,0.0,0.0,0.0,0.0,0.0,0.0,0.0,0.0,0.0,0.0,0.0,0.0,0.0,0.0,0.0,0.0,0.0,0.0,0.0,0.0,0.0,0.0,0.0,0.0,0.0,0.0,0.0,0.0,0.0,0.2545,0.2648,0.3343,0.5185,0.5681,0.6477,0.7991,0.8733,0.91,0.902,0.0,0.0,0.0,0.0,0.0,0.0,0.0,0.0,0.0,0.0,0.0,0.0,0.0,0.0,0.0,0.0,0.0,0.0,0.0,0.0,0.0,0.0,0.0,0.0,0.0,0.0,0.0,0.0,0.0,0.0,0.0,0.0,0.0,0.0,0.0,0.0,0.0,0.0,0.0,0.0,0.0,0.0,0.0,0.0,0.0,0.0,0.0,0.0,0.0,0.0,0.0,0.0,0.0,0.0,0.0,0.0,0.0,0.0,0.0,0.0,0.0,0.0,0.0,0.0,0.0,0.0,0.0,0.0,0.0,0.0,0.0,0.0,0.0,0.0,0.0,0.0,0.0,0.0,0.0,0.0,0.0,0.0,0.0,0.0,0.0,0.0,0.0,0.0,0.0,0.0,0.0,0.0,0.0,0.0,0.0,0.0,0.0,0.0,0.0,0.0,0.0,0.0,0.2428,0.2345,0.2942,0.4721,0.3577,0.4068,0.7492,0.7636,0.789,0.8737,0.0,0.0,0.0,0.0,0.0,0.0,0.0,0.0,0.0,0.0,0.0,0.0,0.0,0.0,0.0,0.0,0.0,0.0,0.0,0.0,0.0,0.0,0.0,0.0,0.0,0.0,0.0,0.0,0.0,0.0,0.0,0.0,0.0,0.0,0.0,0.0,0.0,0.0,0.0,0.0,0.0,0.0,0.0,0.0,0.0,0.0,0.0,0.0,0.0,0.0,0.0,0.0,0.0,0.0,0.0,0.0,0.0,0.0,0.0,0.0,-0.9896,-0.9085,0.0,0.0,0.0,0.0,0.0,0.0,0.0,0.0,0.0,0.0,0.0,0.0,0.0,0.0,0.0,0.0,0.0,0.0,0.0,0.0,0.0,0.0,0.0,0.0,0.0,0.0,0.0,0.0,0.0,0.0,0.0,0.0,0.0,0.0,0.0,0.0,0.0,0.0,0.0,0.0,0.0561,0.0535,0.0685,0.1119,0.2093,0.3063,0.3963,0.5049,0.566,0.5667,0.603,0.0,0.0,0.0,0.0,0.0,0.0,0.0,0.0,0.0,0.0,0.0,0.0,0.0,0.0,0.0,0.0,0.0,0.0,0.0,0.0,0.0,0.0,0.0,0.0,0.0,0.0,0.0,0.0,0.0,0.0,0.0,0.0,0.0,0.0,0.0,0.0,0.0,0.0,0.0,0.0,0.0,0.0,0.0,0.0,0.0,0.0,0.0,0.0,0.0,0.0,0.0,0.0,0.0,0.0,0.0,0.0,0.0,0.0,0.0,-1.0497,-0.9774,0.0,0.0,0.0,0.0,0.0,0.0,0.0,0.0,0.0,0.0,0.0,0.0,0.0,0.0,0.0,0.0,0.0,0.0,0.0,0.0,0.0,0.0,0.0,0.0,0.0,0.0,0.0,0.0,0.0,0.0,0.0,0.0,0.0,0.0,0.0,0.0,0.0,0.0,0.0,0.0,0.0,0.0,0.0,0.0,0.0853,0.1815,0.2813,0.3557,0.4191,0.4751,0.4933,0.0,0.0,0.0,0.0,0.0,0.0,0.0,0.0,0.0,0.0,0.0,0.0,0.0,0.0,0.0,0.0,0.0,0.0,0.0,0.0,0.0,0.0,0.0,0.0,0.0,0.0,0.0,0.0,0.0,0.0,0.0,0.0,0.0,0.0,0.0,0.0,0.0,0.0,0.0,0.0,0.0,0.0,0.0,0.0,0.0,0.0,0.0,0.0,0.0,0.0,0.0,0.0,0.0,-1.2222,-1.1877,-1.2128,-1.2216,-1.2226,-1.2172,-1.1328,-1.0704,-1.0272,-1.0028,0.0,0.0,0.0,0.0,0.0,0.0,0.0,0.0,0.0,0.0,0.0,0.0,0.0,0.0,0.0,0.0,0.0,0.0,0.0,0.0,0.0,0.0,0.0,0.0,-0.0812,0.0,0.0,0.0,0.0,0.0,0.0,0.0,0.0,0.0,0.0,0.0,0.0,0.0,0.0,0.0,0.0,0.0,0.0,0.0645,0.2267,0.2298,0.2739,0.3954,0.3896,0.3608,0.0,0.0,0.0,0.0,0.0,0.0,0.0,0.0,0.0,0.0,0.0,0.0,0.0,0.0,0.0,0.0,0.0,0.0,0.0,0.0,0.0,0.0,0.0,0.0,0.0,0.0,0.0,0.0,0.0,0.0,0.0,0.0,-1.5378,-1.5355,0.0,0.0,0.0,0.0,0.0,0.0,0.0,0.0,0.0,0.0,0.0,0.0,0.0,-1.388,-1.4424,-1.3715,-1.3327,-1.3355,-1.3841,-1.4089,-1.4129,-1.4021,-1.3973,-1.396,-1.3688,0.0,-1.1374,-1.1333,0.0,0.0,0.0,0.0,0.0,0.0,0.0,0.0,0.0,0.0,0.0,0.0,0.0,0.0,0.0,0.0,0.0,0.0,0.0,0.0,0.0,0.0,-0.2463,-0.0706,-0.0113,0.0,0.0,0.0,0.0,0.0,0.0134,0.0,0.0,0.0,0.0,0.0,0.0,0.0,0.0,0.0,0.0,0.0,0.0,0.0115,0.0379,0.0378,0.0447,0.0616,0.1682,0.2271,0.2189,0.3253,0.0,0.0,0.0,0.0,0.0,0.0,0.0,0.0,0.0,0.0,0.0,0.0,0.0,0.0,0.0,0.0,0.0,0.0,0.0,0.0,0.0,0.0,0.0,0.0,0.0,0.0,0.0,0.0,0.0,-1.6501,-1.6365,-1.4181,-1.5965,-1.6234,0.0,0.0,0.0,0.0,0.0,0.0,0.0,0.0,0.0,-1.5761,-1.4552,-1.409,-1.4575,-1.4373,-1.4285,-1.4285,-1.4618,-1.4814,-1.4889,-1.4821,-1.4794,-1.4794,-1.4726,-1.4245,-1.3444,-1.2684,-1.1884,-1.1097,0.0,0.0,0.0,0.0,-0.9979,-0.9313,-0.9504,-0.9032,-0.8269,-0.769,0.0,0.0,0.0,0.0,0.0,0.0,0.0,0.0,0.0,0.0,-0.1123,-0.0198,0.0,0.0,0.0,0.0,0.0,0.0,0.0545,0.0789,0.0105,0.0,0.0,0.0,0.0,0.0,0.0,0.0,0.0,0.0,0.0,0.0,0.0,0.0,0.0,0.0,0.054,0.0872,0.0888,0.2062,0.3324,0.0,0.0,0.0,0.0,0.0,0.0,0.0,0.0,0.0,0.0,0.0,0.0,0.0,0.0,0.0,0.0,0.0,0.0,0.0,0.0,0.0,0.0,0.0,0.0,0.0,0.0,0.0,0.0,-1.7341,-1.685,-1.3959,-1.6063,-1.627,0.0,0.0,0.0,0.0,0.0,0.0,-1.5486,-1.4844,-1.4906,-1.5872,-1.4967,-1.4672,-1.5032,-1.5201,-1.5323,-1.5309,-1.5309,-1.5391,-1.5527,-1.5486,-1.5452,-1.5411,-1.5371,-1.5248,-1.4991,-1.388,-1.2915,-1.2216,-1.1911,-1.1633,-1.143,-1.1649,-1.0997,-1.0105,-1.0342,-0.9701,-0.8741,-0.858,-0.8152,-0.7506,-0.6537,0.0,0.0,0.0,0.0,-0.2808,-0.1892,-0.0819,0.0,0.0,0.0,0.0,0.0,0.0,0.0,0.0,0.0711,0.105,0.0146,0.0,0.0,0.0145,0.0,0.0,0.0,0.0,0.0,0.0,0.0,0.0,0.0,0.0,0.0,0.0,0.0,0.0,0.0,0.0963,0.2124,0.3462,0.0,0.0,0.0,0.0,0.0,0.0,0.0,0.0,0.0,0.0,0.0,0.0,0.0,0.0,0.0,0.0,0.0,0.0,0.0,0.0,0.0,0.0,0.0,0.0,0.0,0.0,0.0,0.0,0.0,-1.6957,-1.5832,0.0,0.0,0.0,0.0,-1.4749,-1.5344,-1.5362,-1.4435,-1.4582,-1.4988,-1.5609,-1.5554,-1.571,-1.6008,-1.6022,-1.6096,-1.6246,-1.6246,-1.6313,-1.6449,-1.6313,-1.6178,-1.6029,-1.5935,-1.5704,-1.5337,-1.4699,-1.4245,-1.3962,-1.362,-1.341,-1.3254,-1.3159,-1.3125,-1.3178,-1.3177,-1.3243,-1.3306,-1.3405,-1.2006,-0.9866,-0.7562,-0.804,0.0,0.0,-0.4643,-0.4919,-0.1086,-0.0041,0.0,0.0,0.0,0.0,0.0,0.0,0.0,0.0,0.0037,0.0072,0.0,0.0,0.0066,0.0,0.0,0.0,0.0,0.0,0.0,0.0,0.0,0.0,0.0,0.0,0.0,0.0,0.0,0.0,0.0,0.0073,0.0737,0.2076,0.3347,0.0,0.0,0.0,0.0,0.0,0.0,0.0,0.0,0.0,0.0,0.0,0.0,0.0,0.0,0.0,0.0,0.0,0.0,0.0,0.0,0.0,0.0,0.0,0.0,0.0,0.0,0.0,0.0,-1.6324,-1.7517,0.0,-1.3989,-1.5441,-1.5983,-1.4554,-1.5031,-1.5311,-1.514,-1.5445,-1.575,-1.6062,-1.6107,-1.6259,-1.6361,-1.6368,-1.6388,-1.6442,-1.6442,-1.6469,-1.6517,-1.6469,-1.6415,-1.6361,-1.6307,-1.6225,-1.6096,-1.5689,-1.5174,-1.4631,-1.4428,-1.4251,-1.4095,-1.3953,-1.4055,-1.4207,-1.415,-1.4278,-1.4455,-1.4211,-1.3383,-1.2329,-1.1369,-1.0662,-0.9863,-0.829,-0.6259,-0.4246,-0.2798,-0.122,0.0,0.0,0.0,0.0,0.0,0.0,0.0,0.0,0.0,0.0,0.0,0.0,0.0,0.0,0.0,0.0,0.0,0.0,0.0,0.0,0.0,0.0,0.0,0.0,0.0,0.0,0.0,0.0,0.0,0.0,0.073,0.2289,0.2575,0.3712,0.0,0.0,0.0,0.0,0.0,0.0,0.0,0.0,0.0,0.0,0.0,0.0,0.0,0.0,0.0,0.0,0.0,0.0,0.0,0.0,0.0,0.0,0.0,0.0,0.0,-1.8055,-1.7736,-1.6394,-1.7731,-1.7555,-1.4454,-1.5476,-1.5933,-1.4974,-1.5357,-1.5771,-1.6076,-1.632,-1.653,-1.668,-1.6775,-1.6822,-1.6822,-1.6822,-1.6822,-1.6822,-1.6822,-1.6822,-1.6822,-1.6822,-1.6768,-1.668,-1.668,-1.6619,-1.6503,-1.6313,-1.594,-1.5466,-1.516,-1.4938,-1.4882,-1.4787,-1.4829,-1.4985,-1.4883,-1.4991,-1.5065,-1.4713,-1.4367,-1.4041,-1.3838,-1.29,-1.173,-1.0778,-0.7847,-0.4839,-0.4011,-0.1902,0.0,0.0,0.0,0.0,0.0,0.0,0.0,0.0,0.0,0.0,0.0,0.0,0.0,0.0,0.0,0.0,0.0,0.0,0.0,0.0,0.0,0.0,0.0,0.0,0.0,0.0,0.0,0.0,0.0,0.0,0.052,0.1619,0.245,0.4016,0.6369,0.0,0.0,0.0,0.0,0.0,0.0,0.0,0.0,0.0,0.0,0.0,0.0,0.0,0.0,0.0,0.0,0.0,0.0,0.0,0.0,0.0,0.0,0.0,-1.7712,-1.7321,-1.7157,-1.7441,-1.6382,-1.5519,-1.5276,-1.5506,-1.5805,-1.6096,-1.6381,-1.6673,-1.6978,-1.7127,-1.727,-1.7412,-1.7419,-1.7419,-1.7419,-1.7419,-1.7419,-1.7419,-1.7419,-1.7419,-1.7419,-1.7419,-1.7263,-1.6992,-1.6992,-1.6822,-1.6544,-1.6537,-1.653,-1.6469,-1.5837,-1.5607,-1.56,-1.56,-1.5593,-1.5593,-1.5593,-1.5499,-1.5391,-1.5248,-1.5106,-1.4983,-1.4638,-1.4652,-1.4225,-1.1752,-0.9334,-0.7013,-0.4667,-0.2082,-0.0139,-0.0139,-0.0046,0.0,0.0,0.0,0.0,0.0,0.0,0.0,0.0,0.0,0.0,0.0,0.0,0.0,0.0,0.0,0.0,0.0,0.0,0.0,0.0,0.0,0.0,0.0,0.0,0.0,0.0,0.0,0.0037,0.011,0.3025,0.5351,0.7061,0.0,0.0,0.0,0.0,0.0,0.0,0.0,0.0,0.0,0.0,0.0,0.0,0.0,0.0,0.0,0.0,0.0,0.0,0.0,0.0,0.0,-1.7675,-1.7381,-1.7019,-1.6437,-1.6154,-1.6592,-1.6632,-1.6619,-1.6639,-1.6625,-1.6686,-1.687,-1.6958,-1.7093,-1.729,-1.7338,-1.7378,-1.7419,-1.7419,-1.7419,-1.7419,-1.7419,-1.7419,-1.7419,-1.7419,-1.7419,-1.7419,-1.7419,-1.7378,-1.7297,-1.7297,-1.7188,-1.6998,-1.6897,-1.6788,-1.6601,-1.6273,-1.6056,-1.5947,-1.5832,-1.573,-1.5607,-1.5757,-1.5696,-1.5519,-1.5479,-1.5486,-1.5438,-1.5309,-1.5309,-1.5194,-1.4523,-1.2519,-1.041,-0.9672,-0.6202,-0.2874,-0.2759,-0.1348,0.0,0.0,0.0,0.0,0.0,0.0,0.0,0.0,0.0,0.0,0.0,0.0,0.0,0.0,0.0,0.0,0.0,0.0,0.0,0.0,0.0,0.0,0.0,0.0,0.0,0.0,0.0,0.0727,0.2228,0.4008,0.5457,0.0,0.0,0.0,0.0,0.0,0.0,0.0,0.0,0.0,0.0,0.0,0.0,0.0,0.0,0.0,0.0,0.0,0.0,0.0,0.0,0.0,0.0,-1.7898,-1.7938,-1.6974,-1.644,-1.632,-1.6639,-1.6965,-1.7195,-1.7283,-1.7216,-1.7202,-1.7283,-1.7405,-1.7514,-1.7602,-1.7717,-1.7792,-1.7792,-1.7792,-1.7792,-1.7792,-1.7738,-1.7704,-1.7704,-1.7636,-1.7609,-1.7609,-1.7609,-1.7575,-1.746,-1.746,-1.7392,-1.7182,-1.7107,-1.7012,0.0,0.0,0.0,0.0,0.0,-1.6083,-1.5972,-1.6103,-1.6076,-1.5938,-1.5866,-1.5825,-1.5805,-1.5627,-1.4806,-1.3922,-1.3922,-1.128,-0.8439,-0.8343,-0.536,-0.2309,-0.2248,-0.1095,0.0,0.0,0.0,0.0,0.0,0.0,0.0,0.0,0.0,0.0,0.0,0.0,0.0,0.0,0.0,0.0,0.0,0.0,0.0,0.0,0.0,0.0,0.0,0.0,0.0,0.0,0.083,0.0,0.0,0.0,0.0,0.0,0.0,0.0,0.0,0.9711,0.9543,0.0,0.0,0.0,0.0,0.0,0.0,0.0,0.0,0.0,0.0,0.0,0.0,0.0,0.0,0.0,0.0,-1.852,-1.8806,-1.7355,-1.7121,-1.7168,-1.7256,-1.7405,-1.7494,-1.7494,-1.748,-1.7473,-1.7473,-1.7724,-1.7915,-1.7936,-1.8145,0.0,0.0,0.0,-1.8265,-1.8301,-1.8158,-1.8091,-1.8057,-1.7935,-1.7915,-1.7915,-1.7902,-1.7772,-1.7615,-1.7595,-1.744,-1.7243,-1.7222,-1.7209,-1.7154,-1.6734,-1.6564,-1.6544,-1.653,-1.6524,-1.6524,-1.6524,0.0,0.0,-1.6218,-1.6123,-1.6056,-1.5749,-1.3781,-1.1655,-1.1655,-0.8085,-0.4271,-0.4265,-0.2356,-0.0442,-0.0442,-0.0196,0.0,0.0,0.0,0.0,0.0,0.0,0.0,0.0,0.0,0.0,0.0,0.0,0.0,0.0,0.0,0.0,0.0,0.0,0.0,0.0,0.0,0.0,0.0,0.0,0.0,0.0,0.2008,0.3257,0.3518,0.7072,0.9129,0.9613,1.1086,1.2121,1.2654,1.1263,1.1097,0.0,0.0,0.0,0.0,0.0,0.0,0.0,0.0,0.0,0.0,0.0,0.0,0.0,0.0,0.0,-1.82,-1.8025,-1.7841,-1.7868,-1.7982,-1.7982,-1.7813,-1.786,-1.7968,-1.7968,-1.7846,-1.7772,-1.7772,-1.7881,-1.797,-1.8036,-1.8111,-1.8199,-1.8321,-1.8321,-1.8267,-1.8145,-1.8111,-1.8078,-1.7956,-1.7936,0.0,-1.786,-1.7738,-1.7738,-1.7812,-1.7649,-1.7561,-1.7494,-1.7426,-1.7304,-1.7175,-1.6971,-1.6815,-1.6635,-1.6513,-1.6524,-1.6524,-1.6524,-1.6524,-1.651,-1.6456,-1.6361,-1.6252,-1.6198,-1.4221,0.0,-1.1982,-0.9691,-0.7187,-0.7033,-0.5147,-0.3215,-0.3092,-0.1471,0.0,0.0,0.0,0.0,0.0,0.0,0.0,0.0,0.0,0.0,0.0,0.0,0.0,0.0,0.0,0.0,0.0,0.0,0.0,0.0,0.0,0.0,0.0,0.0,0.0,0.0,0.2083,0.4112,0.5974,0.6686,0.792,0.9758,0.8254,0.8648,1.0832,1.2088,1.2718,0.0,0.0,0.0,0.0,0.0,0.0,0.0,0.0,0.0,0.0,0.0,-1.8419,-1.6853,0.0,-1.8656,-1.795,-1.8926,-1.9399,-1.8163,-1.8179,-1.8233,-1.8002,-1.8036,-1.8057,-1.7989,-1.7914,-1.7915,-1.7915,-1.7935,-1.8036,-1.8199,-1.8213,-1.8267,-1.8423,-1.8355,-1.8321,-1.8321,-1.8165,-1.8091,-1.8091,-1.7935,-1.7915,-1.786,-1.7663,-1.7629,-1.7758,-1.7541,-1.748,-1.748,-1.748,-1.7446,-1.7304,-1.7311,-1.7222,-1.7014,-1.691,-1.6856,-1.6849,-1.6775,-1.6754,-1.6741,-1.6608,-1.6533,-1.6204,-1.4737,-1.2379,-0.9911,-0.8446,-0.6105,-0.3973,-0.3904,-0.2952,-0.2001,-0.1892,-0.0946,0.0,0.0,0.0,0.0,0.0,0.0,0.0,0.0,0.0,0.0,0.0,0.0,0.0,0.0,0.0,0.0,0.0,0.0,0.0,0.0,0.0,0.0,0.0,0.0,0.0,0.0,0.2041,0.3731,0.4861,0.5948,0.7028,0.8128,0.7059,0.724,0.8633,1.089,1.2594,0.0,0.0,0.0,0.0,0.0,0.0,0.0,-2.338,-2.2303,-2.0508,-2.0298,-1.9428,-1.6102,-1.7787,-1.916,-1.7614,-1.9643,-2.0584,-1.8274,-1.8158,-1.8267,-1.8111,-1.8091,-1.8036,-1.797,-1.7936,-1.7915,-1.7915,-1.7989,-1.8111,-1.8267,-1.8267,-1.8335,-1.8477,-1.8375,-1.8355,-1.8443,-1.8213,-1.8145,-1.8233,-1.7989,-1.7915,-1.786,-1.7663,-1.7609,-1.7629,-1.748,-1.7392,-1.7433,-1.7534,-1.7521,-1.7426,-1.7575,-1.7616,-1.7487,-1.7304,-1.7236,-1.7222,-1.7107,-1.7046,-1.6998,-1.6876,-1.6743,-1.6151,-1.3224,-1.0441,-0.7716,-0.4808,-0.209,0.0,0.0,0.0,0.0,0.0,0.0,0.0,0.0,0.0,0.0,0.0,0.0,0.0,0.0,0.0,0.0,0.0,0.0,0.0,0.0,0.0,0.0,0.0,0.0,0.0,0.0,0.0,0.0,0.0,0.0,0.0,0.0,0.2033,0.3177,0.3199,0.4963,0.5908,0.592,0.5575,0.5971,0.714,0.9197,1.1435,-1.3192,-1.4043,-1.5276,-1.8347,-1.9441,-2.1004,0.0,-2.6196,-2.5273,-2.3685,-2.2124,-2.0099,-1.7107,-1.7199,-1.7734,-1.7834,-1.8219,-1.8496,-1.831,-1.8301,-1.8267,-1.8111,-1.8091,-1.8091,-1.8077,-1.7948,-1.7915,-1.7915,-1.7936,-1.8004,-1.8111,-1.8111,-1.8179,-1.8335,-1.8321,-1.8267,-1.8145,-1.8111,-1.8036,-1.7914,-1.7936,-1.7915,-1.786,-1.7663,-1.7717,-1.7881,-1.7684,-1.7494,-1.7433,-1.7534,-1.7575,-1.7575,-1.7772,-1.7881,-1.7827,-1.75,-1.7392,-1.7392,-1.7378,-1.7283,-1.7168,-1.7148,-1.6965,-1.6171,-1.3327,-1.054,-0.7683,-0.4801,-0.2068,0.0,0.0,0.0,0.0,0.0,0.0,0.0,0.0,0.0,0.0,0.0,0.0,0.0,0.0,0.0,0.0,0.0,0.0,0.0,0.0,0.0,0.0,0.0,0.0,0.0,0.0,0.0,0.0,0.0,0.0,0.0,0.0,0.209,0.3347,0.3554,0.3611,0.3725,0.3898,0.1795,0.316,0.7699,0.7982,0.9437,-1.6405,-1.7397,-1.8203,-2.1251,-2.1526,-2.1727,-2.4177,-2.4583,-2.4008,-2.2378,-2.1472,-2.0203,-1.7695,-1.8803,-1.9598,-1.815,-1.9404,-2.0001,-1.8322,-1.8124,-1.8091,-1.786,-1.7914,-1.8004,-1.8004,-1.7956,-1.7915,-1.7915,-1.7915,-1.7935,-1.8091,-1.8002,-1.8078,-1.8179,-1.8111,-1.8077,-1.8091,-1.8002,-1.7968,-1.8002,-1.7956,-1.7915,-1.786,-1.7663,-1.7575,-1.7609,-1.7575,-1.7554,-1.7521,-1.7806,-1.7914,-1.7914,-1.807,-1.8124,-1.8077,-1.7649,-1.75,-1.7487,-1.7453,-1.7378,-1.7324,-1.7324,-1.6049,-1.4013,-1.1126,-0.8243,-0.5299,-0.2458,-0.0886,0.0,0.0,0.0,0.0,0.0,0.0,0.0,0.0,0.0,0.0,0.0,0.0,0.0,0.0,0.0,0.0,0.0,0.0,0.0,0.0,0.0,0.0,0.0,0.0,0.0,0.0,0.0,0.0,0.0,0.0,0.0,0.0,0.0868,0.1418,0.1516,0.1441,0.1406,0.1506,0.2046,0.3457,0.5655,0.8688,1.0743,-1.7534,-1.8717,-1.9761,-2.2835,-2.2683,-2.2095,-2.3355,-2.3829,-2.3449,-2.1482,-2.1163,-2.0526,-1.8127,-1.9431,-2.0217,-1.8226,-1.9747,-2.0401,-1.8205,-1.7935,-1.7894,-1.7615,-1.7704,-1.7758,-1.7792,-1.7846,-1.7915,-1.7915,-1.7915,-1.7914,-1.8023,-1.797,-1.7914,-1.8023,-1.797,-1.797,-1.8023,-1.797,-1.797,-1.8023,-1.797,-1.7915,-1.7915,-1.7758,-1.7629,-1.7433,-1.7548,-1.7595,-1.7609,-1.7914,-1.8057,-1.8111,-1.8267,-1.8321,-1.8287,-1.7893,-1.7751,-1.7703,-1.7595,-1.7514,-1.7318,-1.6493,-1.4773,-1.2281,-0.8594,-0.5914,-0.3634,-0.0796,0.0,0.0,0.0,0.0,0.0,0.0,0.0,0.0,0.0,0.0,0.0,0.0,0.0,0.0,0.0,0.0,0.0,0.0,0.0,0.0,0.0,0.0,0.0,0.0,0.0,0.0,0.0,0.0,0.0,0.0,0.0,0.0,0.0,0.0,0.0,0.0,0.0,0.0385,0.1105,0.3065,0.4753,0.6333,1.0175,1.2416,-1.5308,-1.6262,-1.8092,-2.1029,-2.1366,-2.1738,-2.4652,-2.5653,-2.5229,-2.2544,-2.205,-2.1264,-1.8398,-1.7957,-1.8012,-1.7915,-1.7977,-1.7977,-1.7915,-1.7758,-1.7609,-1.7595,-1.7467,-1.7494,-1.7595,-1.7772,-1.7915,-1.7915,-1.7915,-1.7915,-1.7915,-1.7915,-1.7915,-1.7915,-1.7915,-1.7915,-1.7915,-1.7915,-1.7915,-1.7915,-1.7915,-1.7915,-1.7915,-1.786,-1.7772,-1.7595,-1.7595,-1.7595,-1.7609,-1.7812,-1.8004,-1.8111,-1.8267,-1.8321,-1.8321,-1.8301,-1.8199,-1.8057,-1.7956,-1.7758,-1.7145,-1.4266,-1.3199,-1.1916,-0.61,-0.425,-0.3591,-0.0811,0.0,0.0,0.0,0.0,0.0,0.0,0.0,0.0,0.0,0.0,0.0,0.0,0.0,0.0,0.0,0.0,0.0,0.0,0.0,0.0,0.0,0.0,0.0,0.0,0.0,0.0,0.0,0.0,0.0,0.0,0.0,0.0,0.0,0.0,0.0,0.0,0.0,0.1274,0.3865,0.3964,0.673,1.1841,1.2141,1.3668,-1.6743,-1.7447,-1.8349,-2.0359,-1.9692,-1.8901,-2.0131,-2.0426,-2.0225,-1.9255,-1.8798,-1.827,-1.7279,-1.7127,-1.7161,-1.7263,-1.7528,-1.7758,-1.7902,-1.7826,-1.7717,-1.7467,-1.7487,-1.75,-1.7446,-1.7629,-1.7758,-1.786,-1.7915,-1.7915,-1.7915,-1.7915,-1.7915,-1.7915,-1.7915,-1.7915,-1.7915,-1.7915,-1.7915,-1.7915,-1.7915,-1.7915,-1.7915,-1.7915,-1.7846,-1.7792,-1.7792,-1.7792,-1.7806,-1.7948,-1.8036,-1.8111,-1.8355,-1.7187,-1.5281,-1.5281,-1.3984,-1.2497,-1.4359,-1.3654,-1.1643,-1.069,-0.8993,-0.6971,-0.5012,-0.3027,-0.1211,-0.0273,0.0,0.0,0.0,0.0,0.0,0.0,0.0,0.0,0.0,0.0,0.0,0.0,0.0,0.0,0.0,0.0,0.0,0.0,0.0,0.0,0.0,0.0,0.0,0.0,0.0,0.0,0.0,0.0,0.0,0.0,0.0,0.0,0.0,0.0,0.0834,0.2597,0.2662,0.4016,0.6873,0.8614,1.0498,1.2424,1.4252,1.5576,-1.6703,-1.7265,-1.781,-1.9073,-1.8452,-1.7629,-1.7826,-1.7758,-1.7548,-1.7446,-1.6959,-1.6581,-1.6479,-1.6331,-1.6358,-1.6829,-1.7093,-1.7412,-1.788,-1.7812,-1.765,-1.7467,-1.744,-1.7412,-1.7426,-1.7453,-1.765,-1.7902,-1.7915,-1.7915,-1.7915,-1.7915,-1.7915,-1.7915,-1.7915,-1.7915,-1.7915,-1.7915,-1.7915,-1.7915,-1.7915,-1.7915,-1.7915,-1.7915,-1.7915,-1.7915,-1.7915,-1.7915,-1.7936,-1.8023,-1.8091,-1.7992,-1.7143,-1.559,-1.3654,-1.2617,-1.0264,-0.8007,-1.0918,-1.0571,-0.8754,-0.7672,-0.6039,-0.4303,-0.3225,-0.1556,0.0,0.0,0.0,0.0,0.0,0.0,0.0,0.0,0.0,0.0,0.0,0.0,0.0,0.0,0.0,0.0,0.0,0.0,0.0,0.0,0.0,0.0,0.0,0.0,0.0,0.0,0.0,0.0,0.0,0.0,0.0,0.0,0.0,0.0,0.0,0.0942,0.228,0.4025,0.5048,0.6944,0.9793,1.1532,1.2931,1.3991,1.5744,1.6554,-1.5215,-1.5906,-1.6585,-1.7399,-1.7772,-1.7936,-1.7915,-1.7738,-1.7446,-1.7046,-1.668,-1.6341,-1.6056,-1.5662,-1.5662,-1.6486,-1.656,-1.691,-1.7935,-1.7704,-1.7494,-1.7575,-1.7392,-1.727,-1.7419,-1.7433,-1.7555,-1.7902,-1.786,-1.786,-1.7915,-1.7915,-1.7915,-1.7915,-1.7915,-1.7915,-1.7915,-1.7915,-1.7915,-1.7915,-1.7915,-1.7915,-1.7915,-1.7915,-1.7915,-1.7915,-1.7915,-1.7915,-1.7936,-1.8023,-1.7979,-1.7587,-1.4863,-1.361,-1.3011,-1.0187,-0.7162,-0.4856,-0.7536,-0.8428,-0.7968,-0.5163,-0.4256,-0.3751,-0.0841,0.0,0.0,0.0,0.0,0.0,0.0,0.0,0.0,0.0,0.0,0.0,0.0,0.0,0.0,0.0,0.0,0.0,0.0,0.0,0.0,0.0,0.0,0.0,0.0,0.0,0.0,0.0,0.0,0.0,0.0,0.0,0.0,0.0,0.015,0.02,0.0202,0.2825,0.4352,0.4645,0.7194,0.9883,1.2708,1.2713,1.4065,1.6558,1.6662,1.673,-1.5839,-1.668,-1.7358,-1.786,-1.8002,-1.8002,-1.7936,-1.7575,-1.7182,-1.6734,-1.5817,-1.5093,-1.495,-1.4909,-1.5053,-1.5662,-1.6463,-1.7195,-1.7684,-1.7758,-1.7724,-1.7595,-1.7527,-1.7494,-1.7534,-1.7534,-1.767,-1.7902,-1.7758,-1.7758,-1.786,-1.7915,-1.7915,-1.7915,-1.7915,-1.7915,-1.7915,-1.7915,-1.7915,-1.7915,-1.7915,-1.7915,-1.7915,-1.7915,-1.7915,-1.7915,-1.7989,-1.7968,-1.7936,-1.8023,-1.672,-1.4564,-1.3889,-1.0882,-0.6786,-0.6135,-0.3907,-0.1291,-0.2016,-0.2291,-0.2172,-0.1418,-0.1127,-0.1009,-0.0224,0.0,0.0,0.0,0.0,0.0,0.0,0.0,0.0,0.0,0.0,0.0,0.0,0.0,0.0,0.0,0.0,0.0,0.0,0.0,0.0,0.0,0.0,0.0,0.0,0.0,0.0,0.0,0.0,0.0,0.0,0.0,0.0,0.0,0.1992,0.3129,0.3137,0.5852,0.8314,1.0343,1.106,1.2816,1.5647,1.5755,1.6282,1.7026,1.7182,1.7196,-1.6571,-1.7263,-1.7806,-1.8111,-1.8091,-1.788,-1.7467,-1.7026,-1.6463,-1.5622,-1.4753,-1.4025,-1.3783,-1.3905,-1.4306,-1.5092,-1.6056,-1.6944,-1.765,-1.7812,-1.7881,-1.7758,-1.7738,-1.7717,-1.7595,-1.7595,-1.7704,-1.7902,-1.7846,-1.7846,-1.7915,-1.7935,-1.7935,-1.7915,-1.7915,-1.7915,-1.7915,-1.7915,-1.7915,-1.7915,-1.7915,-1.7915,-1.7915,-1.7915,-1.7956,-1.7968,-1.8057,-1.8077,-1.7958,-1.6665,-1.5106,-1.3242,-1.0608,-0.7508,-0.4362,-0.3125,-0.1519,0.0,0.0,0.0,0.0,0.0,0.0,0.0,0.0,0.0,0.0,0.0,0.0,0.0,0.0,0.0,0.0,0.0,0.0,0.0,0.0,0.0,0.0,0.0,0.0,0.0,0.0,0.0,0.0,0.0,0.0,0.0,0.0,0.0,0.0,0.0,0.0,0.0,0.0,0.0,0.0515,0.1749,0.3305,0.4759,0.6046,0.8778,1.1012,1.2564,1.3818,1.5274,1.6944,1.71,1.7216,1.7297,1.7378,1.7419,-1.729,-1.7704,-1.8002,-1.8247,-1.8091,-1.767,-1.6844,-1.6313,-1.5567,-1.4323,-1.3593,-1.3125,-1.2753,-1.2969,-1.3615,-1.4847,-1.5642,-1.6537,-1.7725,-1.7902,-1.7915,-1.7901,-1.7956,-1.7846,-1.7697,-1.7683,-1.7792,-1.7914,-1.8057,-1.8077,-1.7956,-1.8036,-1.8057,-1.7956,-1.7936,-1.7915,-1.7915,-1.7915,-1.7915,-1.7915,-1.7915,-1.7936,-1.7956,-1.7956,-1.8024,-1.8124,-1.8145,-1.8213,-1.8088,-1.4892,-1.3373,-1.2457,-0.6747,-0.4276,-0.3566,-0.0987,0.0,0.0,0.0,0.0,0.0,0.0,0.0,0.0,0.0,0.0,0.0,0.0,0.0,0.0,0.0,0.0,0.0,0.0,0.0,0.0,0.0,0.0,0.0,0.0,0.0,0.0,0.0,0.0,0.0,0.0,0.0,0.0,0.0,0.0,0.0,0.0,0.0,0.0,0.0,0.0364,0.1611,0.4102,0.4936,0.6498,0.8995,1.1696,1.3202,1.3299,1.5796,1.71,1.7222,1.7378,1.7453,1.7453,1.7494,1.7507,-1.765,-1.8091,-1.8409,-1.8335,-1.8091,-1.7636,-1.6761,-1.5839,-1.4889,-1.3905,-1.2956,-1.2386,-1.2638,-1.2969,-1.3649,-1.493,-1.5879,-1.6734,-1.7514,-1.7792,-1.7914,-1.8036,-1.8057,-1.8091,-1.8199,-1.8199,-1.8213,-1.8233,-1.8375,-1.8335,-1.8077,-1.8199,-1.8213,-1.8057,-1.7935,-1.7915,-1.7915,-1.7915,-1.7915,-1.7915,-1.7915,-1.7935,-1.8057,-1.8057,-1.8145,-1.8287,-1.8409,0.0,-1.8044,-1.5007,-1.2287,-0.9593,-0.5951,-0.2993,-0.0696,-0.0174,0.0,0.0,0.0,0.0,0.0,0.0,0.0,0.0,0.0,0.0,0.0,0.0,0.0,0.0,0.0,0.0,0.0,0.0,0.0,0.0,0.0,0.0,0.0,0.0,0.0,0.0,0.0,0.0,0.0,0.0,0.0,0.0,0.0,0.0,0.0,0.0,0.0,0.0,0.0,0.2149,0.3728,0.4389,0.8879,1.1774,1.2346,1.5046,1.6575,1.6594,1.7056,1.7358,1.7385,1.748,1.7554,1.7561,1.786,1.7968,-1.786,-1.8247,-1.8498,-1.8355,-1.7968,-1.7277,-1.5857,-1.4964,-1.3994,-1.263,-1.1982,-1.1676,-1.1739,-1.2305,-1.3003,-1.3928,-1.478,-1.5737,-1.6802,-1.7073,-1.7392,-1.8023,-1.8158,-1.8233,-1.8265,-1.8321,-1.8287,-1.8213,-1.8409,-1.8386,-1.8213,-1.8287,-1.8287,-1.8213,-1.8145,-1.8111,-1.8111,-1.8023,-1.8023,-1.8091,-1.8023,-1.8057,-1.8213,-1.8213,-1.8287,-1.8329,-1.676,-1.609,-1.5751,-1.1003,-0.8212,-0.6518,-0.3406,-0.1274,0.0,0.0,0.0,0.0,0.0,0.0,0.0,0.0,0.0,0.0,0.0,0.0,0.0,0.0,0.0,0.0,0.0,0.0,0.0,0.0,0.0,0.0,0.0,0.0,0.0,0.0,0.0,0.0,0.0,0.0,0.0,0.0,0.0,0.0,0.0,0.0,0.0,0.0,0.0,0.0,0.0,0.268,0.5039,0.6566,1.0739,1.3815,1.5344,1.6658,1.7419,1.7419,1.7446,1.7575,1.765,1.7806,1.7914,1.7947,1.8145,1.8213,-1.7948,-1.8301,-1.8498,-1.8355,-1.7846,-1.691,-1.5093,-1.4153,-1.3214,-1.1547,-1.1145,-1.1063,-1.1009,-1.1647,-1.2359,-1.3037,-1.3777,-1.478,-1.6164,-1.651,-1.6998,-1.8023,-1.8247,-1.8335,-1.8409,-1.8409,-1.8375,-1.8253,-1.8443,-1.8531,-1.8423,-1.8389,-1.8319,-1.8319,-1.8335,-1.8321,-1.8321,-1.8199,-1.8199,-1.8321,-1.8199,-1.8213,-1.8319,-1.8319,-1.8031,-1.7416,-1.4915,-1.357,-1.2654,-0.6992,-0.4713,-0.4363,-0.1225,0.0,0.0,0.0,0.0,0.0,0.0,0.0,0.0,0.0,0.0,0.0,0.0,0.0,0.0,0.0,0.0,0.0,0.0,0.0,0.0,0.0,0.0,0.0,0.0,0.0,0.0,0.0,0.0,0.0,0.0,0.0,0.0,0.0,0.0,0.0,0.0,0.0,0.0,0.0,0.0,0.0274,0.0929,0.3709,0.6652,0.9498,1.2496,1.5199,1.7453,1.7561,1.7582,1.7616,1.7683,1.7846,1.7968,1.8077,1.8199,1.8321,1.8355,1.8389,-1.7901,-1.8301,-1.8498,-1.8355,-1.7758,-1.6781,-1.5073,-1.396,-1.288,-1.1485,-1.0948,-1.088,-1.128,-1.1531,-1.2094,-1.3321,-1.398,-1.4814,-1.6293,-1.6754,-1.7277,-1.8199,-1.8265,-1.8423,-1.8694,-1.8728,-1.8766,-1.8766,-1.8786,-1.8786,-1.8728,-1.8586,-1.8454,-1.8454,-1.8332,-1.8321,-1.8321,-1.8301,-1.8301,-1.8321,-1.8301,-1.8375,-1.8454,-1.8454,-1.7019,-1.4507,-1.4227,-1.2474,0.0,-0.6099,-0.4694,-0.4399,-0.1235,0.0,0.0,0.0,0.0,0.0,0.0,0.0,0.0,0.0,0.0,0.0,0.0,0.0,0.0,0.0,0.0,0.0,0.0,0.0,0.0,0.0,0.0,0.0,0.0,0.0,0.0,0.0,0.0,0.0,0.0,0.0,0.0,0.0,0.0,0.0,0.0,0.0,0.0,0.0,0.0,0.1093,0.3873,0.6701,0.9669,1.2758,1.5633,1.747,1.8023,1.8036,1.8091,1.8233,1.8247,1.8267,1.8287,1.8287,1.8301,1.8321,1.8443,1.8586,-1.7704,-1.8233,-1.8498,-1.8355,-1.7561,-1.6497,-1.4848,-1.3661,-1.2522,-1.1172,-1.0799,-1.0772,-1.0955,-1.1076,-1.1414,-1.2169,-1.2433,-1.3098,-1.464,-1.5092,-1.5798,-1.7331,-1.7758,-1.8055,-1.8586,-1.8708,-1.882,-1.882,-1.8674,-1.8654,-1.8762,-1.8708,-1.8674,-1.8674,-1.862,-1.8586,-1.8586,-1.8498,-1.8498,-1.8586,-1.8498,-1.8531,-1.8616,-1.6728,-1.5193,-1.3882,-1.0077,-0.8872,0.0,-0.4003,-0.3007,-0.4495,-0.1238,0.0,0.0,0.0,0.0,0.0,0.0,0.0,0.0,0.0,0.0,0.0,0.0,0.0,0.0,0.0,0.0,0.0,0.0,0.0,0.0,0.0,0.0,0.0,0.0,0.0,0.0,0.0,0.0,0.0,0.0,0.0,0.0,0.0,0.0,0.0,0.0,0.0,0.0,0.0,0.0,0.0508,0.169,0.6237,0.9559,1.0768,1.5391,1.8111,1.8233,1.8233,1.8247,1.8321,1.8321,1.8355,1.8443,1.8443,1.8494,1.8728,1.8776,1.8884,-1.7297,-1.7935,-1.819,-1.8145,-1.7277,-1.6094,-1.459,-1.3417,-1.2253,-1.0955,-1.0684,-1.0684,-1.0684,-1.0772,-1.0941,-1.1274,-1.1511,-1.2169,-1.3592,-1.4089,-1.4875,-1.6524,-1.7032,-1.7446,-1.8089,-1.8552,-1.882,-1.882,-1.8654,-1.8654,-1.8762,-1.882,-1.882,-1.882,-1.882,-1.882,-1.882,-1.8654,-1.8654,-1.882,-1.8654,-1.8179,-1.7343,-1.5116,-1.3586,-1.2416,-0.7038,-0.654,0.0,-0.2654,-0.1951,-0.4572,-0.1298,0.0,0.0,0.0,0.0,0.0,0.0,0.0,0.0,0.0,0.0,0.0,0.0,0.0,0.0,0.0,0.0,0.0,0.0,0.0,0.0,0.0,0.0,0.0,0.0,0.0,0.0,0.0,0.0,0.0,0.0,0.0,0.0,0.0,0.0,0.0,0.0,0.0,0.0,0.0,0.0,0.0349,0.1266,0.6193,0.9572,1.0506,1.5413,1.8355,1.8443,1.8409,1.8423,1.8511,1.8511,1.8586,1.8728,1.8728,1.885,1.9061,1.9061,1.9128,-1.6625,-1.7317,-1.7595,-1.7595,-1.6863,-1.5737,-1.4425,-1.3261,-1.2162,-1.0934,-1.0684,-1.0684,-1.0684,-1.0691,-1.0819,-1.1152,-1.1796,-1.2644,-1.3653,-1.4309,-1.5072,-1.5981,-1.6232,-1.6612,-1.7358,-1.8233,-1.882,-1.882,-1.882,-1.882,-1.882,-1.882,-1.882,-1.882,-1.882,-1.882,-1.882,-1.882,-1.882,-1.882,-1.882,-1.7168,-1.4179,-1.412,-1.2416,-0.9262,-0.6103,-0.654,0.0,-0.2654,-0.1951,-0.4572,-0.1298,0.0,0.0,0.0,0.0,0.0,0.0,0.0,0.0,0.0,0.0,0.0,0.0,0.0,0.0,0.0,0.0,0.0,0.0,0.0,0.0,0.0,0.0,0.0,0.0,0.0,0.0,0.0,0.0,0.0,0.0,0.0,0.0,0.0,0.0,0.0,0.0,0.0,0.0,0.0,0.0,0.119,0.4198,0.7393,1.0506,1.3538,1.6611,1.8443,1.88,1.8599,1.8674,1.8972,1.8993,1.9061,1.9203,1.9203,1.9203,1.9203,1.9203,1.9291,-1.5065,-1.5696,-1.6096,-1.5988,-1.5411,-1.459,-1.3595,-1.2778,-1.1955,-1.0928,-1.0684,-1.0684,-1.0684,-1.0684,-1.0948,-1.1696,-1.2016,-1.2501,-1.3504,-1.4167,-1.4882,-1.5683,-1.6815,-1.7738,-1.8287,-1.8606,-1.882,-1.882,-1.882,-1.882,-1.882,-1.882,-1.882,-1.882,-1.882,-1.882,-1.882,-1.8871,-1.78,-1.5592,-1.5677,-1.4057,-1.0817,-0.8635,-0.7156,-0.6036,-0.2844,-0.4567,-0.9074,-0.2654,-0.3188,-0.7594,-0.2124,0.0,0.0,0.0,0.0,0.0,0.0,0.0,0.0,0.0,0.0,0.0,0.0,0.0,0.0,0.0,0.0,0.0,0.0,0.0,0.0,0.0,0.0,0.0,0.0,0.0,0.0,0.0,0.0,0.0,0.0,0.0,0.0,0.0,0.0,0.0,0.0,0.0,0.0,0.0,0.0,0.036,0.1368,0.6393,0.9892,1.0856,1.5974,1.8972,1.9061,1.9006,1.904,1.9128,1.9128,1.9149,1.9203,1.9203,1.9257,1.9359,1.9468,1.9535,-1.3597,-1.4658,-1.5059,-1.5025,-1.4529,-1.3844,-1.3051,-1.2366,-1.1674,-1.088,-1.0684,-1.0485,-0.9809,-1.0246,-1.0664,-1.0563,-1.1345,-1.2264,-1.3091,-1.3865,-1.4713,-1.5689,-1.691,-1.786,-1.8432,-1.8677,-1.882,-1.882,-1.7704,-1.7006,-1.7006,-1.5872,-1.5232,-1.5232,-1.7581,-1.8226,-1.7046,-1.7086,-1.5543,-1.2308,-1.2402,-1.0738,-0.754,-0.5603,-0.4716,-0.4537,-0.1371,-0.3634,0.0,-0.2666,-0.3081,-0.7295,-0.2071,0.0,0.0,0.0,0.0,0.0,0.0,0.0,0.0,0.0,0.0,0.0,0.0,0.0,0.0,0.0,0.0,0.0,0.0,0.0,0.0,0.0,0.0,0.0,0.0,0.0,0.0,0.0,0.0,0.0,0.0,0.0,0.0,0.0,0.0,0.0,0.0,0.0,0.0,0.0,0.0,0.0552,0.1839,0.6656,0.9614,0.9702,1.5678,1.9217,1.9291,1.9237,1.9237,1.9291,1.9291,1.9325,1.9379,1.9434,1.9535,1.9678,1.9786,1.982,0.0,-1.3577,-1.3934,-1.4059,-1.3584,-1.2903,-1.2351,-1.1669,0.0,-1.043,-1.0319,-0.9821,-0.8128,-0.9289,-0.9973,-0.8363,-1.022,-1.2023,-1.2528,-1.3532,-1.4758,-1.6049,-1.6565,-1.7083,-1.788,-1.8088,-1.822,-1.8458,-1.5528,-1.3766,-1.3766,-1.0961,-0.9379,-0.9379,-1.5057,-1.6703,-1.3766,-1.3776,-1.2308,-0.9379,-0.9169,-0.7548,-0.4699,-0.4438,-0.4394,-0.4214,-0.1257,-0.3528,-0.8763,-0.2569,-0.1906,-0.4581,-0.1252,0.0,0.0,0.0,0.0,0.0,0.0,0.0,0.0,0.0,0.0,0.0,0.0,0.0,0.0,0.0,0.0,0.0,0.0,0.0,0.0,0.0,0.0,0.0,0.0,0.0,0.0,0.0,0.0,0.0,0.0,0.0,0.0,0.0,0.0,0.0,0.0,0.0,0.0,0.0,0.0188,0.1638,0.4845,0.7901,0.9779,1.0158,1.5876,1.9305,1.9447,1.9305,1.9305,1.9447,1.9447,1.9535,1.9759,1.982,1.9963,2.0098,2.0098,2.0098,-0.6958,0.0,-0.8202,-0.8076,-0.7902,-0.7736,0.0,-0.73,-0.7083,-0.6715,-0.6631,-0.653,-0.6105,-0.7455,-0.8731,-0.9023,-1.1004,-1.2713,-1.3389,-1.4726,-1.6069,-1.735,-1.5655,-1.5484,-1.8339,-1.4349,-1.2595,-1.4994,-1.2308,-1.049,-1.049,-0.9792,-0.9379,-0.9379,-1.0844,-1.1245,-1.049,-1.0617,-1.0202,-0.9379,-0.7084,-0.5513,-0.4618,-0.218,-0.1095,-0.1034,-0.0304,-0.2236,-0.5529,-0.1623,-0.1862,-0.4438,-0.1262,0.0,0.0,0.0,0.0,0.0,0.0,0.0,0.0,0.0,0.0,0.0,0.0,0.0,0.0,0.0,0.0,0.0,0.0,0.0,0.0,0.0,0.0,0.0,0.0,0.0,0.0,0.0,0.0,0.0,0.0,0.0,0.0,0.0,0.0,0.0,0.0,0.0,0.0,0.0,0.2371,0.4253,0.503,0.7951,1.0942,1.3758,1.7471,1.9624,1.9766,1.9624,1.9576,1.961,1.9712,1.9841,1.9997,2.0031,2.0064,2.0098,2.0098,2.0031,-0.2843,-0.4605,-0.6148,-0.6144,-0.6076,-0.5958,-0.5845,-0.5747,-0.5635,-0.5453,-0.5396,-0.54,-0.5415,-0.6936,-0.8417,-0.8984,-1.0147,-1.1398,-1.2708,-1.4767,-1.6104,-1.5875,-1.4532,-1.3812,-1.4449,-1.1424,-1.0136,-1.1837,-0.9025,-0.7217,-0.7217,-0.5869,-0.511,-0.511,-0.511,-0.581,-0.7217,-0.731,-0.6598,-0.5051,-0.3406,-0.259,-0.2469,-0.0794,0.0,0.0,0.0,-0.0971,-0.2409,-0.0727,-0.1028,-0.2349,-0.0666,0.0,0.0,0.0,0.0,0.0,0.0,0.0,0.0,0.0,0.0,0.0,0.0,0.0,0.0,0.0,0.0,0.0,0.0,0.0,0.0,0.0,0.0,0.0,0.0,0.0,0.0,0.0,0.0,0.0,0.0,0.0,0.0,0.0,0.0,0.0,0.0,0.0,0.0,0.0,0.3071,0.5727,0.7323,1.044,1.3107,1.5061,1.8021,1.9814,1.9963,1.9841,1.9848,1.9854,1.9942,2.0051,2.0207,2.0207,2.0241,2.0295,2.0241,2.0153,0.0,-0.2488,-0.5117,-0.5299,-0.5198,-0.504,-0.4934,-0.4823,-0.4722,-0.4605,-0.4803,-0.4925,-0.4626,-0.6798,-0.856,-0.8459,-0.8847,-0.9659,-1.1006,-1.3461,-1.4482,-1.2927,-1.2446,-1.1484,-0.9596,-0.8505,-0.8151,-0.8622,-0.5752,-0.3996,-0.3996,-0.1471,0.0,0.0,0.0,-0.1295,-0.3937,-0.3996,-0.2882,-0.0707,-0.0239,-0.0241,-0.0724,-0.0245,0.0,0.0,0.0,0.0,0.0,0.0,0.0,0.0,0.0,0.0,0.0,0.0,0.0,0.0,0.0,0.0,0.0,0.0,0.0,0.0,0.0,0.0,0.0,0.0,0.0,0.0,0.0,0.0,0.0,0.0,0.0,0.0,0.0,0.0,0.0,0.0,0.0,0.0,0.0,0.0,0.0,0.0,0.0,0.0,0.0,0.0,0.0187,0.0686,0.3847,0.7299,1.0715,1.4079,1.6012,1.5978,1.8353,1.98,2.0051,1.9942,1.9963,2.0139,2.0119,2.0187,2.03,2.03,2.0354,2.0442,2.032,2.0246,0.0,-0.0442,-0.0929,-0.0975,-0.094,-0.0913,-0.0891,-0.0881,-0.0843,-0.0841,-0.2136,-0.2772,-0.1126,-0.5345,-0.8713,-0.7534,-0.9057,-0.9975,-0.8752,-0.9113,-0.9601,-0.9834,-0.7588,-0.6962,-0.9201,-0.458,-0.2528,-0.5228,-0.2528,-0.0706,-0.0706,-0.0236,0.0,0.0,0.0,-0.0236,-0.0706,-0.0706,-0.1823,-0.3937,-0.1257,-0.1386,-0.3911,-0.1225,0.0,0.0,0.0,0.0,0.0,0.0,0.0,0.0,0.0,0.0,0.0,0.0,0.0,0.0,0.0,0.0,0.0,0.0,0.0,0.0,0.0,0.0,0.0,0.0,0.0,0.0,0.0,0.0,0.0,0.0,0.0,0.0,0.0,0.0,0.0,0.0,0.0,0.0,0.0,0.0,0.0,0.0,0.0,0.0,0.0,0.0,0.1053,0.3856,0.7329,1.082,1.4019,1.752,1.9492,1.9535,1.9756,1.9916,1.9908,1.9888,2.001,2.0232,2.0173,2.0241,2.0442,2.0442,2.0388,2.03,2.0286,2.0187,0.0,0.0,0.0,0.0,0.0,0.0,0.0,0.0,0.0,0.0,-0.0722,-0.1353,-0.1432,-0.3884,-0.5695,-0.5039,-0.7064,-0.8138,-0.634,-0.7423,-0.7965,-0.6773,-0.5481,-0.458,-0.4345,-0.1707,-0.0588,-0.2058,-0.0824,0.0,0.0,0.0,0.0,0.0,0.0,0.0,0.0,0.0,-0.0709,-0.2117,-0.0718,-0.0784,-0.2109,-0.0674,0.0,0.0,0.0,0.0,0.0,0.0,0.0,0.0,0.0,0.0,0.0,0.0,0.0,0.0,0.0,0.0,0.0,0.0,0.0,0.0,0.0,0.0,0.0,0.0,0.0,0.0,0.0,0.0,0.0,0.0,0.0,0.0,0.0,0.0,0.0,0.0,0.0,0.0547,0.2315,0.262,0.262,0.262,0.263,0.2023,0.0246,0.1538,0.3273,0.4848,0.9756,1.3586,1.509,1.844,2.0349,2.0098,2.0098,2.0051,1.9936,2.0031,2.0153,2.0207,2.0295,2.0363,2.0374,2.0374,2.0374,2.0374,2.0275,2.0173,0.0,0.0,0.0,0.0,0.0,0.0,0.0,0.0,0.0,0.0,-0.0351,-0.0975,-0.1892,-0.279,-0.334,-0.321,-0.5022,-0.572,-0.3715,-0.5222,-0.573,-0.3705,-0.351,-0.2647,-0.0236,0.0,0.0,0.0,0.0,0.0,0.0,0.0,0.0,0.0,0.0,0.0,0.0,0.0,0.0,0.0,0.0,0.0,0.0,0.0,0.0,0.0,0.0,0.0,0.0,0.0,0.0,0.0,0.0,0.0,0.0,0.0,0.0,0.0,0.0,0.0,0.0,0.0,0.0,0.0,0.0,0.0,0.0,0.0,0.0,0.0,0.0,0.0,0.0,0.0,0.0,0.0,0.0,0.0,0.0243,0.104,0.1165,0.2272,0.5618,0.5504,0.4946,0.4946,0.427,0.3158,0.1426,0.3406,0.5576,0.7284,1.2162,1.5587,1.6529,1.8976,2.0349,1.9997,2.0227,2.0261,1.9997,2.0173,2.0241,2.0153,2.0349,2.0397,2.0329,2.03,2.0354,2.0422,2.0261,2.0207,0.0,0.0,0.0,0.0,0.0,0.0,0.0,0.0,0.0,0.0,-0.1439,-0.2176,-0.0509,-0.2361,-0.3988,-0.3609,-0.4045,-0.3429,-0.0718,-0.0505,-0.0513,-0.0348,-0.0351,-0.0236,0.0,0.0,0.0,0.0,0.0,0.0,0.0,0.0,0.0,0.0,0.0,0.0,0.0,0.0,0.0,0.0,0.0,0.0,0.0,0.0,0.0,0.0,0.0,0.0,0.0,0.0,0.0,0.0,0.0,0.0,0.0,0.0,0.0,0.0,0.0,0.0,0.0,0.0,0.0,0.0,0.0,0.0,0.0,0.0,0.0,0.0,0.0,0.0,0.0,0.0,0.0,0.0,0.0,0.0,0.0926,0.4095,0.472,0.5849,0.9332,0.7216,0.5088,0.5088,0.2392,0.1386,0.4337,0.4962,0.7469,1.3794,1.5028,1.6661,1.9871,2.0221,2.0329,2.0295,2.0438,2.0388,2.0295,2.0187,2.0173,2.0246,2.0187,2.0187,2.0329,2.0388,2.0408,2.0286,2.0266,2.0241,0.0,0.0,0.0,0.0,0.0,0.0,0.0,0.0,0.0,0.0,-0.0607,-0.0882,-0.014,-0.087,-0.1553,-0.1389,-0.1507,-0.123,-0.0171,0.0,0.0,0.0,0.0,0.0,0.0,0.0,0.0,0.0,0.0,0.0,0.0,0.0,0.0,0.0,0.0,0.0,0.0,0.0,0.0,0.0,0.0,0.0,0.0,0.0,0.0,0.0,0.0,0.0,0.0,0.0,0.0,0.0,0.0,0.0,0.0,0.0,0.0,0.0,0.0,0.0,0.0,0.0,0.0,0.0,0.0,0.0,0.0,0.0,0.0,0.0,0.0,0.1538,0.3069,0.3077,0.4617,0.6086,0.6086,0.6086,0.6534,0.7943,0.8146,0.9275,1.2728,1.2245,1.1361,1.1361,1.0297,0.9176,0.842,1.0116,1.2391,1.5038,1.7241,1.9071,2.0412,2.0422,2.0388,2.0388,2.0374,2.0349,2.0187,2.0227,2.0227,2.0187,2.0315,2.03,2.0329,2.032,2.0374,2.0388,2.0363,2.0349,0.0,0.0,0.0,0.0,0.0,0.0,0.0,0.0,0.0,0.0,0.0,0.0,0.0,0.0,0.0,0.0,0.0,0.0,0.0,0.0,0.0,0.0,0.0,0.0,0.0,0.0,0.0,0.0,0.0,0.0,0.0,0.0,0.0,0.0,0.0,0.0,0.0,0.0,0.0,0.0,0.0,0.0,0.0,0.0,0.0,0.0,0.0,0.0,0.0,0.0,0.0,0.0,0.0,0.0,0.0,0.0,0.0,0.0,0.0,0.0,0.0,0.0,0.0,0.0,0.0,0.0,0.0,0.0,0.074,0.1541,0.1541,0.3202,0.4921,0.4921,0.7447,0.9859,0.9859,0.9938,1.0347,1.1553,1.1759,1.2782,1.6288,1.5996,1.5231,1.5231,1.4346,1.3214,1.2076,1.3853,1.5703,1.6868,1.9071,2.0476,2.0476,2.0476,2.0476,2.0476,2.0388,2.0349,2.0241,2.0295,2.0275,2.0173,2.0363,2.0374,2.0329,2.032,2.0388,2.0476,2.0438,2.0388,0.0,0.0,0.0,0.0,0.0,0.0,0.0,0.0,0.0,0.0,0.0,0.0,0.0,0.0,0.0,0.0,0.0,0.0,0.0,0.0,0.0,0.0,0.0,0.0,0.0,0.0,0.0,0.0,0.0,0.0,0.0,0.0,0.0,0.0,0.0,0.0,0.0,0.0,0.0,0.0,0.0,0.0,0.0,0.0,0.0,0.0,0.0,0.0,0.0,0.0,0.0,0.0,0.0,0.0,0.0,0.0,0.0,0.0,0.0,0.0,0.0,0.0,0.0,0.0,0.0,0.0,0.0062,0.0062,0.2404,0.4921,0.4921,0.4982,0.4982,0.4982,0.7604,1.0127,1.0127,1.0252,1.14,1.4768,1.5424,1.6546,1.9934,1.7715,1.5467,1.5467,1.2579,1.1619,1.5015,1.5467,1.6753,2.0151,2.0476,2.0476,2.0476,2.0476,2.0476,2.0476,2.0476,2.0476,2.0476,2.0397,2.0329,2.0329,2.0329,2.0329,2.0329,2.0471,2.0476,2.0476,2.0476,2.0476,0.0,0.0,0.0,0.0,0.0,0.0,0.0,0.0,0.0,0.0,0.0,0.0,0.0,0.0,0.0,0.0,0.0,0.0,0.0,0.0,0.0,0.0,0.0,0.0,0.0,0.0,0.0,0.0,0.0,0.0,0.0,0.0,0.0,0.0,0.0,0.0,0.0,0.0,0.0,0.0,0.0,0.0,0.0,0.0,0.0,0.0,0.0,0.0,0.0,0.0,0.0,0.0,0.0,0.0,0.0,0.0,0.0,0.0,0.0,0.0,0.0,0.0,0.0,0.0,0.0,0.1602,0.3446,0.3446,0.5839,0.8352,0.8352,1.017,1.2013,1.2013,1.463,1.7089,1.7089,1.718,1.7494,1.8648,1.8856,1.9215,2.0328,1.9643,1.8988,1.8988,1.8091,1.783,1.8873,1.8988,1.9382,2.0412,2.0476,2.0476,2.0476,2.0476,2.0476,2.0476,2.0476,2.0476,2.0476,2.0442,2.0471,2.0471,2.0471,2.0471,2.0471,2.0462,2.0476,2.0476,2.0476,2.0476,0.0,0.0,0.0,0.0,0.0,0.0,0.0,0.0,0.0,0.0,0.0,0.0,0.0,0.0,0.0,0.0,0.0,0.0,0.0,0.0,0.0,0.0,0.0,0.0,0.0,0.0,0.0,0.0,0.0,0.0,0.0,0.0,0.0,0.0,0.0,0.0,0.0,0.0,0.0,0.0,0.0,0.0,0.0,0.0,0.0,0.0,0.0,0.0,0.0,0.0,0.0,0.0,0.0,0.0,0.0,0.0,0.0,0.0,0.0,0.0,0.0,0.0,0.0863,0.1972,0.1972,0.4247,0.6819,0.6819,0.921,1.1731,1.1833,1.4451,1.671,1.5295,1.766,2.0187,2.0187,2.0241,2.0295,2.0334,2.0354,2.0438,2.0462,2.0476,2.0476,2.0476,2.0476,2.0476,2.0476,2.0476,2.0476,2.0476,2.0476,2.056,2.0627,2.0573,2.053,2.0716,2.0668,2.0661,2.0716,2.0668,2.0627,2.0627,2.0627,2.0594,2.0476,2.0476,2.0476,2.0476,2.0476,2.0476,0.0,0.0,0.0,0.0,0.0,0.0,0.0,0.0,0.0,0.0,0.0,0.0,0.0,0.0,0.0,0.0,0.0,0.0,0.0,0.0,0.0,0.0,0.0,0.0,0.0,0.0,0.0,0.0,0.0,0.0,0.0,0.0,0.0,0.0,0.0,0.0,0.0,0.0,0.0,0.0,0.0,0.0,0.0,0.0,0.0,0.0,0.0,0.0,0.0,0.0,0.0,0.0,0.0,0.0,0.0,0.0,0.0,0.0,0.0,0.0,0.0062,0.037,0.2464,0.4982,0.5228,0.7621,1.0258,1.0258,1.2648,1.521,1.5427,1.7742,1.9332,1.6204,1.7993,2.0349,2.0349,2.0388,2.0476,2.0476,2.0476,2.0476,2.0476,2.0476,2.0476,2.0476,2.0476,2.0476,2.0476,2.0476,2.0539,2.056,2.0539,2.0614,2.0756,2.0648,2.0682,2.0967,2.0858,2.0858,2.1021,2.0858,2.0834,2.079,2.077,2.0682,2.056,2.0539,2.0476,2.0476,2.0476,2.0476,0.0,0.0,0.0,0.0,0.0,0.0,0.0,0.0,0.0,0.0,0.0,0.0,0.0,0.0,0.0,0.0,0.0,0.0,0.0,0.0,0.0,0.0,0.0,0.0,0.0,0.0,0.0,0.0,0.0,0.0,0.0,0.0,0.0,0.0,0.0,0.0,0.0,0.0,0.0,0.0,0.0,0.0,0.0,0.0,0.0,0.0,0.0,0.0,0.0,0.0,0.0,0.0,0.0,0.0,0.0,0.0,0.0,0.0,0.0,0.0,0.0432,0.3018,0.4309,0.5351,0.7984,1.105,1.3626,1.3626,1.6144,1.8777,1.8816,1.9568,2.008,1.9357,1.9802,2.0485,2.0485,2.0462,2.0476,2.0476,2.0476,2.0476,2.0476,2.0476,2.0476,2.0476,2.0476,2.0476,2.0476,2.0476,2.053,2.0702,2.0614,2.0614,2.0756,2.0736,2.0756,2.0824,2.0892,2.1021,2.1157,2.0912,2.0824,2.0946,2.0716,2.0627,2.0716,2.0594,2.0476,2.0476,2.0476,2.0476,0.0,0.0,0.0,0.0,0.0,0.0,0.0,0.0,0.0,0.0,0.0,0.0,0.0,0.0,0.0,0.0,0.0,0.0,0.0,0.0,0.0,0.0,0.0,0.0,0.0,0.0,0.0,0.0,0.0,0.0,0.0,0.0,0.0,0.0,0.0,0.0,0.0,0.0,0.0,0.0,0.0,0.0,0.0,0.0,0.0,0.0,0.0,0.0,0.0,0.0,0.0,0.0,0.0,0.0,0.0,0.0,0.0,0.0,0.0,0.1049,0.2648,0.4371,0.7005,0.9887,1.1608,1.4481,1.7081,1.7146,1.8512,1.9908,2.0051,2.0207,2.0349,2.0354,2.0422,2.0476,2.0476,2.0476,2.0476,2.0476,2.0476,2.0476,2.0476,2.0476,2.0476,2.0476,2.0476,2.0476,2.0476,2.0476,2.0594,2.0756,2.0702,2.0736,2.0967,2.0912,2.0946,2.1089,2.1109,2.1157,2.1319,2.1109,2.1021,2.1109,2.0946,2.0824,2.077,2.0682,2.0614,2.0476,2.0476,2.0476,0.0,0.0,0.0,0.0,0.0,0.0,0.0,0.0,0.0,0.0,0.0,0.0,0.0,0.0,0.0,0.0,0.0,0.0,0.0,0.0,0.0,0.0,0.0,0.0,0.0,0.0,0.0,0.0,0.0,0.0,0.0,0.0,0.0,0.0,0.0,0.0,0.0,0.0,0.0,0.0,0.0,0.0,0.0,0.0,0.0,0.0,0.0,0.0,0.0,0.0,0.0,0.0,0.0,0.0,0.0,0.0,0.0,0.0062,0.0678,0.2648,0.5105,0.6209,1.0258,1.4796,1.5401,1.7502,1.9759,1.9841,1.9888,1.9976,2.0261,2.0349,2.0334,2.0442,2.0476,2.0476,2.0476,2.0476,2.0476,2.0476,2.0476,2.0476,2.0476,2.0476,2.0476,2.0476,2.0476,2.0476,2.0476,2.056,2.0648,2.079,2.0811,2.0912,2.1197,2.1109,2.1143,2.1321,2.1299,2.1299,2.1375,2.1319,2.1245,2.1245,2.1197,2.1068,2.0845,2.0824,2.0756,2.0614,2.0614,2.0614,0.0,0.0,0.0,0.0,0.0,0.0,0.0,0.0,0.0,0.0,0.0,0.0,0.0,0.0,0.0,0.0,0.0,0.0,0.0,0.0,0.0,0.0,0.0,0.0,0.0,0.0,0.0,0.0,0.0,0.0,0.0,0.0,0.0,0.0,0.0,0.0,0.0,0.0,0.0,0.0,0.0,0.0,0.0,0.0,0.0,0.0,0.0,0.0,0.0,0.0,0.0,0.0,0.0,0.0,0.0,0.0,0.0,0.0432,0.3264,0.455,0.5839,1.1543,1.3997,1.5229,1.8171,1.9347,1.9759,1.9841,1.9963,2.0119,2.0275,2.0417,2.0462,2.0476,2.0476,2.0476,2.0476,2.0476,2.0476,2.0476,2.0476,2.0476,2.0476,2.0476,2.0476,2.0476,2.0476,2.0476,2.0476,2.0668,2.0804,2.0946,2.0967,2.1034,2.1197,2.1197,2.1197,2.1245,2.1353,2.1355,2.1375,2.1355,2.1341,2.1341,2.1157,2.1068,2.1157,2.1034,2.0967,2.0946,2.0946,2.0946,0.0,0.0,0.0,0.0,0.0,0.0,0.0,0.0,0.0,0.0,0.0,0.0,0.0,0.0,0.0,0.0,0.0,0.0,0.0,0.0,0.0,0.0,0.0,0.0,0.0,0.0,0.0,0.0,0.0,0.0,0.0,0.0,0.0,0.0,0.0,0.0,0.0,0.0,0.0,0.0,0.0,0.0,0.0,0.0,0.0,0.0,0.0,0.0,0.0,0.0,0.0,0.0,0.0,0.0,0.0,0.0,0.1172,0.2956,0.4371,0.7312,1.0866,1.3753,1.5961,1.7758,1.9225,1.9725,1.9712,1.9942,2.0051,2.0153,2.0383,2.0485,2.0476,2.0476,2.0476,2.0476,2.0476,2.0614,2.0668,2.0668,2.0594,2.0476,2.0476,2.0476,2.0476,2.0476,2.0476,2.051,2.0668,2.0736,2.0858,2.1089,2.1123,2.1177,2.1267,2.1333,2.1333,2.1333,2.1341,2.1375,2.1375,2.1375,2.1375,2.1375,2.1253,2.1231,2.1211,2.1143,2.1068,2.1001,2.1001,2.1001,0.0,0.0,0.0,0.0,0.0,0.0,0.0,0.0,0.0,0.0,0.0,0.0,0.0,0.0,0.0,0.0,0.0,0.0,0.0,0.0,0.0,0.0,0.0,0.0,0.0,0.0,0.0,0.0,0.0,0.0,0.0,0.0,0.0,0.0,0.0,0.0,0.0,0.0,0.0,0.0,0.0,0.0,0.0,0.0,0.0,0.0,0.0,0.0,0.0,0.0,0.0,0.0,0.0,0.0,0.0123,0.0925,0.2771,0.5167,0.6819,1.0618,1.4857,1.5711,1.763,1.9725,1.9725,1.9725,1.9773,2.001,2.0098,2.0173,2.0408,2.0476,2.0476,2.0476,2.0476,2.0476,2.0476,2.0627,2.0716,2.0716,2.0648,2.053,2.0539,2.051,2.053,2.0539,2.051,2.0648,2.0756,2.0845,2.0967,2.1197,2.1245,2.1319,2.1421,2.1375,2.1375,2.1375,2.1375,2.1375,2.1375,2.1375,2.1375,2.1375,2.1375,2.1321,2.1265,2.1265,2.1211,2.1109,2.1109,2.1109,0.0,0.0,0.0,0.0,0.0,0.0,0.0,0.0,0.0,0.0,0.0,0.0,0.0,0.0,0.0,0.0,0.0,0.0,0.0,0.0,0.0,0.0,0.0,0.0,0.0,0.0,0.0,0.0,0.0,0.0,0.0,0.0,0.0,0.0,0.0,0.0,0.0,0.0,0.0,0.0,0.0,0.0,0.0,0.0,0.0,0.0,0.0,0.0,0.0,0.0,0.0,0.0,0.0,0.0,0.037,0.3508,0.4736,0.5777,1.2028,1.442,1.5229,1.8428,1.9536,1.9725,1.9725,1.9725,1.9773,2.001,2.0098,2.0173,2.0408,2.0476,2.0476,2.0476,2.0476,2.0476,2.0476,2.0539,2.0496,2.0496,2.0668,2.0716,2.056,2.0668,2.0716,2.056,2.0668,2.0821,2.077,2.1021,2.1197,2.1211,2.1333,2.1375,2.1375,2.1375,2.1375,2.1375,2.1375,2.1375,2.1375,2.1375,2.1375,2.1375,2.1375,2.1375,2.1421,2.1421,2.1421,2.1355,2.1355,2.1355,0.0,0.0,0.0,0.0,0.0,0.0,0.0,0.0,0.0,0.0,0.0,0.0,0.0,0.0,0.0,0.0,0.0,0.0,0.0,0.0,0.0,0.0,0.0,0.0,0.0,0.0,0.0,0.0,0.0,0.0,0.0,0.0,0.0,0.0,0.0,0.0,0.0,0.0,0.0,0.0,0.0,0.0,0.0,0.0,0.0,0.0,0.0,0.0,0.0,0.0,0.0,0.0,0.0,0.1296,0.3264,0.4489,0.756,1.1543,1.3875,1.6088,1.8111,1.9286,1.9725,1.9739,1.9827,1.98,1.9854,2.0173,2.0241,2.0295,2.0422,2.0476,2.0476,2.0476,2.0476,2.0476,2.0476,2.0614,2.0682,2.0682,2.0804,2.0878,2.0716,2.0824,2.0824,2.051,2.0756,2.0878,2.079,2.1034,2.1245,2.1353,2.1341,2.1375,2.1375,2.1375,2.1375,2.1375,2.1375,2.1375,2.1375,2.1375,2.1375,2.1375,2.1375,2.1375,2.1375,2.1375,2.1375,2.1375,2.1375,2.1375,0.0,0.0,0.0,0.0,0.0,0.0,0.0,0.0,0.0,0.0,0.0,0.0,0.0,0.0,0.0,0.0,0.0,0.0,0.0,0.0,0.0,0.0,0.0,0.0,0.0,0.0,0.0,0.0,0.0,0.0,0.0,0.0,0.0,0.0,0.0,0.0,0.0,0.0,0.0,0.0,0.0,0.0,0.0,0.0,0.0,0.0,0.0,0.0,0.0,0.0,0.0,0.0123,0.1234,0.2956,0.5167,0.7373,1.0927,1.4857,1.5961,1.7861,1.9725,1.9725,1.9759,1.9752,1.9848,1.9875,1.9997,2.0187,2.0295,2.03,2.0442,2.0476,2.0476,2.0476,2.0476,2.0496,2.0614,2.0702,2.077,2.077,2.0933,2.1021,2.0878,2.0967,2.098,2.0736,2.0912,2.1034,2.0933,2.1143,2.1267,2.1421,2.1375,2.1375,2.1375,2.1375,2.1375,2.1375,2.1375,2.1375,2.1375,2.1375,2.1375,2.1375,2.1375,2.1375,2.1375,2.1375,2.1375,2.1375,2.1375,2.1375,0.0,0.0,0.0,0.0,0.0,0.0,0.0,0.0,0.0,0.0,0.0,0.0,0.0,0.0,0.0,0.0,0.0,0.0,0.0,0.0,0.0,0.0,0.0,0.0,0.0,0.0,0.0,0.0,0.0,0.0,0.0,0.0,0.0,0.0,0.0,0.0,0.0,0.0,0.0,0.0,0.0,0.0,0.0,0.0,0.0,0.0,0.0,0.0,0.0,0.0,0.0,0.0309,0.3631,0.4982,0.5839,1.2338,1.473,1.529,1.8549,1.9725,1.9725,1.9725,1.9766,1.9854,1.9773,1.9875,2.0098,2.0119,2.0227,2.0363,2.0442,2.0476,2.0476,2.0476,2.0476,2.058,2.0736,2.077,2.0834,2.0834,2.1021,2.1177,2.1034,2.1123,2.1177,2.1021,2.1123,2.1211,2.1211,2.1333,2.1421,2.1375,2.1375,2.1375,2.1375,2.1375,2.1375,2.1441,2.1441,2.1441,2.1389,2.1389,2.1389,2.1389,2.1389,2.1389,2.1389,2.1375,2.1375,2.1375,2.1375,2.1375,0.0,0.0,0.0,0.0,0.0,0.0,0.0,0.0,0.0,0.0,0.0,0.0,0.0,0.0,0.0,0.0,0.0,0.0,0.0,0.0,0.0,0.0,0.0,0.0,0.0,0.0,0.0,0.0,0.0,0.0,0.0,0.0,0.0,0.0,0.0,0.0,0.0,0.0,0.0,0.0,0.0,0.0,0.0,0.0,0.0,0.0,0.0,0.0,0.0,0.0,0.0,0.0309,0.3631,0.6332,0.8971,1.3133,1.621,1.8428,1.9408,1.9725,1.9739,1.9786,1.9902,1.9908,2.0085,2.0207,2.0232,2.0383,2.0388,2.0422,2.0462,2.0476,2.0476,2.0476,2.0476,2.058,2.0736,2.0858,2.0933,2.0933,2.1177,2.1267,2.1177,2.1279,2.1299,2.1034,2.1034,2.1055,2.1055,2.1089,2.1211,2.1355,2.1375,2.1375,2.1375,2.1375,2.1496,2.1597,2.1597,2.1652,2.176,2.176,2.176,2.176,2.176,2.176,2.176,2.1543,2.1375,2.1375,2.1375,2.1375,0.0,0.0,0.0,0.0,0.0,0.0,0.0,0.0,0.0,0.0,0.0,0.0,0.0,0.0,0.0,0.0,0.0,0.0,0.0,0.0,0.0,0.0,0.0,0.0,0.0,0.0,0.0,0.0,0.0,0.0,0.0,0.0,0.0,0.0,0.0,0.0,0.0,0.0,0.0,0.0,0.0,0.0,0.0,0.0,0.0,0.0,0.0,0.0,0.0,0.0,0.08,0.2342,0.566,0.8971,1.2277,1.5589,1.805,1.9725,1.9725,1.9725,1.9739,1.9882,1.997,1.9997,2.0173,2.0315,2.0417,2.0388,2.0485,2.0476,2.0476,2.0476,2.0476,2.0476,2.0476,2.0594,2.0824,2.0933,2.1021,2.1068,2.1279,2.1408,2.1319,2.1321,2.1321,2.1211,2.1177,2.1177,2.1177,2.1177,2.1245,2.1355,2.1375,2.1455,2.153,2.1475,2.153,2.174,2.1706,2.174,2.1882,2.1882,2.1848,2.1794,2.1794,2.1794,2.1794,2.1618,2.1509,2.1375,2.1375,2.1409,0.0,0.0,0.0,0.0,0.0,0.0,0.0,0.0,0.0,0.0,0.0,0.0,0.0,0.0,0.0,0.0,0.0,0.0,0.0,0.0,0.0,0.0,0.0,0.0,0.0,0.0,0.0,0.0,0.0,0.0,0.0,0.0,0.0,0.0,0.0,0.0,0.0,0.0,0.0,0.0,0.0,0.0,0.0,0.0,0.0,0.0,0.0,0.0,0.0,0.0,0.1957,0.5228,0.8538,1.1784,1.5107,1.8488,1.9725,1.9725,1.9725,1.9725,1.9739,1.9854,1.9997,2.0098,2.0139,2.0329,2.0462,2.0383,2.0438,2.0476,2.0476,2.0476,2.0476,2.0476,2.0496,2.0648,2.0933,2.1021,2.1068,2.1211,2.1353,2.1375,2.1375,2.1375,2.1375,2.1375,2.1341,2.1341,2.1375,2.1341,2.1408,2.1455,2.1389,2.1509,2.1652,2.153,2.1564,2.1862,2.176,2.176,2.1937,2.1937,2.1882,2.174,2.174,2.174,2.1726,2.1706,2.1618,2.1496,2.1496,2.1564,0.0,0.0,0.0,0.0,0.0,0.0,0.0,0.0,0.0,0.0,0.0,0.0,0.0,0.0,0.0,0.0,0.0,0.0,0.0,0.0,0.0,0.0,0.0,0.0,0.0,0.0,0.0,0.0,0.0,0.0,0.0,0.0,0.0,0.0,0.0,0.0,0.0,0.0,0.0,0.0,0.0,0.0,0.0,0.0,0.0,0.0,0.0,0.0,0.0,0.0,0.1948,0.5228,0.8538,1.1784,1.5107,1.8488,1.9725,1.9725,1.9725,1.9725,1.9759,1.9976,2.0085,2.0153,2.0383,2.0485,2.0476,2.0442,2.0462,2.0476,2.0476,2.0476,2.0476,2.0476,2.0627,2.077,2.0967,2.1089,2.1211,2.1301,2.1355,2.1375,2.1375,2.1375,2.1375,2.1375,2.1245,2.1177,2.1341,2.1231,2.1231,2.1584,2.1509,2.1509,2.1652,2.153,2.1564,2.1862,2.1862,2.1971,2.2235,2.2249,2.2235,2.2146,2.2146,2.2147,2.2025,2.1903,2.1828,2.1794,2.1794,2.1815,0.0,0.0,0.0,0.0,0.0,0.0,0.0,0.0,0.0,0.0,0.0,0.0,0.0,0.0,0.0,0.0,0.0,0.0,0.0,0.0,0.0,0.0,0.0,0.0,0.0,0.0,0.0,0.0,0.0,0.0,0.0,0.0,0.0,0.0,0.0,0.0,0.0,0.0,0.0,0.0,0.0,0.0,0.0,0.0,0.0,0.0,0.0,0.0,0.012,0.1745,0.4369,0.7496,0.9155,1.2832,1.738,1.9097,1.9725,1.9725,1.9725,1.9712,1.98,2.0031,2.0153,2.0261,2.0471,2.0476,2.0476,2.0476,2.0476,2.0476,2.0476,2.0476,2.056,2.0627,2.0716,2.0889,2.1055,2.1157,2.1265,2.1341,2.1375,2.1375,2.1375,2.1375,2.1375,2.1375,2.1319,2.1279,2.1355,2.1253,2.1333,2.1638,2.1597,2.1618,2.176,2.1706,2.176,2.1991,2.1991,2.2093,2.2323,2.2268,2.2303,2.2235,2.2235,2.2181,2.2113,2.2113,2.2025,2.1882,2.1882,2.1916,0.0,0.0,0.0,0.0,0.0,0.0,0.0,0.0,0.0,0.0,0.0,0.0,0.0,0.0,0.0,0.0,0.0,0.0,0.0,0.0,0.0,0.0,0.0,0.0,0.0,0.0,0.0,0.0,0.0,0.0,0.0,0.0,0.0,0.0,0.0,0.0,0.0,0.0,0.0,0.0,0.0,0.0,0.0,0.0,0.0,0.0,0.0,0.0,0.018,0.2889,0.6242,0.987,1.0495,1.442,1.9725,1.9725,1.9725,1.9725,1.9725,1.9814,1.9888,2.0051,2.0227,2.0334,2.0442,2.0476,2.0476,2.0476,2.0476,2.0539,2.0573,2.053,2.0627,2.077,2.0845,2.0933,2.1157,2.1231,2.1299,2.1355,2.1375,2.1375,2.1375,2.1375,2.1375,2.1375,2.1375,2.1375,2.1375,2.1375,2.1496,2.1652,2.1672,2.1726,2.1862,2.1882,2.195,2.2093,2.2113,2.2181,2.2268,2.2268,2.222,2.216,2.216,2.216,2.216,2.222,2.2215,2.1971,2.1971,2.2038,0.0,0.0,0.0,0.0,0.0,0.0,0.0,0.0,0.0,0.0,0.0,0.0,0.0,0.0,0.0,0.0,0.0,0.0,0.0,0.0,0.0,0.0,0.0,0.0,0.0,0.0,0.0,0.0,0.0,0.0,0.0,0.0,0.0,0.0,0.0,0.0,0.0,0.0,0.0,0.0,0.0,0.0,0.0,0.0,0.0,0.0,0.0,0.0,0.0,0.0421,0.4233,1.0094,1.3036,1.6399,1.9725,1.9725,1.9725,1.9725,1.9725,1.9814,1.9888,2.0051,2.0295,2.0462,2.0476,2.0476,2.0476,2.0476,2.0476,2.051,2.0716,2.0756,2.079,2.0933,2.1068,2.1177,2.1211,2.1319,2.1355,2.1375,2.1375,2.1375,2.1375,2.1375,2.1375,2.1375,2.1375,2.1375,2.1375,2.1375,2.1496,2.1652,2.1672,2.1726,2.1862,2.1882,2.195,2.2093,2.2113,2.2181,2.2268,2.2268,2.2268,2.2254,2.2254,2.2254,2.2254,2.2268,2.2254,2.222,2.222,2.2234,0.0,0.0,0.0,0.0,0.0,0.0,0.0,0.0,0.0,0.0,0.0,0.0,0.0,0.0,0.0,0.0,0.0,0.0,0.0,0.0,0.0,0.0,0.0,0.0,0.0,0.0,0.0,0.0,0.0,0.0,0.0,0.0,0.0,0.0,0.0,0.0,0.0,0.0,0.0,0.0,0.0,0.0,0.0,0.0,0.0,0.0,0.0,0.0,0.012,0.2046,0.557,1.0151,1.3429,1.6753,1.9725,1.9725,1.9725,1.9725,1.9725,1.982,2.0051,2.0275,2.0438,2.0476,2.0476,2.0476,2.0476,2.0476,2.0614,2.0682,2.0756,2.0845,2.0946,2.1089,2.1177,2.1231,2.1319,2.1387,2.1375,2.1375,2.1375,2.1375,2.1375,2.1375,2.1375,2.1375,2.1375,2.1375,2.1375,2.1375,2.153,2.1774,2.1794,2.1848,2.2004,2.2093,2.2127,2.2113,2.2201,2.2269,2.2268,2.2268,2.2268,2.2268,2.2268,2.2268,2.2268,2.2268,2.2268,2.2268,2.2268,2.2268,0.0,0.0,0.0,0.0,0.0,0.0,0.0,0.0,0.0,0.0,0.0,0.0,0.0,0.0,0.0,0.0,0.0,0.0,0.0,0.0,0.0,0.0,0.0,0.0,0.0,0.0,0.0,0.0,0.0,0.0,0.0,0.0,0.0,0.0,0.0,0.0,0.0,0.0,0.0,0.0,0.0,0.0,0.0,0.0,0.0,0.0,0.0,0.0,0.0181,0.2597,0.6015,1.0009,1.24,1.5961,1.9725,1.9725,1.9725,1.9725,1.9712,1.9908,2.0207,2.0388,2.0476,2.0476,2.0476,2.0476,2.0539,2.0594,2.0682,2.079,2.0878,2.098,2.1089,2.1245,2.1279,2.1299,2.1355,2.1375,2.1375,2.1375,2.1375,2.1375,2.1375,2.1375,2.1375,2.1375,2.1375,2.1375,2.1375,2.1375,2.1477,2.1794,2.1862,2.195,2.2093,2.2249,2.2289,2.2181,2.222,2.2268,2.2268,2.2268,2.2268,2.2268,2.2268,2.2268,2.2268,2.2268,2.2268,2.2268,2.2268,2.2268,0.0,0.0,0.0,0.0,0.0,0.0,0.0,0.0,0.0,0.0,0.0,0.0,0.0,0.0,0.0,0.0,0.0,0.0,0.0,0.0,0.0,0.0,0.0,0.0,0.0,0.0,0.0,0.0,0.0,0.0,0.0,0.0,0.0,0.0,0.0,0.0,0.0,0.0,0.0,0.0,0.0,0.0,0.0,0.0,0.0,0.0,0.0,0.0,0.0,0.0122,0.3972,0.9825,0.9887,1.3936,1.9725,1.9725,1.9725,1.9739,1.982,2.0064,2.0349,2.0485,2.0476,2.0476,2.0476,2.0476,2.051,2.0716,2.077,2.0845,2.1123,2.1197,2.1245,2.1341,2.1375,2.1375,2.1375,2.1375,2.1375,2.1375,2.1375,2.1375,2.1375,2.1375,2.1375,2.1375,2.1375,2.1375,2.1375,2.1375,2.1496,2.1652,2.1794,2.195,2.2093,2.2249,2.2268,2.2268,2.2268,2.2268,2.2268,2.2268,2.2268,2.2268,2.2268,2.2268,2.2268,2.2268,2.2268,2.2268,2.2268,2.2268,0.0,0.0,0.0,0.0,0.0,0.0,0.0,0.0,0.0,0.0,0.0,0.0,0.0,0.0,0.0,0.0,0.0,0.0,0.0,0.0,0.0,0.0,0.0,0.0,0.0,0.0,0.0,0.0,0.0,0.0,0.0,0.0,0.0,0.0,0.0,0.0,0.0,0.0,0.0,0.0,0.0,0.0,0.0,0.0,0.0,0.0,0.0,0.0,0.0,0.0,0.3853,0.9825,0.9825,1.3875,1.9725,1.9725,1.9773,1.9841,2.0085,2.0241,2.0349,2.0485,2.0476,2.0476,2.0476,2.0476,2.051,2.0736,2.0845,2.0967,2.1157,2.1285,2.1367,2.1421,2.1375,2.1375,2.1375,2.1375,2.1375,2.1375,2.1375,2.1375,2.1375,2.1375,2.1375,2.1375,2.1375,2.1375,2.1375,2.1375,2.1496,2.1652,2.1706,2.1794,2.195,2.2093,2.2235,2.2268,2.2268,2.2268,2.2268,2.2268,2.2268,2.2268,2.2268,2.2268,2.2268,2.2268,2.2268,2.2268,2.2268,2.2268,0.0,0.0,0.0,0.0,0.0,0.0,0.0,0.0,0.0,0.0,0.0,0.0,0.0,0.0,0.0,0.0,0.0,0.0,0.0,0.0,0.0,0.0,0.0,0.0,0.0,0.0,0.0,0.0,0.0,0.0,0.0,0.0,0.0,0.0,0.0,0.0,0.0,0.0,0.0,0.0,0.0,0.0,0.0,0.0,0.0,0.0,0.0,0.0,0.0,0.0,0.3861,0.9825,0.9825,1.3875,1.9725,1.9773,1.9916,2.0064,2.0261,2.03,2.0417,2.0442,2.0476,2.0476,2.0476,2.0573,2.0648,2.0804,2.0967,2.1109,2.1245,2.1367,2.1375,2.1375,2.1375,2.1375,2.1375,2.1375,2.1375,2.1375,2.1375,2.1375,2.1375,2.1375,2.1375,2.1375,2.1375,2.1375,2.1375,2.1375,2.1496,2.1652,2.1672,2.176,2.195,2.2059,2.2181,2.2323,2.2268,2.2268,2.2268,2.2268,2.2268,2.2268,2.2268,2.2268,2.2268,2.2268,2.2268,2.2268,2.2268,2.2268]},{"header":{"parameterUnit":"m.s-1","parameterCategory":1,"la1":30.6,"la2":29.2853,"lo1":-89.7004,"lo2":-87.6739,"dy":0.0162,"dx":0.0183,"nx":112,"ny":82,"refTime":"2026-04-08T00:00:00:Z","depth":0,"parameterNumber":3,"parameterNumberName":"V-component_of_WINDS"},"data":[0.0,0.0,0.0,0.0,0.0,0.0,0.0,0.0,0.0,0.0,0.0,0.0,0.0,0.0,0.0,0.0,0.0,0.0,0.0,0.0,0.0,0.0,0.0,0.0,0.0,0.0,0.0,0.0,0.0,0.0,0.0,0.0,0.0,0.0,0.0,0.0,0.0,0.0,0.0,0.0,0.0,0.0,0.0,0.0,0.0,0.0,0.0,0.0,0.0,0.0,0.0,0.0,0.0,0.0,0.0,0.0,0.0,0.0,0.0,0.0,0.0,0.0,0.0,0.0,0.0,0.0,0.0,0.0,0.0,0.0,0.0,0.0,0.0,0.0,0.0,0.0,0.0,0.0,0.0,0.0,0.0,0.0,0.0,0.0,0.0,0.0,0.0,0.0,0.0,0.0,4.7485,5.1912,5.7967,6.1327,6.0469,5.8997,5.582,5.0364,0.0,0.0,0.0,0.0,0.0,0.0,0.0,0.0,0.0,0.0,0.0,0.0,0.0,0.0,0.0,0.0,0.0,0.0,0.0,0.0,0.0,0.0,0.0,0.0,0.0,0.0,0.0,0.0,0.0,0.0,0.0,0.0,0.0,0.0,0.0,0.0,0.0,0.0,0.0,0.0,0.0,0.0,0.0,0.0,0.0,0.0,0.0,0.0,0.0,0.0,0.0,0.0,0.0,0.0,0.0,0.0,0.0,0.0,0.0,0.0,0.0,0.0,0.0,0.0,0.0,0.0,0.0,0.0,0.0,0.0,0.0,0.0,0.0,0.0,0.0,0.0,0.0,0.0,0.0,0.0,0.0,0.0,0.0,0.0,0.0,0.0,0.0,0.0,0.0,0.0,0.0,0.0,0.0,0.0,0.0,0.0,0.0,0.0,0.0,0.0,0.0,0.0,0.0,0.0,4.7211,5.5819,5.9607,6.1227,6.0468,5.7478,5.4066,5.0389,0.0,0.0,0.0,0.0,0.0,0.0,0.0,0.0,0.0,0.0,0.0,0.0,0.0,0.0,0.0,0.0,0.0,0.0,0.0,0.0,0.0,0.0,0.0,0.0,0.0,0.0,0.0,0.0,0.0,0.0,0.0,0.0,0.0,0.0,0.0,0.0,0.0,0.0,0.0,0.0,0.0,0.0,0.0,0.0,0.0,0.0,0.0,0.0,0.0,0.0,0.0,0.0,0.0,0.0,0.0,0.0,0.0,0.0,0.0,0.0,0.0,0.0,0.0,0.0,0.0,0.0,0.0,0.0,0.0,0.0,0.0,0.0,0.0,0.0,0.0,0.0,0.0,0.0,0.0,0.0,0.0,0.0,0.0,0.0,0.0,0.0,0.0,0.0,0.0,0.0,0.0,0.0,0.0,0.0,0.0,0.0,0.0,0.0,0.0,0.0,0.0,0.0,0.0,4.6748,5.0597,5.8223,6.0527,6.1218,6.0468,5.7562,5.4187,5.0341,4.6651,0.0,0.0,0.0,0.0,0.0,0.0,0.0,0.0,0.0,0.0,0.0,0.0,0.0,0.0,0.0,0.0,0.0,0.0,0.0,0.0,0.0,0.0,0.0,0.0,0.0,0.0,0.0,0.0,0.0,0.0,0.0,0.0,0.0,0.0,0.0,0.0,0.0,0.0,0.0,0.0,0.0,0.0,0.0,0.0,0.0,0.0,0.0,0.0,0.0,0.0,0.0,0.0,0.0,0.0,0.0,0.0,0.0,0.0,0.0,0.0,0.0,0.0,0.0,0.0,0.0,0.0,0.0,0.0,0.0,0.0,0.0,0.0,0.0,0.0,0.0,0.0,0.0,0.0,0.0,0.0,0.0,0.0,0.0,0.0,0.0,0.0,0.0,0.0,0.0,0.0,0.0,0.0,0.0,0.0,0.0,0.0,0.0,0.0,0.0,0.0,0.0,0.0,5.1437,5.4326,5.9595,6.0927,6.1162,6.0468,5.7367,5.3948,5.0293,4.535,0.0,0.0,0.0,0.0,0.0,0.0,0.0,0.0,0.0,0.0,0.0,0.0,0.0,0.0,0.0,0.0,0.0,0.0,0.0,0.0,0.0,0.0,0.0,0.0,0.0,0.0,0.0,0.0,0.0,0.0,0.0,0.0,0.0,0.0,0.0,0.0,0.0,0.0,0.0,0.0,0.0,0.0,0.0,0.0,0.0,0.0,0.0,0.0,0.0,0.0,0.0,0.0,0.0,0.0,0.0,0.0,0.0,0.0,0.0,0.0,0.0,0.0,0.0,0.0,0.0,0.0,0.0,0.0,0.0,0.0,0.0,0.0,0.0,0.0,0.0,0.0,0.0,0.0,0.0,0.0,0.0,0.0,0.0,0.0,0.0,0.0,0.0,0.0,0.0,0.0,0.0,0.0,0.0,0.0,0.0,0.0,0.0,0.0,0.0,0.0,0.0,0.0,5.2161,5.6721,5.9705,6.0803,6.1054,6.0468,5.5726,5.2045,5.0312,4.3766,0.0,0.0,0.0,0.0,0.0,0.0,0.0,0.0,0.0,0.0,0.0,0.0,0.0,0.0,0.0,0.0,0.0,0.0,0.0,0.0,0.0,0.0,0.0,0.0,0.0,0.0,0.0,0.0,0.0,0.0,0.0,0.0,0.0,0.0,0.0,0.0,0.0,0.0,0.0,0.0,0.0,0.0,0.0,0.0,0.0,0.0,0.0,0.0,0.0,0.0,0.0,0.0,0.0,0.0,0.0,0.0,0.0,0.0,0.0,0.0,0.0,0.0,0.0,0.0,0.0,0.0,0.0,0.0,0.0,0.0,0.0,0.0,0.0,0.0,0.0,0.0,0.0,0.0,0.0,0.0,0.0,0.0,0.0,0.0,0.0,0.0,0.0,0.0,0.0,0.0,0.0,0.0,0.0,0.0,0.0,0.0,0.0,0.0,0.0,0.0,0.0,0.0,5.1742,5.604,6.0196,6.093,6.0644,5.9434,5.6564,5.3204,4.9381,0.0,0.0,0.0,0.0,0.0,0.0,0.0,0.0,0.0,0.0,0.0,0.0,0.0,0.0,0.0,0.0,0.0,0.0,0.0,0.0,0.0,0.0,0.0,0.0,0.0,0.0,0.0,0.0,0.0,0.0,0.0,0.0,0.0,0.0,0.0,0.0,0.0,0.0,0.0,0.0,0.0,0.0,0.0,0.0,0.0,0.0,0.0,0.0,0.0,0.0,0.0,0.0,0.0,0.0,0.0,0.0,0.0,0.0,0.0,0.0,0.0,0.0,0.0,0.0,0.0,0.0,0.0,0.0,0.0,0.0,0.0,0.0,0.0,0.0,0.0,0.0,0.0,0.0,0.0,0.0,0.0,0.0,0.0,0.0,0.0,0.0,0.0,0.0,0.0,0.0,0.0,0.0,0.0,0.0,0.0,0.0,0.0,0.0,0.0,0.0,0.0,0.0,4.8014,5.2298,5.634,6.0545,6.1065,6.0575,5.9215,5.6806,5.3423,4.88,0.0,0.0,0.0,0.0,0.0,0.0,0.0,0.0,0.0,0.0,0.0,0.0,0.0,0.0,0.0,0.0,0.0,0.0,0.0,0.0,0.0,0.0,0.0,0.0,0.0,0.0,0.0,0.0,0.0,0.0,0.0,0.0,0.0,0.0,0.0,0.0,0.0,0.0,0.0,0.0,0.0,0.0,0.0,0.0,0.0,0.0,0.0,0.0,0.0,0.0,0.0,0.0,0.0,0.0,0.0,0.0,0.0,0.0,0.0,0.0,0.0,0.0,0.0,0.0,0.0,0.0,0.0,0.0,0.0,0.0,0.0,0.0,0.0,0.0,0.0,0.0,0.0,0.0,0.0,0.0,0.0,0.0,0.0,0.0,0.0,0.0,0.0,0.0,0.0,0.0,0.0,0.0,0.0,0.0,0.0,0.0,0.0,0.0,0.0,0.0,0.0,0.0,4.9048,5.4139,5.8229,6.0773,6.1186,6.0969,6.0107,5.6083,5.2191,0.0,0.0,0.0,0.0,0.0,0.0,0.0,0.0,0.0,0.0,0.0,0.0,0.0,0.0,0.0,0.0,0.0,0.0,0.0,0.0,0.0,0.0,0.0,0.0,0.0,0.0,0.0,0.0,0.0,0.0,0.0,0.0,0.0,0.0,0.0,0.0,0.0,0.0,0.0,0.0,0.0,0.0,0.0,0.0,0.0,0.0,0.0,0.0,0.0,0.0,0.0,0.0,0.0,0.0,0.0,0.0,0.0,0.0,0.0,0.0,0.0,0.0,0.0,0.0,0.0,0.0,0.0,0.0,0.0,0.0,0.0,0.0,0.0,0.0,0.0,0.0,0.0,0.0,0.0,0.0,0.0,0.0,0.0,0.0,0.0,0.0,0.0,0.0,0.0,0.0,0.0,0.0,0.0,0.0,0.0,0.0,0.0,0.0,0.0,0.0,0.0,0.0,0.0,5.0164,5.6314,6.0957,6.2799,6.2404,6.1885,6.1648,5.8157,5.4296,5.0297,0.0,0.0,0.0,0.0,0.0,0.0,0.0,0.0,0.0,0.0,0.0,0.0,0.0,0.0,0.0,0.0,0.0,0.0,0.0,0.0,0.0,0.0,0.0,0.0,0.0,0.0,0.0,0.0,0.0,0.0,0.0,0.0,0.0,0.0,0.0,0.0,0.0,0.0,0.0,0.0,0.0,0.0,0.0,0.0,0.0,0.0,0.0,0.0,0.0,0.0,0.0,0.0,0.0,0.0,0.0,0.0,0.0,0.0,0.0,0.0,0.0,0.0,0.0,0.0,0.0,0.0,0.0,0.0,0.0,0.0,0.0,0.0,0.0,0.0,0.0,0.0,0.0,0.0,0.0,0.0,0.0,0.0,0.0,0.0,0.0,0.0,0.0,0.0,0.0,0.0,0.0,0.0,0.0,0.0,0.0,0.0,0.0,0.0,0.0,0.0,0.0,0.0,5.1226,5.7752,6.2489,6.3656,6.3339,6.2949,6.2814,6.0229,5.6459,5.1481,0.0,0.0,0.0,0.0,0.0,0.0,0.0,0.0,0.0,0.0,0.0,0.0,0.0,0.0,0.0,0.0,0.0,0.0,0.0,0.0,0.0,0.0,0.0,0.0,0.0,0.0,0.0,0.0,0.0,0.0,0.0,0.0,0.0,0.0,0.0,0.0,0.0,0.0,0.0,0.0,0.0,0.0,0.0,0.0,0.0,0.0,0.0,0.0,0.0,0.0,0.0,0.0,0.0,0.0,0.0,0.0,0.0,0.0,0.0,0.0,0.0,0.0,0.0,0.0,0.0,0.0,0.0,0.0,0.0,0.0,0.0,0.0,0.0,0.0,0.0,0.0,0.0,0.0,0.0,0.0,0.0,0.0,0.0,0.0,0.0,0.0,0.0,0.0,0.0,0.0,0.0,0.0,0.0,0.0,0.0,0.0,0.0,0.0,0.0,0.0,0.0,0.0,5.2326,5.8859,6.3408,6.4006,6.4236,6.4207,6.3898,6.2189,5.8691,5.2916,0.0,0.0,0.0,0.0,0.0,0.0,0.0,0.0,0.0,0.0,0.0,0.0,0.0,0.0,0.0,0.0,0.0,0.0,0.0,0.0,0.0,0.0,0.0,0.0,0.0,0.0,0.0,0.0,0.0,0.0,0.0,0.0,0.0,0.0,0.0,0.0,0.0,0.0,0.0,0.0,0.0,0.0,0.0,0.0,0.0,0.0,0.0,0.0,0.0,0.0,0.0,0.0,0.0,0.0,0.0,0.0,0.0,0.0,0.0,0.0,4.933,4.6066,0.0,0.0,0.0,0.0,0.0,0.0,0.0,0.0,0.0,0.0,0.0,0.0,0.0,0.0,0.0,0.0,0.0,0.0,0.0,0.0,0.0,0.0,0.0,0.0,0.0,0.0,0.0,0.0,0.0,0.0,0.0,0.0,0.0,0.0,0.0,0.0,0.0,0.0,0.0,0.0,5.4177,6.1326,6.609,6.6201,6.6139,6.6023,6.5975,6.3706,6.087,5.7534,5.1917,0.0,0.0,0.0,0.0,0.0,0.0,0.0,0.0,0.0,0.0,0.0,0.0,0.0,0.0,0.0,0.0,0.0,0.0,0.0,0.0,0.0,0.0,0.0,0.0,0.0,0.0,0.0,0.0,0.0,0.0,0.0,0.0,0.0,0.0,0.0,0.0,0.0,0.0,0.0,0.0,0.0,0.0,0.0,0.0,0.0,0.0,0.0,0.0,0.0,0.0,0.0,0.0,0.0,0.0,0.0,0.0,0.0,0.0,0.0,5.6295,5.2576,0.0,0.0,0.0,0.0,0.0,0.0,0.0,0.0,0.0,0.0,0.0,0.0,0.0,0.0,0.0,0.0,0.0,0.0,0.0,0.0,0.0,0.0,0.0,0.0,0.0,0.0,0.0,0.0,0.0,0.0,0.0,0.0,0.0,0.0,0.0,0.0,0.0,0.0,0.0,0.0,5.5469,6.2695,6.7656,6.8047,6.8002,6.7905,6.7832,6.5802,6.3416,6.0791,5.568,0.0,0.0,0.0,0.0,0.0,0.0,0.0,0.0,0.0,0.0,0.0,0.0,0.0,0.0,0.0,0.0,0.0,0.0,0.0,0.0,0.0,0.0,0.0,0.0,0.0,0.0,0.0,0.0,0.0,0.0,0.0,0.0,0.0,0.0,0.0,0.0,0.0,0.0,0.0,0.0,0.0,0.0,0.0,0.0,0.0,0.0,0.0,0.0,0.0,0.0,0.0,0.0,0.0,6.6146,6.7359,6.8783,6.9283,6.9559,6.9251,6.4243,6.0704,5.844,5.7055,0.0,0.0,0.0,0.0,0.0,0.0,0.0,0.0,0.0,0.0,0.0,0.0,0.0,0.0,0.0,0.0,0.0,0.0,0.0,0.0,0.0,0.0,0.0,0.0,6.2065,6.125,5.3867,0.0,0.0,0.0,0.0,0.0,0.0,0.0,0.0,0.0,0.0,0.0,5.7109,6.3906,6.8672,6.9336,6.9531,6.9528,6.926,6.793,6.6037,6.351,5.9443,5.5508,0.0,0.0,0.0,0.0,0.0,0.0,0.0,0.0,0.0,0.0,0.0,0.0,0.0,0.0,0.0,0.0,0.0,0.0,0.0,0.0,0.0,0.0,0.0,0.0,0.0,0.0,0.0,0.0,0.0,0.0,0.0,0.0,5.1299,5.0817,0.0,0.0,0.0,0.0,0.0,0.0,0.0,0.0,0.0,0.0,0.0,0.0,0.0,6.5299,6.7859,7.2026,7.4163,7.4317,7.8,7.99,8.0131,7.9515,7.9246,7.9169,7.763,0.0,6.4711,6.448,0.0,0.0,0.0,0.0,0.0,0.0,0.0,0.0,0.0,0.0,0.0,0.0,0.0,0.0,0.0,0.0,0.0,0.0,0.0,0.0,0.0,0.0,6.8393,6.8082,6.8789,6.8828,0.0,5.9844,5.375,5.0781,4.9101,0.0,0.0,0.0,0.0,0.0,0.0,0.0,6.039,6.5898,6.9336,6.9375,7.0078,7.0234,6.953,6.9218,6.8241,6.6442,6.2907,6.0309,5.8983,5.2712,0.0,0.0,0.0,0.0,0.0,0.0,0.0,0.0,0.0,0.0,0.0,0.0,0.0,0.0,0.0,0.0,0.0,0.0,0.0,0.0,0.0,0.0,0.0,0.0,0.0,0.0,0.0,0.0,0.0,5.1647,5.4918,5.3625,5.4995,5.4916,0.0,0.0,0.0,0.0,0.0,0.0,0.0,0.0,0.0,7.0726,7.2539,7.4658,7.723,7.973,8.1016,8.1016,8.2901,8.4016,8.4439,8.4055,8.3901,8.3901,8.3516,8.0785,7.6245,7.1937,6.7398,6.2935,0.0,0.0,0.0,0.0,6.0036,6.117,6.359,6.504,6.5574,6.4071,0.0,0.0,0.0,0.0,0.0,0.0,0.0,0.0,0.0,0.0,7.1007,7.2656,7.3711,7.3867,7.2187,6.8828,6.4101,0.0,5.5544,5.3588,4.8125,0.0,0.0,0.0,0.0,5.8945,6.2695,6.7265,7.0351,7.082,7.1211,7.1289,7.0937,7.043,6.9609,6.8398,6.5974,6.3978,6.2611,5.8127,5.4351,0.0,0.0,0.0,0.0,0.0,0.0,0.0,0.0,0.0,0.0,0.0,0.0,0.0,0.0,0.0,0.0,0.0,0.0,0.0,0.0,0.0,0.0,0.0,0.0,0.0,0.0,0.0,0.0,5.5846,5.9252,5.759,6.0077,6.0588,0.0,0.0,0.0,0.0,0.0,0.0,6.8786,7.1363,7.4938,7.9565,8.125,8.3208,8.5525,8.6209,8.6624,8.6824,8.6824,8.7286,8.8055,8.7825,8.7632,8.7401,8.7171,8.6478,8.5016,7.8469,7.3245,6.9283,6.7552,6.5974,6.482,6.5853,6.6836,6.8122,7.1324,7.307,7.3505,7.1164,6.9524,6.7514,6.2196,0.0,0.0,0.0,0.0,6.4314,6.9349,7.1519,7.3086,7.5898,7.7226,7.7422,7.5937,7.543,7.2617,0.0,6.2105,6.0147,5.3359,0.0,0.0,5.3281,5.7656,6.2148,6.5195,6.8594,7.1015,7.1914,7.1992,7.1992,7.1992,7.1406,7.0664,6.9805,6.8359,6.6953,6.5664,6.3078,5.9884,5.6104,0.0,0.0,0.0,0.0,0.0,0.0,0.0,0.0,0.0,0.0,0.0,0.0,0.0,0.0,0.0,0.0,0.0,0.0,0.0,0.0,0.0,0.0,0.0,0.0,0.0,0.0,0.0,0.0,0.0,6.4124,6.8066,0.0,0.0,0.0,0.0,6.9387,7.2775,7.636,8.0076,8.1915,8.4462,8.7962,8.8209,8.9094,9.0787,9.0864,9.1287,9.2133,9.2133,9.2518,9.3287,9.2518,9.1748,9.0902,9.0086,8.8778,8.6978,8.3362,8.0785,7.8931,7.7246,7.6053,7.5168,7.4392,7.4675,7.5459,7.5697,7.632,7.7182,7.7759,7.4745,7.0761,6.9747,6.7609,0.0,0.0,6.9102,7.1471,7.3742,7.5586,7.7148,7.8125,7.8984,7.9336,7.8476,7.7656,7.5469,0.0,6.8359,6.6367,6.1836,0.0,6.0273,6.1015,6.2109,6.4375,6.8594,7.0039,7.1015,7.1914,7.1992,7.1992,7.1992,7.1953,7.1562,7.0703,6.9765,6.9219,6.914,6.6679,6.4371,6.2387,5.7285,0.0,0.0,0.0,0.0,0.0,0.0,0.0,0.0,0.0,0.0,0.0,0.0,0.0,0.0,0.0,0.0,0.0,0.0,0.0,0.0,0.0,0.0,0.0,0.0,0.0,0.0,0.0,0.0,6.9836,7.3849,0.0,7.3246,7.3832,7.5195,7.7115,8.0364,8.3371,8.5863,8.7594,8.9325,9.1095,9.1642,9.221,9.2787,9.2826,9.2941,9.3249,9.3249,9.3403,9.3672,9.3403,9.3095,9.2787,9.2479,9.2018,9.1287,8.8979,8.6055,8.2978,8.1823,8.0823,7.9939,7.9131,7.9708,8.0831,8.0246,8.0977,8.1977,8.0592,7.7882,7.493,7.4133,7.3251,7.2772,7.3833,7.5326,7.6992,7.8896,7.9912,8.0547,8.0859,8.1172,8.1133,8.0273,7.9844,7.8789,7.5859,7.3242,7.0117,6.5781,6.6133,6.6562,6.5234,6.7187,6.9531,7.164,7.2656,7.332,7.3633,7.3164,7.2851,7.2851,7.2305,7.164,7.0742,7.039,7.0,6.9492,6.8594,6.6949,6.453,6.2095,5.7106,0.0,0.0,0.0,0.0,0.0,0.0,0.0,0.0,0.0,0.0,0.0,0.0,0.0,0.0,0.0,0.0,0.0,0.0,0.0,0.0,0.0,0.0,0.0,0.0,0.0,6.9812,7.5323,7.5706,7.9772,8.1929,8.043,8.1512,8.2936,8.4385,8.7094,8.944,9.1171,9.2556,9.3749,9.4595,9.5134,9.5403,9.5403,9.5403,9.5403,9.5403,9.5403,9.5403,9.5403,9.5403,9.5095,9.4595,9.4595,9.4249,9.3595,9.2518,9.0402,8.7709,8.5978,8.4986,8.4401,8.3862,8.4371,8.5255,8.4678,8.5016,8.544,8.3439,8.1477,7.9631,7.8477,7.8399,7.878,7.9192,8.0124,8.1301,8.2559,8.3025,8.3164,8.3164,8.3164,8.3008,8.2422,8.2304,8.1797,8.0117,7.7226,7.3867,7.0156,7.0898,7.125,6.8945,7.0781,7.2656,7.3242,7.4062,7.4609,7.4609,7.4062,7.375,7.375,7.2383,7.1445,7.1172,7.0312,6.9726,6.9492,6.9219,6.8084,6.5957,6.3234,5.8808,5.2584,0.0,0.0,0.0,0.0,0.0,0.0,0.0,0.0,0.0,0.0,0.0,0.0,0.0,0.0,0.0,0.0,0.0,0.0,0.0,0.0,0.0,0.0,0.0,6.99,7.6741,8.1814,8.1834,8.6032,8.8295,8.6632,8.794,8.9633,9.1287,9.2903,9.4557,9.6288,9.7134,9.7942,9.875,9.8788,9.8788,9.8788,9.8788,9.8788,9.8788,9.8788,9.8788,9.8788,9.8788,9.7904,9.6365,9.6365,9.5403,9.3826,9.3787,9.3749,9.3403,9.0103,8.8795,8.8756,8.8756,8.8718,8.8718,8.8718,8.8179,8.7286,8.6478,8.567,8.47,8.3016,8.3093,8.3603,8.2961,8.3542,8.4396,8.4637,8.4818,8.4961,8.4922,8.4922,8.4883,8.4883,8.4883,8.4414,8.2695,8.0351,7.7812,7.5195,7.4765,7.418,7.2461,7.293,0.0,7.3437,7.414,7.4687,7.4648,7.4609,7.4609,7.4609,7.2226,7.1094,7.1953,6.9648,6.8633,6.9375,6.8672,6.789,6.707,6.0901,5.7211,5.6238,0.0,0.0,0.0,0.0,0.0,0.0,0.0,0.0,0.0,0.0,0.0,0.0,0.0,0.0,0.0,0.0,0.0,0.0,0.0,0.0,0.0,7.4334,7.8809,7.6769,8.24,8.7426,8.9252,9.2263,9.4249,9.4364,9.4287,9.4634,9.5672,9.6172,9.6942,9.8057,9.8327,9.8557,9.8788,9.8788,9.8788,9.8788,9.8788,9.8788,9.8788,9.8788,9.8788,9.8788,9.8788,9.8557,9.8096,9.8096,9.748,9.6403,9.5826,9.5211,9.445,9.2287,9.1056,9.0441,8.9787,8.921,8.8795,8.9363,8.9017,8.8295,8.8064,8.7825,8.7555,8.7102,8.7102,8.7281,8.7078,8.7349,8.7547,8.7003,8.6653,8.6358,8.5698,8.5224,8.4883,8.4883,8.4883,8.4765,8.4297,8.3125,8.1367,7.875,7.8281,7.793,7.6875,7.6914,0.0,7.6211,7.6328,7.625,7.5625,7.4961,7.4609,7.4609,7.2773,7.1758,7.1992,7.0742,6.9844,6.9492,6.9805,7.0113,7.0394,6.4954,6.1987,0.0,0.0,0.0,0.0,0.0,0.0,0.0,0.0,0.0,0.0,0.0,0.0,0.0,0.0,0.0,0.0,0.0,0.0,0.0,0.0,0.0,0.0,8.1575,8.6479,8.6315,8.9518,9.2556,9.4364,9.6211,9.7519,9.8019,9.7634,9.7557,9.8019,9.8711,9.9327,9.9827,10.0481,10.0904,10.0904,10.0904,10.0904,10.0904,10.0596,10.0404,10.0404,10.0019,9.9865,9.9865,9.9865,9.9673,9.9336,9.9336,9.8634,9.7442,9.7019,9.648,0.0,0.0,0.0,0.0,0.0,9.121,9.0872,9.1325,9.1171,9.068,8.9979,8.9748,8.9633,8.891,8.8774,8.8837,8.8837,8.9054,8.9172,8.8671,8.8431,8.8173,8.7666,8.7298,8.6953,8.6562,8.6484,8.6289,8.5586,8.5039,0.0,8.1719,8.0742,7.9844,7.8672,7.8789,7.8711,7.7851,7.8047,7.8047,7.7539,7.7031,7.6758,7.6758,7.4492,0.0,0.0,0.0,6.9648,6.8476,6.9135,0.0,0.0,0.0,0.0,0.0,0.0,0.0,0.0,6.0673,5.983,0.0,0.0,0.0,0.0,0.0,0.0,0.0,0.0,0.0,0.0,0.0,0.0,0.0,0.0,0.0,0.0,8.8553,9.3478,9.6578,9.7096,9.7365,9.7865,9.8711,9.9211,9.9211,9.9135,9.9096,9.9096,10.0519,10.1279,10.1394,10.2904,0.0,0.0,0.0,10.3915,10.3789,10.2981,10.2597,10.2404,10.1712,10.1279,10.1279,10.1202,10.0789,10.0221,10.0106,9.9221,9.7788,9.7673,9.7596,9.7288,9.4903,9.3941,9.3826,9.3749,9.371,9.371,9.371,0.0,0.0,9.1979,9.1441,9.1056,8.9603,8.9215,8.9281,8.9281,8.9597,8.9938,8.982,8.9969,9.0077,8.9999,8.9961,8.9804,8.9023,8.8789,8.8242,8.6758,8.6328,8.5703,8.414,8.2461,8.0703,7.9023,7.9375,7.9531,7.875,7.9258,7.9687,7.957,0.0,0.0,7.957,7.668,7.4844,7.4765,7.1562,6.9062,6.7695,6.8173,6.7812,6.643,6.7639,6.9047,7.0638,7.1252,7.243,7.3885,6.4492,6.2935,0.0,0.0,0.0,0.0,0.0,0.0,0.0,0.0,0.0,0.0,0.0,0.0,0.0,0.0,0.0,8.7263,9.3274,9.8356,10.101,10.1981,10.1981,10.0702,10.1289,10.1904,10.1904,10.1212,10.0789,10.0789,10.1087,10.1587,10.2289,10.2712,10.3212,10.3905,10.3905,10.3597,10.2904,10.2712,10.2202,10.151,10.1394,0.0,10.1289,10.0596,10.0596,10.1019,10.0414,9.9913,9.9529,9.8827,9.8134,9.7403,9.6249,9.5365,9.4643,9.395,9.371,9.371,9.371,9.371,9.3633,9.3326,9.2787,9.2172,9.1864,9.14,0.0,9.1011,9.1244,9.1319,9.0626,9.0635,9.0646,8.9947,8.9871,8.9961,8.9765,8.9219,8.8594,8.8281,8.7109,8.6094,8.5742,8.4258,8.25,8.0781,8.0664,8.0429,7.957,7.9609,7.9453,7.8789,7.8711,7.8711,7.8711,7.7461,7.6406,7.5703,7.3047,7.168,7.2031,7.204,7.2422,7.3351,7.3642,7.4188,7.5071,7.5369,7.6269,7.7686,7.3465,7.2129,0.0,0.0,0.0,0.0,0.0,0.0,0.0,0.0,0.0,0.0,0.0,7.4917,7.8444,0.0,8.8005,9.2612,9.68,10.009,10.1711,10.3097,10.3405,10.2097,10.2289,10.2404,10.202,10.1597,10.1279,10.1279,10.1712,10.2289,10.3212,10.3289,10.3597,10.4482,10.4097,10.3905,10.3905,10.302,10.2597,10.2597,10.1712,10.1279,10.1289,10.0491,10.0298,10.0712,9.9798,9.9452,9.9452,9.9452,9.8942,9.8134,9.8173,9.7673,9.6797,9.5903,9.5595,9.5557,9.5134,9.5018,9.4941,9.4489,9.4066,9.3687,9.3375,9.285,9.236,9.2466,9.2376,9.2141,9.1714,9.171,9.1697,9.1269,9.1245,9.1172,9.0742,9.0312,8.9726,8.8867,8.8008,8.7187,8.6328,8.5469,8.4453,8.3164,8.2969,8.2656,8.1758,8.2031,8.1797,8.0547,8.0781,8.0898,8.0429,7.9219,7.8086,7.7265,7.5586,7.4609,7.4609,7.4816,7.5103,7.5429,7.6644,7.7416,7.774,7.8707,7.975,8.0868,7.9373,7.8409,0.0,0.0,0.0,0.0,0.0,0.0,0.0,6.9122,7.1279,7.5385,7.831,8.1706,8.688,8.942,9.2369,9.7404,9.9605,10.089,10.1691,10.2981,10.3597,10.2712,10.2597,10.2289,10.1587,10.1394,10.1279,10.1279,10.202,10.2712,10.3597,10.3597,10.3982,10.4789,10.4212,10.4097,10.4597,10.3289,10.2904,10.3405,10.202,10.1279,10.1289,10.0491,10.0183,10.0298,9.9452,9.8952,9.8865,9.976,9.9683,9.9144,9.999,9.9904,9.9173,9.8134,9.775,9.7673,9.7019,9.6673,9.6403,9.5711,9.5258,9.4925,9.4469,9.3913,9.3471,9.3705,9.3453,9.3125,9.3125,9.3125,9.3125,9.3125,9.2969,9.2656,9.1953,9.1523,9.0898,8.9492,8.9062,8.8476,8.6953,8.6679,8.6289,8.5078,8.4883,8.4648,8.3945,8.4453,8.4375,8.2969,8.3437,8.3554,8.2851,8.1367,8.0195,7.9531,7.8672,7.789,7.7187,7.7629,7.763,7.7121,7.9024,8.0095,8.0251,8.1646,8.2793,8.3719,8.3558,8.3005,6.1731,6.1904,6.3782,6.6297,6.879,7.265,0.0,8.1683,8.2505,8.6503,8.9775,9.233,9.3725,9.601,9.8375,10.05,10.1701,10.2604,10.351,10.3789,10.3597,10.2712,10.2597,10.2597,10.252,10.1789,10.1279,10.1279,10.1394,10.1779,10.2712,10.2712,10.3097,10.3982,10.3905,10.3597,10.2904,10.2712,10.2289,10.1597,10.1394,10.1279,10.1289,10.0491,10.0481,10.1087,10.0289,9.9529,9.8865,9.976,9.999,9.999,10.0789,10.1087,10.0779,9.925,9.8634,9.8634,9.8557,9.8019,9.7365,9.725,9.6211,9.504,9.5204,9.4806,9.4336,9.4566,9.4782,9.4922,9.4922,9.4922,9.4922,9.4922,9.4336,9.3711,9.3633,9.2383,9.125,9.1054,9.039,8.9531,8.8594,8.8437,8.7617,8.5273,8.4883,8.4844,8.4765,8.4844,8.4844,8.4648,8.4687,8.4726,8.4609,8.3711,8.3125,8.3047,8.2226,8.1679,8.1601,8.1496,8.1767,8.2423,8.2694,8.3237,8.4011,8.4356,8.5176,8.6376,8.635,8.6164,6.8332,6.8973,7.0702,7.396,7.7293,8.1085,8.6083,8.6983,8.7873,9.1884,9.3704,9.5304,9.7549,9.8455,9.9375,10.0999,10.1601,10.2003,10.2278,10.2789,10.2597,10.1289,10.1597,10.1779,10.1779,10.151,10.1279,10.1279,10.1279,10.1712,10.2597,10.2097,10.2202,10.3097,10.2712,10.252,10.2597,10.2097,10.1904,10.2097,10.151,10.1279,10.1289,10.0491,9.999,9.9865,9.999,9.9875,9.9683,10.0981,10.1597,10.1597,10.2481,10.2789,10.252,10.0414,9.9567,9.949,9.8981,9.8557,9.825,9.825,9.7872,9.7395,9.7177,9.6641,9.6104,9.5867,9.5503,9.5195,9.5195,9.5195,9.5195,9.5195,9.4922,9.4648,9.4648,9.3672,9.2656,9.2148,9.1367,9.0469,8.9609,8.9453,8.9101,8.8047,8.7031,8.6211,8.5703,8.6094,8.6211,8.5703,8.5195,8.4883,8.4883,8.457,8.4375,8.4375,8.4023,8.3828,8.3828,8.3745,8.3855,8.4205,8.5222,8.5926,8.6276,8.7241,8.7979,8.8491,8.8206,8.8294,7.1997,7.4038,7.6755,8.013,8.4468,8.8414,9.0512,9.1317,9.2544,9.5664,9.6455,9.7352,9.9932,9.9965,9.9928,10.1105,10.1296,10.1405,10.1307,10.1712,10.1481,10.0221,10.0404,10.0712,10.0904,10.1212,10.1279,10.1279,10.1279,10.1597,10.2212,10.1587,10.1597,10.2212,10.1587,10.1587,10.2212,10.1587,10.1587,10.2212,10.1587,10.1279,10.1279,10.0712,9.9981,9.9183,9.9837,10.0106,10.0183,10.1597,10.2404,10.2712,10.3597,10.3905,10.3712,10.1799,10.0991,10.0721,9.9788,9.9327,9.9163,9.9224,9.9218,9.9125,9.8846,9.8455,9.794,9.734,9.6719,9.6172,9.5937,9.5898,9.5898,9.5898,9.5703,9.5547,9.5547,9.4883,9.3984,9.3125,9.2461,9.164,9.0547,9.0351,9.0273,9.0039,8.8984,8.7969,8.7344,8.7578,8.7578,8.6953,8.6133,8.5625,8.5625,8.5625,8.5703,8.5937,8.5937,8.6054,8.6289,8.6328,8.6328,8.6328,8.7539,8.8163,8.8118,8.9166,8.9757,8.9855,8.9737,9.0125,7.0506,7.5095,8.0772,8.3566,8.8994,9.3923,9.4897,9.637,9.7774,9.8628,9.946,10.031,10.1113,10.1192,10.1183,10.1279,10.1308,10.1308,10.1279,10.0712,10.0183,10.0106,9.9375,9.9211,10.0106,10.0789,10.1279,10.1279,10.1279,10.1279,10.1279,10.1279,10.1279,10.1279,10.1279,10.1279,10.1279,10.1279,10.1279,10.1279,10.1279,10.1279,10.1279,10.1289,10.0789,10.0106,10.0106,10.0106,10.0183,10.1019,10.1779,10.2712,10.3597,10.3905,10.3905,10.3789,10.3212,10.2404,10.151,10.0712,10.0105,10.0319,9.9834,9.9287,9.9735,9.9831,9.9701,9.9098,9.8906,9.8672,9.7851,9.7617,9.7617,9.7617,9.7031,9.6445,9.6445,9.5781,9.4883,9.4023,9.3828,9.3281,9.1562,9.125,9.0976,9.0117,8.9961,8.9922,8.9883,8.9179,8.8633,8.8633,8.789,8.7422,8.7422,8.7422,8.7734,8.8554,8.8594,8.8945,8.9804,8.9844,8.9844,8.9844,8.9883,8.9835,8.9643,8.9678,8.9904,9.0321,9.1069,9.18,7.651,8.0994,8.5634,9.0432,9.4413,9.7521,9.8949,9.9288,9.9409,9.9641,9.8137,9.6806,9.7068,9.7134,9.7326,9.7904,9.9404,10.0712,10.1202,10.1096,10.0481,9.9375,9.949,9.9567,9.9259,9.9981,10.0712,10.1289,10.1279,10.1279,10.1279,10.1279,10.1279,10.1279,10.1279,10.1279,10.1279,10.1279,10.1279,10.1279,10.1279,10.1279,10.1279,10.1279,10.1212,10.0904,10.0904,10.0904,10.0981,10.1789,10.2289,10.2712,10.4097,10.4811,10.4987,10.4987,10.4892,10.4608,10.2988,10.2414,10.219,10.1705,10.1516,10.1284,10.0891,10.0892,10.0891,10.0117,9.9844,9.9648,9.8789,9.8554,9.8437,9.7851,9.75,9.7304,9.7304,9.664,9.5976,9.5664,9.5156,9.457,9.3984,9.3398,9.2734,9.1875,9.0742,9.0,9.0,8.9726,8.957,8.957,8.9336,8.914,8.914,8.914,8.9258,8.9531,8.957,8.9687,9.0,9.0,8.9957,8.9806,9.0351,9.0849,9.1147,9.1549,9.2138,9.2805,9.2937,9.308,8.1868,8.6059,9.0052,9.5616,9.8362,9.9981,10.1096,10.0712,9.9837,9.8942,9.6489,9.4335,9.3758,9.2911,9.3065,9.5441,9.6942,9.875,10.1404,10.1019,10.0096,9.9375,9.9221,9.9067,9.8827,9.9298,10.0096,10.1202,10.1279,10.1279,10.1279,10.1279,10.1279,10.1279,10.1279,10.1279,10.1279,10.1279,10.1279,10.1279,10.1279,10.1279,10.1279,10.1279,10.1279,10.1279,10.1279,10.1279,10.1394,10.2212,10.2597,10.2693,10.4185,10.51,10.5487,10.5616,10.5988,10.6183,10.3881,10.3288,10.3301,10.2486,10.24,10.2409,10.1902,10.1902,10.1914,10.1015,10.0781,10.0586,9.9687,9.9453,9.9336,9.875,9.8398,9.8164,9.8164,9.75,9.6836,9.6562,9.6054,9.5586,9.5234,9.4726,9.4179,9.3594,9.2304,9.1289,9.0976,9.0664,9.0469,9.0469,9.0195,9.0,9.0,9.0,9.0117,9.0429,9.0469,9.0586,9.0937,9.0854,9.087,9.1044,9.154,9.2082,9.2687,9.3077,9.3485,9.3964,9.4082,9.4181,8.6286,9.021,9.4057,9.899,10.0789,10.1394,10.1279,10.0596,9.9259,9.6673,9.4595,9.2672,9.1056,8.8825,8.8825,9.3796,9.422,9.5903,10.1712,10.0404,9.9211,9.999,9.8634,9.7942,9.8788,9.8865,9.9558,10.1202,10.1289,10.1289,10.1279,10.1279,10.1279,10.1279,10.1279,10.1279,10.1279,10.1279,10.1279,10.1279,10.1279,10.1279,10.1279,10.1279,10.1279,10.1279,10.1279,10.1279,10.1394,10.2212,10.2616,10.2684,10.3706,10.4705,10.5489,10.5799,10.6595,10.7195,10.4494,10.3485,10.3404,10.28,10.2607,10.2587,10.2809,10.289,10.2695,10.1914,10.1719,10.1484,10.0586,10.039,10.039,10.0312,9.9687,9.9062,9.9062,9.8398,9.7539,9.6797,9.6601,9.6289,9.5429,9.5273,9.5234,9.5195,9.4492,9.3633,9.2773,9.1914,9.1367,9.1445,9.0664,9.0156,9.0195,9.0195,9.0547,9.1367,9.1445,9.1836,9.2695,9.2457,9.271,9.3517,9.3356,9.3542,9.4146,9.4185,9.4111,9.3903,9.4797,9.5181,8.9825,9.4595,9.8759,10.1289,10.2097,10.2097,10.1394,9.9673,9.7442,9.4903,8.9988,8.5871,8.4786,8.4555,8.564,8.8825,9.3364,9.7519,10.0289,10.0712,10.0519,10.0106,9.9721,9.9529,9.976,9.976,10.0212,10.1202,10.0712,10.0712,10.1289,10.1279,10.1279,10.1279,10.1279,10.1279,10.1279,10.1279,10.1279,10.1279,10.1279,10.1279,10.1279,10.1279,10.1279,10.1279,10.202,10.1904,10.1394,10.2212,10.2314,10.2012,10.2895,10.4081,10.5289,10.5994,10.6881,10.7609,10.5606,10.5014,10.4782,10.4014,10.3314,10.2807,10.289,10.289,10.289,10.2617,10.2617,10.2383,10.1484,10.1289,10.1094,10.0508,10.0117,9.9961,9.9961,9.9297,9.8594,9.8398,9.7851,9.7148,9.6328,9.6172,9.5937,9.5312,9.5,9.4531,9.3672,9.2812,9.2539,9.3164,9.2461,9.2187,9.2851,9.289,9.3008,9.3203,9.365,9.401,9.4244,9.3997,9.3851,9.3964,9.3882,9.4171,9.4771,9.5427,9.6012,9.6557,9.7442,9.7836,9.398,9.7904,10.0981,10.2712,10.2597,10.1404,9.9058,9.6557,9.3364,8.8594,8.367,7.9792,7.8169,7.8861,8.1131,8.5593,9.1056,9.6095,10.0096,10.1019,10.1087,10.0712,10.0596,10.0481,10.0106,10.0106,10.0404,10.1202,10.1212,10.1212,10.1279,10.1712,10.1712,10.1279,10.1279,10.1279,10.1279,10.1279,10.1279,10.1279,10.1279,10.1279,10.1279,10.1279,10.151,10.1904,10.2404,10.252,10.2501,10.268,10.2605,10.231,10.3088,10.4104,10.5183,10.6087,10.7098,10.789,10.6914,10.6289,10.5781,10.4609,10.3906,10.3515,10.3906,10.3984,10.3984,10.3984,10.3789,10.3398,10.289,10.25,10.1992,10.1601,10.1094,10.0898,10.0898,10.0195,9.957,9.957,9.8867,9.8125,9.7656,9.7265,9.6875,9.6367,9.6015,9.5586,9.5117,9.4297,9.3945,9.4414,9.4023,9.3945,9.4414,9.4453,9.4412,9.4319,9.463,9.4763,9.4612,9.4397,9.4359,9.4638,9.4937,9.5426,9.6095,9.698,9.7634,9.8096,9.8557,9.8788,9.8057,10.0404,10.2097,10.3482,10.2597,10.0212,9.5835,9.2518,8.8286,8.0969,7.7092,7.4437,7.2559,7.3553,7.6969,8.3931,8.8709,9.3787,10.0202,10.1202,10.1279,10.152,10.151,10.1212,10.0683,10.0606,10.0904,10.1597,10.2404,10.252,10.151,10.2289,10.2404,10.151,10.1394,10.1279,10.1279,10.1279,10.1279,10.1279,10.1279,10.1394,10.151,10.151,10.1894,10.2789,10.2904,10.3289,10.3906,10.3504,10.3318,10.3314,10.3804,10.4483,10.5408,10.6401,10.7304,10.8008,10.7695,10.7187,10.6484,10.5,10.4492,10.4492,10.5312,10.5508,10.5508,10.539,10.4804,10.4219,10.4101,10.3515,10.289,10.289,10.2304,10.1797,10.1797,10.1094,10.039,10.0312,9.9687,9.9179,9.9179,9.8554,9.8047,9.8047,9.7461,9.6992,9.6992,9.5937,9.5234,9.5351,9.5273,9.5234,9.5351,9.5351,9.526,9.5146,9.5184,9.5169,9.5044,9.4828,9.5064,9.576,9.633,9.698,9.7673,9.8557,9.8981,9.8981,9.9211,9.9288,10.0096,10.2597,10.4405,10.3982,10.2597,10.0019,9.5057,8.9825,8.4439,7.8861,7.3476,7.0244,7.1905,7.3553,7.7161,8.467,9.0056,9.4903,9.9644,10.0904,10.1597,10.2289,10.2404,10.2597,10.3212,10.3212,10.3289,10.3405,10.4212,10.3982,10.252,10.3212,10.3289,10.2404,10.1712,10.1279,10.1279,10.1279,10.1279,10.1279,10.1279,10.1712,10.2404,10.2404,10.2904,10.3712,10.4405,0.0,10.3993,10.4711,10.479,10.4404,10.4792,10.5504,10.6404,10.6601,10.7304,10.7812,10.6406,10.6289,10.6719,10.6406,10.5781,10.5312,10.5508,10.5508,10.5312,10.4609,10.4297,10.3984,10.3281,10.3008,10.289,10.289,10.2812,10.2695,10.2695,10.1992,10.1211,10.039,10.0195,10.0117,10.0117,9.9961,9.9844,9.9844,9.9726,9.9648,9.9648,9.7031,9.5469,9.6211,9.5625,9.5508,9.6211,9.6069,9.6217,9.6893,9.7212,9.7652,9.8329,9.8111,9.8062,9.8178,9.8297,9.8442,9.8596,9.9452,9.9875,9.9913,10.1289,10.1904,10.1289,10.3482,10.4905,10.4097,10.1904,9.798,9.0218,8.4863,7.9361,7.1629,6.7737,6.6006,6.6789,6.9783,7.3745,7.8738,8.3824,8.9248,9.5288,9.6826,9.8634,10.2212,10.2981,10.3405,10.3915,10.3905,10.3712,10.3289,10.4405,10.4607,10.3289,10.3712,10.3712,10.3289,10.2904,10.2712,10.2712,10.2212,10.2212,10.2597,10.2212,10.2404,10.3289,10.3289,10.3712,10.4617,10.5078,10.5301,10.5392,10.5796,10.5814,10.5619,10.5804,10.6203,10.6797,10.7187,10.7617,10.789,10.7109,10.7109,10.7383,10.7383,10.6797,10.6211,10.6719,10.6797,10.6601,10.5703,10.5195,10.4804,10.4414,10.3594,10.3008,10.3515,10.3203,10.289,10.289,10.2617,10.2187,10.1719,10.1289,10.1015,10.1015,10.0586,10.0312,10.0312,10.0312,10.0312,10.0312,9.8867,9.8008,9.8437,9.8086,9.8008,9.8437,9.8244,9.8191,9.8531,9.8557,9.8686,9.8974,9.888,9.8788,9.8788,9.9259,9.9673,10.0096,10.0981,10.1597,10.2106,10.2904,10.3289,10.1789,10.3789,10.4905,10.4097,10.1212,9.5903,8.5871,8.0523,7.4938,6.5276,6.3006,6.2743,6.2633,6.6051,7.009,7.3699,7.813,8.3824,9.1672,9.3633,9.6403,10.2212,10.3482,10.3982,10.4405,10.4405,10.4212,10.352,10.4597,10.5097,10.4482,10.4289,10.4222,10.4222,10.3982,10.3905,10.3905,10.3212,10.3212,10.3905,10.3212,10.3289,10.4222,10.4222,10.459,10.5486,10.571,10.6207,10.691,10.6685,10.6614,10.659,10.6907,10.6992,10.7109,10.7695,10.8008,10.8008,10.7812,10.7812,10.8008,10.7812,10.7383,10.7109,10.7617,10.7695,10.75,10.6484,10.5781,10.539,10.5,10.4101,10.3281,10.3789,10.3398,10.289,10.289,10.289,10.3008,10.3086,10.2617,10.2187,10.2383,10.1914,10.1406,10.1406,10.1406,10.1406,10.1406,10.1406,10.1406,10.1406,10.0703,10.0312,10.0191,9.997,9.9817,9.9783,9.9531,9.947,9.9615,9.9596,9.9712,9.9904,10.0606,10.1212,10.1904,10.252,10.3212,10.3905,10.4097,10.4289,10.152,10.3789,10.4905,10.4097,10.0712,9.5172,8.5756,7.9169,7.2815,6.4929,6.2089,6.1704,6.3974,6.5397,6.859,7.5791,7.9285,8.4016,9.2402,9.5018,9.798,10.3212,10.3915,10.4482,10.602,10.6213,10.6087,10.6087,10.6203,10.6203,10.6213,10.5405,10.4992,10.4992,10.4299,10.3905,10.3905,10.3789,10.3789,10.3905,10.3789,10.4212,10.4992,10.4992,10.559,10.6595,10.6712,10.6892,0.0,10.7405,10.7515,10.7488,10.7805,10.789,10.789,10.8008,10.8008,10.789,10.7109,10.7304,10.789,10.7109,10.7304,10.7695,10.6992,10.6797,10.6484,10.4883,10.4883,10.5117,10.3515,10.3594,10.3906,10.3203,10.3008,10.289,10.289,10.289,10.3086,10.3906,10.3984,10.4219,10.5,10.5117,10.5,10.5,10.5,10.5,10.5,10.5,10.5,10.5,10.2187,10.0189,9.9964,9.9736,9.9845,10.0285,10.0115,10.0683,10.2212,10.2289,10.2597,10.3405,10.3482,10.3597,10.3712,10.3712,10.3789,10.3905,10.4597,10.5405,10.0404,10.3405,10.4905,10.4097,9.9913,9.3557,8.4209,7.7476,7.1014,6.3358,6.1243,6.1089,6.2127,6.3018,6.4942,6.9013,7.0514,7.4284,8.3293,8.5593,8.9594,9.8288,10.0712,10.2722,10.5405,10.6097,10.6395,10.6395,10.5905,10.579,10.6405,10.6097,10.5905,10.5905,10.5597,10.5405,10.5405,10.4905,10.4905,10.5405,10.4905,10.5097,10.5915,10.5992,10.6421,10.6797,10.7105,10.7486,0.0,10.7894,10.8083,10.8383,10.8118,10.8008,10.8008,10.8008,10.8008,10.8008,10.7617,10.7695,10.789,10.7617,10.7695,10.789,10.7617,10.75,10.7187,10.6015,10.6015,10.6093,10.539,10.5117,10.4609,10.3203,10.289,10.289,10.289,10.289,10.3008,10.3398,10.3789,10.4297,10.4687,10.5195,10.5508,10.5508,10.5508,10.5508,10.5508,10.5508,10.5508,10.5508,10.4297,10.3397,10.3306,10.2897,10.2798,10.2993,10.2602,10.2712,10.3405,10.3405,10.3482,10.3905,10.3905,10.4097,10.4597,10.4597,10.5223,10.6213,10.6482,10.7098,9.8096,10.1712,10.3491,10.2904,9.8298,9.1565,8.2747,7.6092,6.9712,6.2326,6.0787,6.0787,6.0787,6.1287,6.2249,6.3935,6.5282,6.9013,7.733,7.99,8.4362,9.371,9.6596,9.9259,10.2914,10.5213,10.6395,10.6395,10.579,10.579,10.6405,10.6395,10.6395,10.6395,10.6395,10.6395,10.6395,10.579,10.579,10.6395,10.579,10.5793,10.6487,10.6708,10.6795,10.6898,10.7387,10.7888,0.0,10.8092,10.8381,10.881,10.8195,10.8008,10.8008,10.8008,10.8008,10.8008,10.8008,10.8008,10.8008,10.8008,10.8008,10.8008,10.8008,10.7812,10.7383,10.6601,10.6289,10.6289,10.6289,10.5703,10.4687,10.3281,10.289,10.289,10.289,10.289,10.3008,10.3203,10.3984,10.4687,10.4883,10.5703,10.6289,10.6601,10.6601,10.6719,10.6992,10.6992,10.6992,10.6992,10.6992,10.6601,10.55,10.5013,10.4798,10.4905,10.4297,10.4097,10.4597,10.4405,10.4482,10.4982,10.4982,10.5405,10.6213,10.6213,10.6905,10.8098,10.8098,10.8482,9.4287,9.8211,10.0106,10.0106,9.5634,8.9248,8.1546,7.5207,6.8975,6.221,6.0787,6.0787,6.0787,6.0825,6.1358,6.3045,6.6898,7.1706,7.7676,8.1408,8.5478,9.0633,9.2056,9.421,9.8442,10.3405,10.6395,10.6395,10.6395,10.6395,10.6395,10.6395,10.6395,10.6395,10.6395,10.6395,10.6395,10.6395,10.6395,10.6395,10.6395,10.6516,10.6797,10.6805,10.6898,10.7218,10.7483,10.7888,0.0,10.8092,10.8381,10.881,10.8195,10.8008,10.8008,10.8008,10.8008,10.8008,10.8008,10.8008,10.8008,10.8008,10.8008,10.8008,10.8008,10.7383,10.6484,10.5703,10.5508,10.5508,10.5508,10.4883,10.3984,10.3086,10.289,10.289,10.289,10.289,10.3203,10.3984,10.4883,10.5703,10.6484,10.7383,10.8281,10.9101,10.9297,10.9609,11.039,11.0508,11.0508,11.0508,11.0508,10.9095,10.5385,10.4896,10.4905,10.5502,10.4508,10.4597,10.628,10.5482,10.5905,10.7598,10.7713,10.8098,10.8906,10.8906,10.8906,10.8906,10.8906,10.9406,8.544,8.9017,9.1287,9.0671,8.7401,8.2747,7.6854,7.2238,6.7583,6.1973,6.0787,6.0787,6.0787,6.0787,6.2089,6.6122,6.793,7.0898,7.683,8.06,8.4401,8.894,9.5365,10.0596,10.3712,10.552,10.6395,10.6395,10.6395,10.6395,10.6395,10.6395,10.6395,10.6395,10.6395,10.6395,10.6395,10.7021,10.7085,10.6718,10.7298,10.768,10.8014,10.821,10.8279,10.8386,10.8595,10.8693,10.8488,10.8092,10.8195,10.8602,10.8182,10.8008,10.8008,10.8008,10.8008,10.8008,10.8008,10.8008,10.8008,10.8008,10.8008,10.8008,10.8008,10.7812,10.75,10.7304,10.7187,10.7109,10.6484,10.6093,10.5703,10.4883,10.4687,10.4687,10.4687,10.4687,10.4804,10.5,10.5781,10.6406,10.6719,10.7383,10.8281,10.9218,10.9297,10.9609,11.0508,11.0586,11.0586,11.0586,11.0586,11.0116,10.9015,10.8405,10.8299,10.8403,10.7689,10.7598,10.8098,10.779,10.7982,10.8482,10.8482,10.8598,10.8906,10.8906,10.9213,10.979,11.0406,11.0791,7.9391,8.3131,8.5401,8.5209,8.2401,7.8515,7.4014,7.0129,6.6205,6.1704,6.0787,6.0821,6.0855,6.0823,6.1861,6.5086,6.6896,6.9552,7.4245,7.8631,8.3439,8.8979,9.5903,10.1289,10.4202,10.5587,10.6395,10.6395,10.6507,10.6621,10.6621,10.6598,10.6691,10.6691,10.6488,10.6419,10.6496,10.7122,10.7199,10.6989,10.7804,10.8415,10.8684,10.9192,10.939,10.9398,10.9288,10.9197,0.0,10.86,10.8589,10.8583,10.8496,10.8281,10.8008,10.8398,10.8515,10.8515,10.8515,10.8515,10.8398,10.8086,10.8008,10.8008,10.8008,10.8008,10.8008,10.8008,10.8008,10.7812,10.6914,10.6719,10.6484,10.5703,10.5508,10.5508,10.5508,10.5508,10.5508,10.5508,10.6093,10.6719,10.6719,10.7383,10.8281,10.9218,10.9609,11.0117,11.1015,11.1718,11.2109,11.2109,11.2304,11.2498,11.2407,11.0816,10.9892,11.0199,10.939,10.8983,10.9406,10.9098,10.9098,10.9406,10.9406,10.9598,10.9906,11.0214,11.0791,11.1598,11.2214,11.2406,0.0,7.9275,8.1354,8.2086,7.9314,7.5586,7.2352,6.8584,0.0,6.1505,6.085,6.0932,6.122,6.1016,6.1026,6.1701,6.4982,6.8404,7.1052,7.6746,8.3431,9.1018,9.4853,9.8133,10.1404,10.458,10.638,10.6379,10.6688,10.6812,10.6812,10.7097,10.7207,10.7207,10.6716,10.659,10.6812,10.6889,10.6989,10.7207,10.8206,10.8801,10.9,10.991,11.0303,11.031,10.9719,10.9591,10.9807,10.9501,10.9202,10.9005,10.9289,10.8906,10.8281,10.9101,10.9414,10.9414,10.9414,10.9414,10.9218,10.8398,10.8086,10.8008,10.8008,10.8008,10.8008,10.8008,10.8008,10.7812,10.6992,10.6797,10.6601,10.5898,10.5703,10.5703,10.5703,10.5703,10.5703,10.5703,10.6289,10.6797,10.6797,10.75,10.8281,10.9218,11.0,11.0898,11.1797,11.3398,11.4414,11.4492,11.5117,11.5496,11.5289,11.2105,11.0388,11.1216,10.9914,10.9483,11.0291,10.9483,10.9483,11.0291,11.0291,11.0791,11.1703,11.2406,11.3214,11.3984,11.3984,11.3984,6.6551,0.0,6.995,6.9532,6.8687,6.7566,0.0,6.5021,6.3709,6.1627,6.1165,6.1804,6.3771,6.2408,6.2873,6.8825,7.0474,7.2329,7.6176,8.3516,9.1133,9.8086,10.0981,10.322,10.5012,10.6301,10.6917,10.6686,10.6989,10.7104,10.7104,10.721,10.7207,10.7207,10.7108,10.6989,10.7104,10.7798,10.7799,10.7207,10.8989,10.9783,10.9903,11.0994,11.1518,11.1518,11.1406,11.0797,11.0095,11.0183,11.0101,10.991,11.0188,11.0195,11.0,11.0195,11.0312,11.0312,11.0312,11.0312,11.0195,10.9297,10.8515,10.8008,10.8008,10.8008,10.8008,10.8008,10.8008,10.8008,10.7695,10.7695,10.7617,10.75,10.7383,10.7383,10.7383,10.7383,10.7383,10.7383,10.7617,10.7695,10.7695,10.789,10.8281,10.9218,11.0,11.0898,11.1797,11.2812,11.3789,11.4414,11.4389,11.4608,11.5202,11.3706,11.2987,11.3584,11.1886,11.1291,11.2099,11.1291,11.1021,11.1214,11.1791,11.2522,11.3407,11.3599,11.3791,11.3984,11.3984,11.3599,6.2748,6.4837,6.6905,6.6867,6.652,6.6021,6.5168,6.4079,6.2834,6.1556,6.1286,6.1717,6.3088,6.2703,6.3665,6.8239,7.0524,7.4326,8.1673,8.7948,9.4338,10.1303,10.3398,10.4915,10.6603,10.7009,10.7099,10.7003,10.7199,10.7414,10.7414,10.7496,10.7613,10.7613,10.7613,10.7499,10.7414,10.7917,10.7884,10.7616,10.9517,11.0399,11.0402,11.1911,11.2304,11.1914,11.1914,11.1285,11.0403,11.1013,11.0893,11.0404,11.1013,11.1015,11.0586,11.1015,11.0898,11.0703,11.1093,11.0703,10.9883,10.9492,10.8711,10.8008,10.8008,10.8281,10.8515,10.8086,10.8008,10.8008,10.8008,10.8008,10.8008,10.8008,10.8008,10.8008,10.8008,10.8008,10.8086,10.8515,10.8593,10.8711,10.9101,10.9218,10.9414,10.9804,11.0586,11.1406,11.1797,11.3008,11.3984,11.4414,11.4881,11.5287,11.5588,11.4996,11.4486,11.4403,11.259,11.2011,11.3214,11.2522,11.2203,11.2599,11.3099,11.3714,11.4599,11.4599,11.4791,11.5099,11.4791,11.4291,6.2344,6.5148,6.7854,6.7801,6.7456,6.6841,6.5909,6.3959,6.2165,6.1507,6.1453,6.1718,6.225,6.3347,6.4749,6.6495,7.0462,7.6935,8.7277,9.1436,9.5826,10.2508,10.4181,10.5392,10.6992,10.732,10.7308,10.731,10.7502,10.7699,10.7699,10.788,10.8008,10.8008,10.8008,10.7883,10.7701,10.7699,10.7813,10.8005,10.9687,11.0585,11.0583,11.2382,11.2812,11.2109,11.2109,0.0,11.1093,11.1797,11.1718,11.1093,11.1797,11.1601,11.0898,11.1797,11.1484,11.0703,11.1601,11.0781,10.9492,10.9687,10.9101,10.8398,10.8398,10.8906,10.9297,10.8593,10.8281,10.8203,10.8398,10.8281,10.8203,10.8398,10.8398,10.8398,10.8398,10.8398,10.8593,10.9414,10.9492,10.9687,11.0508,11.0586,11.0586,11.0586,11.1289,11.1914,11.1914,11.3281,11.4296,11.4412,11.56,11.6216,11.5912,11.5709,11.5299,11.4594,11.2695,11.2291,11.3714,11.3099,11.3214,11.4214,11.4099,11.4484,11.5495,11.5495,11.5803,11.6303,11.561,11.5187,6.5312,6.7577,6.8119,6.386,6.3821,6.4407,6.2806,6.2103,6.1791,6.1674,6.2151,6.3494,6.6592,6.6974,6.8786,7.4817,7.9879,8.5474,9.2477,9.5739,9.9145,10.391,10.6018,10.7117,10.7184,10.7598,10.7783,10.7607,10.7783,10.7888,10.7888,10.8007,10.8008,10.8008,10.8008,10.8007,10.7888,10.7888,10.7797,10.7701,10.9719,11.0499,11.0282,11.2298,11.3086,11.3008,0.0,11.289,11.2812,11.289,11.289,11.2812,11.289,11.25,11.1797,11.2695,11.1992,11.0703,11.1601,11.1211,11.0508,11.1289,11.0898,11.0195,11.0195,11.0312,11.039,11.0195,10.9687,10.9297,11.0,10.9687,10.9297,11.0,11.0195,11.0195,11.0195,11.0195,11.0195,11.039,11.039,11.039,11.0586,11.0586,11.0586,11.0586,11.1289,11.1914,11.1914,11.2812,11.3589,11.3997,11.4688,11.5,11.4693,11.508,11.5317,11.5191,11.3488,11.2588,11.2906,11.2791,11.3483,11.511,11.4407,11.4791,11.6303,11.6303,11.5995,11.5495,11.5418,11.4484,6.3633,6.5351,6.6289,6.4883,6.6875,6.8711,6.6953,6.6211,6.5859,6.5859,6.6168,6.7057,6.9087,7.1144,7.4979,8.2385,8.6156,9.018,9.5923,9.8431,10.121,10.5094,10.6812,10.7598,10.7607,10.7916,10.7889,10.7793,10.7887,10.8008,10.8008,10.8008,10.8008,10.8008,10.8008,10.8008,10.8008,10.8515,10.8396,10.7791,10.9685,11.0505,11.0487,11.2302,11.289,11.25,0.0,11.289,11.25,11.3008,11.3203,11.3203,11.3203,11.3008,11.2617,11.25,11.1992,11.1289,11.1211,11.0898,11.0703,11.1093,11.0898,11.0586,11.0586,11.0898,11.1289,11.1289,11.0703,11.0117,11.0508,11.0312,11.0117,11.0508,11.0586,11.0586,11.0586,11.0586,11.0703,11.1211,11.1289,11.1405,11.1694,11.1688,11.1688,11.1688,11.2117,11.2403,11.2617,11.2802,11.3195,11.3881,11.4389,11.4784,11.5109,11.5609,11.5407,11.3984,11.3984,11.3714,11.2703,11.3599,11.4291,11.4599,11.5099,11.5484,11.5918,11.5918,11.5918,11.5918,11.4984,11.4407,6.3008,6.4062,6.543,6.7578,6.9961,7.1836,7.1914,7.1094,7.0586,7.1601,7.1483,7.1478,7.2241,7.6316,8.1611,8.7793,9.1072,9.4358,9.868,10.0685,10.2887,10.6107,10.7208,10.7819,10.8007,10.8008,10.8008,10.8008,10.8008,10.8008,10.8008,10.8008,10.8008,10.8008,10.8008,10.8008,10.8008,10.8906,10.8984,10.8281,11.0117,11.0898,11.1015,11.25,11.2812,11.2187,11.289,11.2812,11.2304,11.289,11.3203,11.3203,11.3203,11.3203,11.3086,11.1992,11.1718,11.1797,11.1093,11.0898,11.0898,11.1093,11.1211,11.1211,11.1211,11.1718,11.2187,11.2187,11.1718,11.1211,11.1211,11.1093,11.1015,11.1211,11.1211,11.1211,11.1211,11.1211,11.1406,11.2182,11.2416,11.2594,11.3102,11.3304,11.329,11.329,11.3396,11.351,11.3702,11.3503,11.3496,11.3986,11.4512,11.5003,11.5779,11.6116,11.5407,11.3407,11.4714,11.4907,11.3407,11.4407,11.4791,11.4291,11.5407,11.5676,11.5291,11.5495,11.5803,11.6187,11.4907,11.4599,6.6836,6.7226,6.75,7.082,6.9492,6.8789,7.4297,7.4219,7.414,7.8125,7.7565,7.6688,7.7733,8.3209,8.8035,8.938,9.5031,9.9746,10.1208,10.2889,10.4608,10.6484,10.7382,10.8007,10.8008,10.8008,10.8008,10.8008,10.8008,10.8008,10.8008,10.8008,10.8008,10.8008,10.8008,10.8008,10.8008,10.8906,10.9297,10.9218,11.1015,11.1797,11.1797,11.2812,11.3203,11.3086,11.3203,11.3203,11.3086,11.3203,11.3203,11.3203,11.3203,11.3203,11.3008,11.1289,11.1211,11.1914,11.1797,11.1797,11.1914,11.2695,11.3008,11.3008,11.3008,11.3086,11.3086,11.3086,11.3086,11.3008,11.3008,11.2383,11.1992,11.2812,11.3008,11.3008,11.3008,11.3008,11.3199,11.3715,11.3808,11.399,11.4581,11.4891,11.5083,11.5083,11.5405,11.5499,11.5192,11.5088,11.4914,11.4406,11.5117,11.5799,11.6402,11.5786,11.5291,11.5099,11.5907,11.5995,11.5099,11.4484,11.4407,11.5187,11.4484,11.4484,11.5291,11.5995,11.611,11.5418,11.5303,11.4791,6.4609,6.5898,6.7734,7.1133,7.2265,7.3633,7.8086,7.9414,8.0937,8.5234,8.5545,8.5151,8.5586,8.8589,9.1823,9.4286,9.866,10.2492,10.4492,10.5312,10.6211,10.7383,10.7812,10.8008,10.8008,10.8008,10.8008,10.8008,10.8008,10.8008,10.8008,10.8008,10.8008,10.8008,10.8008,10.8008,10.8008,10.9414,11.0117,11.0117,11.0781,11.1406,11.1914,11.2187,11.2695,11.3203,11.3203,11.3203,11.3203,11.3203,11.3203,11.3203,11.3203,11.3203,11.3086,11.25,11.2109,11.1914,11.1914,11.1914,11.1992,11.2304,11.2812,11.3203,11.3203,11.3203,11.3203,11.3203,11.3203,11.3203,11.3203,11.2802,11.2497,11.2809,11.2796,11.2609,11.2609,11.2609,11.2897,11.359,11.381,11.388,11.449,11.47,11.4712,11.4712,11.4812,11.4986,11.5004,11.4907,11.488,11.5194,11.5794,11.6298,11.6506,11.6187,11.5995,11.5995,11.5918,11.5407,11.4484,11.4714,11.4714,11.4484,11.5215,11.5495,11.5291,11.561,11.5918,11.5995,11.5484,11.5407,6.3476,6.4531,6.6601,7.0586,7.3359,7.668,8.2851,8.4961,8.707,9.2187,9.2187,9.1054,9.0508,9.207,9.4375,9.7226,10.0898,10.4101,10.6406,10.6719,10.6992,10.789,10.8008,10.8008,10.8008,10.8008,10.8008,10.8008,10.8008,10.8008,10.8008,10.8008,10.8008,10.8008,10.8008,10.8008,10.8008,10.9687,11.0586,11.0586,11.0586,11.1211,11.2304,11.1992,11.2383,11.3203,11.3203,11.3203,11.3203,11.3203,11.3203,11.3203,11.3203,11.3203,11.3203,11.3203,11.2812,11.2304,11.2304,11.2304,11.2304,11.2304,11.2695,11.3203,11.3203,11.3203,11.3203,11.3203,11.3083,11.2997,11.2997,11.2884,11.2705,11.2705,11.2684,11.2694,11.2694,11.2883,11.3278,11.4104,11.4279,11.4405,11.4985,11.5183,11.5208,11.5208,11.5282,11.5418,11.5503,11.5421,11.5381,11.5888,11.6298,11.6495,11.6495,11.6495,11.6495,11.6495,11.5995,11.5407,11.4791,11.5099,11.4984,11.4407,11.5484,11.5918,11.5291,11.561,11.5995,11.6495,11.5907,11.5995,6.4531,6.3672,6.4297,6.9453,7.2109,7.6562,8.8594,9.0664,9.1992,9.8906,9.6914,9.3437,9.1679,9.3476,9.5781,9.7461,10.1406,10.4804,10.6484,10.6719,10.6992,10.789,10.8008,10.8008,10.8008,10.8008,10.8008,10.8008,10.8008,10.8008,10.8008,10.8008,10.8008,10.8008,10.8008,10.8008,10.8008,10.9687,11.0586,11.0586,11.0586,11.1484,11.3203,11.2304,11.2383,11.3203,11.3203,11.3203,11.3203,11.3203,11.3203,11.3203,11.3203,11.3203,11.3203,11.3203,11.3203,11.3203,11.3203,11.3203,11.3203,11.3203,11.3203,11.3203,11.3203,11.3203,11.3203,11.3203,11.2982,11.2705,11.2705,11.2702,11.2702,11.2702,11.3182,11.3612,11.3612,11.4307,11.5101,11.5584,11.5695,11.5895,11.6391,11.6789,11.699,11.699,11.7217,11.7316,11.7009,11.699,11.6891,11.6512,11.6495,11.6495,11.6495,11.6495,11.6495,11.6495,11.6495,11.6495,11.6495,11.5676,11.5291,11.5291,11.5291,11.5291,11.5291,11.6099,11.6495,11.6495,11.6495,11.6495,6.3789,6.5859,6.9219,7.2617,7.8398,8.5351,9.3164,9.3828,9.4531,10.0781,9.9648,9.7148,9.6015,9.6953,9.8242,9.9336,10.2695,10.5703,10.7383,10.7617,10.7695,10.8008,10.8008,10.8008,10.8008,10.8008,10.8008,10.8008,10.8008,10.8008,10.8008,10.8008,10.8008,10.8008,10.8008,10.8008,10.8008,10.9101,11.0,11.0586,11.0,11.0898,11.3086,11.1015,11.1211,11.3203,11.2617,11.2617,11.3203,11.3203,11.3203,11.3203,11.3203,11.3203,11.3203,11.3203,11.3203,11.3203,11.3203,11.3203,11.3203,11.3203,11.3203,11.3203,11.3203,11.2996,11.2799,11.2799,11.2583,11.2385,11.2385,11.2706,11.3114,11.3114,11.3514,11.392,11.392,11.4104,11.4491,11.5298,11.5383,11.5601,11.6402,11.6599,11.6589,11.6589,11.6692,11.6692,11.6686,11.6589,11.6603,11.6506,11.6495,11.6495,11.6495,11.6495,11.6495,11.6495,11.6495,11.6495,11.6495,11.6303,11.6099,11.6099,11.6099,11.6099,11.6099,11.6418,11.6495,11.6495,11.6495,11.6495,6.6055,6.8594,7.2265,7.6562,8.2617,8.9453,9.6836,9.8242,9.8945,10.2187,10.1094,9.9453,9.9297,9.9414,10.0,10.1601,10.3906,10.6093,10.7812,10.8008,10.8008,10.8008,10.8008,10.8008,10.8008,10.8008,10.8008,10.8008,10.8008,10.8008,10.8008,10.8008,10.8008,10.8008,10.8281,10.8515,10.8515,10.9687,11.0586,11.1093,11.0586,11.1289,11.3086,11.0898,11.0898,11.2695,11.25,11.2695,11.3203,11.3203,11.3203,11.3203,11.3203,11.3203,11.3203,11.3203,11.3203,11.3203,11.3203,11.3203,11.3203,11.3203,11.3082,11.299,11.299,11.281,11.2489,11.2489,11.2318,11.2201,11.2583,11.3104,11.3503,11.3308,11.3912,11.4484,11.4484,11.4791,11.5099,11.5687,11.5803,11.5907,11.6418,11.6495,11.6495,11.6495,11.6495,11.6495,11.6495,11.6495,11.6495,11.6495,11.6495,11.6599,11.6984,11.6676,11.6803,11.7484,11.7215,11.7176,11.7484,11.7215,11.6984,11.6984,11.6984,11.6792,11.6495,11.6495,11.6495,11.6495,11.6495,11.6495,6.9844,7.1523,7.4219,8.0976,8.5742,9.1094,9.9844,10.3086,10.3984,10.3086,10.1601,10.0781,10.1601,10.1094,10.1484,10.3906,10.5,10.6211,10.7812,10.8008,10.8008,10.8008,10.8008,10.8008,10.8008,10.8008,10.8008,10.8008,10.8008,10.8008,10.8008,10.8008,10.8008,10.8008,10.8789,10.9218,10.9218,11.0781,11.1601,11.1797,11.1601,11.1992,11.289,11.1211,11.1015,11.1797,11.2812,11.3203,11.3203,11.3203,11.3203,11.3203,11.3203,11.3203,11.3203,11.3203,11.3203,11.3203,11.3203,11.3203,11.3203,11.3202,11.2903,11.2702,11.2691,11.2515,11.2306,11.2306,11.2101,11.2216,11.2896,11.3623,11.3997,11.3497,11.4414,11.5407,11.5407,11.5995,11.6495,11.6495,11.6495,11.6495,11.6495,11.6495,11.6495,11.6495,11.6495,11.6495,11.6495,11.6495,11.6484,11.6599,11.6484,11.6907,11.7715,11.71,11.7292,11.8908,11.8292,11.8292,11.9215,11.8292,11.7781,11.7907,11.7792,11.7292,11.6599,11.6484,11.6495,11.6495,11.6495,11.6495,6.8594,7.2812,7.8437,8.3984,9.2031,9.9453,10.289,10.3906,10.3984,10.3086,10.2617,10.2383,10.2617,10.3008,10.3789,10.5,10.5898,10.6797,10.789,10.8008,10.8008,10.8008,10.8008,10.8008,10.8008,10.8008,10.8008,10.8008,10.8008,10.8008,10.8008,10.8008,10.8008,10.8008,10.8203,10.8281,10.8281,10.8711,10.9492,11.0898,10.9492,10.9687,11.1093,11.0117,11.0117,11.1015,11.25,11.3203,11.3203,11.3203,11.3203,11.3203,11.3203,11.3203,11.3203,11.3203,11.3203,11.3203,11.3203,11.3203,11.3202,11.2889,11.2808,11.2685,11.2412,11.2191,11.1986,11.1986,11.2204,11.2585,11.2816,11.3878,11.4978,11.4904,11.5621,11.6176,11.6176,11.6418,11.6495,11.6495,11.6495,11.6495,11.6495,11.6495,11.6495,11.6495,11.6495,11.6495,11.6495,11.6495,11.6803,11.7407,11.6907,11.6907,11.7715,11.76,11.7715,11.81,11.8484,11.9215,11.9985,11.86,11.81,11.8792,11.7484,11.6984,11.7484,11.6792,11.6495,11.6495,11.6495,11.6495,7.0351,7.539,8.1719,9.0195,9.7304,10.2617,10.3906,10.4219,10.3984,10.3086,10.289,10.3008,10.3398,10.3906,10.4297,10.4804,10.5898,10.6914,10.7304,10.7695,10.8008,10.8008,10.8008,10.8008,10.8008,10.8008,10.8008,10.8008,10.8008,10.8008,10.8008,10.8008,10.8008,10.8008,10.8398,10.8593,10.8593,10.8984,10.9687,11.0586,10.9687,10.9687,11.0586,11.0117,11.039,11.1289,11.2617,11.3203,11.3203,11.3203,11.3203,11.3203,11.3203,11.3203,11.3203,11.3203,11.3203,11.3203,11.3203,11.3081,11.2898,11.2806,11.2516,11.23,11.2213,11.1879,11.1788,11.2213,11.251,11.2906,11.3714,11.4599,11.5407,11.5803,11.6187,11.6495,11.6495,11.6495,11.6495,11.6495,11.6495,11.6495,11.6495,11.6495,11.6495,11.6495,11.6495,11.6495,11.6495,11.6495,11.6792,11.7715,11.7407,11.76,11.8908,11.86,11.8792,11.96,11.9715,11.9985,12.0908,11.9715,11.9215,11.9715,11.8792,11.81,11.7792,11.7292,11.6907,11.6495,11.6495,11.6495,7.164,7.7695,8.5,9.6211,10.1015,10.3086,10.3984,10.4101,10.3789,10.3203,10.3086,10.3281,10.3906,10.4297,10.4609,10.4414,10.5781,10.6914,10.6914,10.75,10.8008,10.8008,10.8008,10.8008,10.8008,10.8008,10.8008,10.8008,10.8008,10.8008,10.8008,10.8008,10.8008,10.8008,10.8711,10.9101,10.9101,10.9804,11.0195,11.039,11.039,11.039,11.039,11.0508,11.1093,11.1914,11.2812,11.3203,11.3203,11.3203,11.3203,11.3203,11.3203,11.3203,11.3203,11.3203,11.3203,11.3203,11.3084,11.2898,11.2697,11.2602,11.2306,11.1917,11.1795,11.1684,11.1703,11.2522,11.2791,11.3291,11.4907,11.5407,11.5687,11.6303,11.6495,11.6495,11.6495,11.6495,11.6495,11.6495,11.6495,11.6495,11.6495,11.6495,11.6495,11.6495,11.6495,11.6495,11.6495,11.6599,11.71,11.7907,11.8023,11.86,12.0216,11.9715,11.9908,12.1304,12.0793,12.0793,12.1612,12.0908,12.0485,12.0485,12.0216,11.9485,11.8215,11.81,11.7715,11.6907,11.6907,11.6907,6.7265,7.7578,8.9492,9.7109,10.1015,10.3086,10.3984,10.3594,10.3281,10.3906,10.3984,10.3789,10.3203,10.4883,10.6093,10.539,10.6719,10.7812,10.7812,10.789,10.8008,10.8008,10.8008,10.8008,10.8008,10.8008,10.8008,10.8008,10.8008,10.8008,10.8008,10.8008,10.8008,10.8008,10.8086,10.8203,10.8203,10.8281,10.8711,10.9492,10.9492,10.9492,10.9492,11.0312,11.1093,11.1914,11.2812,11.3203,11.3203,11.3203,11.3203,11.3203,11.3203,11.3203,11.3203,11.3203,11.3203,11.3202,11.2882,11.2681,11.2583,11.2181,11.198,11.1898,11.1577,11.1498,11.1703,11.2522,11.3214,11.4099,11.4984,11.5792,11.6418,11.6495,11.6495,11.6495,11.6495,11.6495,11.6495,11.6495,11.6495,11.6495,11.6495,11.6495,11.6495,11.6495,11.6495,11.6495,11.6495,11.7215,11.7984,11.8792,11.8908,11.9292,12.0216,12.0216,12.0216,12.0485,12.11,12.1497,12.1612,12.1497,12.142,12.142,11.9985,11.9485,11.9985,11.9292,11.8908,11.8792,11.8792,11.8792,7.1211,8.0547,8.9804,9.7148,10.0195,10.1797,10.3203,10.3594,10.3594,10.3515,10.4219,10.4687,10.3789,10.4492,10.5,10.4219,10.5508,10.6601,10.6601,10.6992,10.75,10.789,10.7617,10.7304,10.7304,10.7304,10.7304,10.7304,10.7695,10.8008,10.8008,10.8008,10.8008,10.8008,10.8008,10.8008,10.8008,10.8008,10.8203,10.8593,10.8593,10.8789,10.9297,10.9687,11.0586,11.1914,11.2812,11.3203,11.3203,11.3203,11.3203,11.3203,11.3203,11.3203,11.3203,11.3203,11.3119,11.2891,11.2806,11.2497,11.2209,11.201,11.1796,11.1722,11.1519,11.1511,11.1791,11.3099,11.3714,11.4291,11.5599,11.6176,11.6495,11.6495,11.6495,11.6495,11.6495,11.6907,11.7215,11.7215,11.6792,11.6495,11.6495,11.6495,11.6495,11.6495,11.6495,11.6688,11.7215,11.76,11.8292,11.96,11.9792,12.01,12.0997,12.0985,12.0985,12.0985,12.142,12.1612,12.1612,12.1612,12.1612,12.1612,12.092,12.0408,12.0292,11.9908,11.9485,11.91,11.91,11.91,7.2187,7.9453,8.5742,9.3476,9.7226,9.9492,10.1484,10.289,10.3711,10.3008,10.3906,10.4609,10.3984,10.4219,10.4219,10.3398,10.4492,10.5508,10.5508,10.6015,10.6719,10.7617,10.6914,10.6484,10.6719,10.6484,10.6484,10.6719,10.7304,10.7812,10.8008,10.8008,10.8008,10.8008,10.8008,10.8008,10.8008,10.8008,10.8008,10.8008,10.8008,10.8515,10.9297,10.9297,11.0117,11.1601,11.25,11.3008,11.3203,11.3203,11.3203,11.3203,11.3203,11.3203,11.3203,11.3082,11.2895,11.2694,11.2489,11.2194,11.1908,11.1792,11.1703,11.1511,11.1511,11.1511,11.178,11.3483,11.3984,11.4407,11.611,11.6495,11.6495,11.6495,11.6495,11.6495,11.6495,11.6984,11.7484,11.7484,11.71,11.6803,11.6484,11.6688,11.6803,11.6484,11.6688,11.71,11.7715,11.8215,11.8908,12.0216,12.0485,12.0908,12.1485,12.1612,12.1612,12.1612,12.1612,12.1612,12.1612,12.1612,12.1612,12.1612,12.1612,12.1304,12.06,12.06,12.0292,11.9715,11.9715,11.9715,6.4531,7.0078,7.5898,8.3672,9.0586,9.6133,9.8633,10.1211,10.3008,10.289,10.3008,10.3008,10.3008,10.4297,10.5117,10.4297,10.4883,10.5508,10.5508,10.5508,10.5898,10.6719,10.6093,10.5898,10.6601,10.6015,10.5898,10.6601,10.6719,10.7109,10.8008,10.8008,10.8008,10.8008,10.8008,10.8008,10.8008,10.8008,10.8008,10.8008,10.8008,10.8515,10.9297,10.9297,10.9804,11.0703,11.1601,11.2383,11.3203,11.3203,11.3203,11.3203,11.3203,11.3203,11.3202,11.2797,11.2713,11.2586,11.2091,11.1887,11.1898,11.1614,11.1504,11.1511,11.1511,11.1511,11.178,11.3483,11.3984,11.4407,11.611,11.6495,11.6495,11.6495,11.6495,11.6495,11.6495,11.6484,11.6611,11.6611,11.7215,11.7484,11.6599,11.7215,11.7484,11.6599,11.7215,11.7704,11.7792,11.9215,12.0216,12.0292,12.0985,12.1612,12.1612,12.1612,12.1612,12.1612,12.1612,12.1612,12.1612,12.1612,12.1612,12.1612,12.1612,12.1612,12.1485,12.1485,12.1485,12.1497,12.1497,12.1497,6.3594,6.8125,7.3359,8.0586,8.5937,9.0547,9.4765,9.8594,10.1406,10.1992,10.25,10.2695,10.2187,10.3008,10.3711,10.3398,10.3594,10.3984,10.4609,10.4687,10.5,10.5781,10.5195,10.4804,10.5117,10.4804,10.4804,10.5117,10.5586,10.6093,10.6406,10.6406,10.6601,10.7109,10.7187,10.7383,10.8008,10.8008,10.8008,10.8008,10.8008,10.8203,10.8515,10.8515,10.8906,10.9804,11.0703,11.1601,11.2383,11.3008,11.3203,11.3203,11.3203,11.3117,11.2882,11.2684,11.252,11.2181,11.1995,11.1817,11.1586,11.1508,11.1511,11.1588,11.2088,11.2291,11.2599,11.4407,11.4791,11.5099,11.6187,11.6495,11.6495,11.6495,11.6495,11.6495,11.6495,11.6907,11.7292,11.7292,11.7984,11.8407,11.7484,11.81,11.81,11.6688,11.7715,11.8407,11.7907,11.9292,12.0485,12.11,12.142,12.1612,12.1612,12.1612,12.1612,12.1612,12.1612,12.1612,12.1612,12.1612,12.1612,12.1612,12.1612,12.1612,12.1612,12.1612,12.1612,12.1612,12.1612,12.1612,6.0664,6.4414,6.9414,7.6601,8.0156,8.3906,9.1679,9.5429,9.8008,10.0586,10.1601,10.1914,10.1719,10.1797,10.2109,10.2383,10.2695,10.3086,10.3711,10.3789,10.4101,10.5,10.4297,10.3906,10.4219,10.3906,10.3906,10.4219,10.4687,10.5195,10.5508,10.5781,10.6289,10.7109,10.6914,10.7109,10.8008,10.8008,10.8008,10.8008,10.8008,10.8008,10.8008,10.8008,10.8281,10.8906,11.0117,11.1093,11.1992,11.2812,11.3203,11.3203,11.3118,11.2891,11.2694,11.2493,11.2203,11.1908,11.1796,11.1587,11.1511,11.1511,11.1703,11.2022,11.2203,11.2714,11.3407,11.4484,11.5099,11.5495,11.6303,11.6495,11.6495,11.6495,11.6495,11.6611,11.6907,11.7407,11.7792,11.7792,11.8715,11.9215,11.8407,11.8908,11.8985,11.76,11.86,11.9292,11.8715,11.9908,12.0997,12.1485,12.1612,12.1612,12.1612,12.1612,12.1612,12.1612,12.1612,12.1612,12.1612,12.1612,12.1612,12.1612,12.1612,12.1612,12.1612,12.1612,12.1612,12.1612,12.1612,12.1612,0.0,0.0,0.0,7.1055,7.3008,7.6406,8.914,9.1445,9.2656,9.8789,10.0117,10.039,10.1289,10.0898,10.0586,10.1406,10.2304,10.2812,10.289,10.289,10.3203,10.4101,10.3398,10.3203,10.4101,10.3398,10.3281,10.4101,10.4219,10.4492,10.539,10.6211,10.6992,10.789,10.7109,10.7109,10.8008,10.8008,10.8008,10.8008,10.8008,10.8008,10.8008,10.8008,10.8008,10.8086,10.9804,11.1093,11.1914,11.2812,11.3203,11.3202,11.2793,11.2702,11.2583,11.2096,11.1886,11.189,11.1594,11.1511,11.1511,11.1511,11.2099,11.2599,11.178,11.2714,11.3984,11.4099,11.4714,11.5484,11.6303,11.6495,11.6495,11.6495,11.6495,11.6715,11.76,11.7792,11.7781,11.7781,11.9215,12.01,11.9292,11.9792,12.01,11.9215,11.9792,12.0292,12.0292,12.0985,12.1485,12.1612,12.1612,12.1612,12.1612,12.1612,12.1612,12.16,12.16,12.16,12.1689,12.1689,12.1689,12.1689,12.1689,12.1689,12.1689,12.1612,12.1612,12.1612,12.1612,12.1612,5.6406,0.0,0.0,0.0,0.0,0.0,7.6953,8.039,8.4297,9.2187,9.4297,9.5742,9.9101,10.0,10.0195,9.9765,10.0508,10.1211,10.1914,10.1992,10.2304,10.3203,10.3008,10.3008,10.3203,10.3008,10.3008,10.3203,10.3281,10.3398,10.3594,10.4414,10.5312,10.6211,10.6484,10.7109,10.8008,10.8008,10.8008,10.8008,10.8008,10.8008,10.8008,10.8008,10.8008,10.8086,10.9218,11.0195,11.1093,11.2617,11.3203,11.3202,11.2793,11.2595,11.2416,11.2006,11.1799,11.1614,11.1487,11.1511,11.1588,11.2214,11.2511,11.2906,11.3907,11.4599,11.511,11.5599,11.5995,11.6187,11.6418,11.6495,11.6495,11.6495,11.6495,11.6715,11.76,11.8292,11.8715,11.8715,12.01,12.0997,12.01,12.0677,12.0793,11.9292,11.9292,11.9408,11.9408,11.96,12.0292,12.1497,12.1612,12.1612,12.1612,12.1612,12.1908,12.2485,12.2485,12.2793,12.3408,12.3408,12.3408,12.3408,12.3408,12.3408,12.3408,12.2177,12.1612,12.1612,12.1612,12.1612,5.789,5.9023,6.1055,6.375,0.0,0.0,7.3984,7.6445,7.9492,8.8828,9.1172,9.2734,9.6679,9.7539,9.7695,9.7929,9.8672,9.9648,10.0898,10.1094,10.1211,10.1797,10.2109,10.2383,10.2383,10.2695,10.289,10.289,10.289,10.3086,10.3398,10.3594,10.4219,10.5508,10.6015,10.6601,10.7383,10.7812,10.8008,10.8008,10.8008,10.8008,10.8008,10.8008,10.8008,10.8008,10.8906,10.9804,11.0703,11.2109,11.2809,11.2983,11.2709,11.2416,11.2103,11.1809,11.1596,11.1511,11.1511,11.1511,11.1588,11.2395,11.2896,11.3407,11.4407,11.5215,11.5792,11.5995,11.6176,11.6495,11.6495,11.6495,11.6495,11.6495,11.6495,11.6792,11.81,11.8715,11.9215,11.9485,12.0677,12.1408,12.0908,12.1304,12.1304,12.0292,12.01,12.01,12.01,12.01,12.0485,12.1497,12.1612,12.1677,12.21,12.1793,12.21,12.3293,12.3101,12.3293,12.4101,12.4101,12.3909,12.3601,12.3601,12.3601,12.3601,12.2601,12.1985,12.1612,12.1612,12.1804,5.9883,6.0273,6.2031,6.6406,6.3828,0.0,7.4883,7.5586,7.6445,8.6015,8.8164,8.9453,9.3203,9.3437,9.3476,9.4844,9.6211,9.7851,9.9883,10.0195,10.0195,10.0312,10.1015,10.1484,10.1601,10.2304,10.2812,10.289,10.289,10.3203,10.3984,10.3281,10.3711,10.539,10.5508,10.5898,10.6797,10.7617,10.8008,10.8008,10.8008,10.8008,10.8008,10.8008,10.8008,10.8008,10.8789,10.9687,11.0508,11.1406,11.2092,11.2691,11.241,11.2117,11.1914,11.1604,11.1511,11.1511,11.1511,11.1511,11.1588,11.2599,11.3407,11.3984,11.4214,11.5291,11.6418,11.5599,11.5907,11.6495,11.6495,11.6495,11.6495,11.6495,11.6611,11.71,11.8715,11.9215,11.9485,12.0292,12.11,12.1612,12.1612,12.1612,12.1612,12.1612,12.142,12.142,12.1612,12.142,12.1408,12.1677,12.1689,12.1985,12.2793,12.21,12.2293,12.3985,12.3408,12.3408,12.4409,12.4409,12.4101,12.3293,12.3293,12.3293,12.3216,12.3101,12.2601,12.1908,12.1908,12.2293,6.2695,6.3398,6.4336,6.3242,6.4726,0.0,6.4492,6.6367,6.9765,7.4531,7.664,7.9297,8.4844,8.6875,8.7344,8.6289,9.0312,9.4922,9.8711,9.9258,9.9492,10.0195,10.0508,10.0781,10.1484,10.1797,10.2109,10.2812,10.289,10.3008,10.3086,10.3008,10.3711,10.539,10.5508,10.6211,10.7695,10.789,10.8008,10.8008,10.8008,10.8008,10.8008,10.8008,10.8008,10.8008,10.8203,10.8711,10.9609,11.0508,11.1584,11.2691,11.241,11.2117,11.1914,11.1604,11.1511,11.1511,11.1511,11.1511,11.1703,11.3291,11.3907,11.4291,11.5599,11.6176,11.6495,11.6303,11.6418,11.6495,11.6495,11.6495,11.6495,11.6495,11.6984,11.7792,11.8908,11.96,12.0292,12.1189,12.1497,12.1612,12.1612,12.1612,12.1612,12.1612,12.0485,12.01,12.142,12.0408,12.0408,12.2408,12.1985,12.1985,12.2793,12.21,12.2293,12.3985,12.3985,12.4601,12.6101,12.6178,12.6101,12.5998,12.5998,12.5601,12.4909,12.4216,12.3793,12.3601,12.3601,12.3716,6.4883,6.4609,6.5039,6.5469,0.0,0.0,0.0,6.5898,6.7578,7.2305,7.3281,7.4883,8.0117,8.1054,8.1484,8.2734,8.6953,9.0937,9.3515,9.6445,9.8515,9.8945,9.9375,9.9804,10.0312,10.0703,10.1094,10.1601,10.1992,10.2304,10.2304,10.2695,10.3281,10.4219,10.5,10.5898,10.6719,10.7617,10.8008,10.8008,10.8008,10.8008,10.8008,10.8008,10.8008,10.8008,10.8008,10.8711,11.0,11.0298,11.1203,11.2485,11.2401,11.208,11.1703,11.1501,11.1511,11.1511,11.1511,11.1791,11.2291,11.3599,11.4291,11.4907,11.6099,11.6495,11.6495,11.6495,11.6495,11.6495,11.6495,11.6495,11.6599,11.6984,11.7484,11.8088,11.9408,11.9985,12.06,12.142,12.1612,12.1612,12.1612,12.1612,12.1612,12.1612,12.0908,12.0677,12.1497,12.092,12.0985,12.2716,12.2485,12.2601,12.3408,12.3101,12.3408,12.4716,12.4716,12.5293,12.6601,12.669,12.6486,12.6101,12.6101,12.5794,12.5409,12.5409,12.4909,12.4101,12.4101,12.4293,6.8008,6.7187,6.7383,0.0,0.0,6.539,0.0,0.0,0.0,7.125,7.1133,7.1445,7.5312,7.5,7.5312,7.8789,8.2812,8.5742,8.6406,9.1406,9.5351,9.6367,9.7539,9.832,9.8515,9.8984,9.9609,10.0312,10.0312,10.0703,10.1601,10.2304,10.2812,10.3086,10.4687,10.5586,10.5703,10.7187,10.8008,10.8008,10.8008,10.8008,10.8008,10.8008,10.8008,10.8008,10.8008,10.8906,11.0312,11.0313,11.0996,11.2105,11.2205,11.1887,11.1511,11.1511,11.1511,11.1511,11.1511,11.2011,11.2791,11.3714,11.4714,11.5687,11.6303,11.6495,11.6495,11.6495,11.6495,11.6484,11.6676,11.6803,11.6984,11.7792,11.8215,11.8715,11.9985,12.0408,12.0793,12.1497,12.1612,12.1612,12.1612,12.1612,12.1612,12.1612,12.1612,12.1612,12.1612,12.1612,12.1908,12.2793,12.2908,12.3216,12.3985,12.4101,12.4486,12.5293,12.5409,12.5794,12.669,12.669,12.6421,12.5678,12.5678,12.5678,12.5678,12.6421,12.5986,12.4601,12.4601,12.4986,0.0,0.0,0.0,0.0,7.1914,0.0,0.0,0.0,6.6055,6.3672,0.0,6.4648,6.668,0.0,0.0,6.8555,7.4101,7.8398,7.8476,8.2383,8.6914,9.1484,9.414,9.5937,9.6719,9.6172,9.7031,10.0117,9.7578,9.7578,10.1406,10.1719,10.25,10.3984,10.5,10.5781,10.6601,10.75,10.8008,10.8008,10.8008,10.8008,10.8008,10.8008,10.8008,10.8008,10.8008,10.8593,10.9492,11.0194,11.0817,11.1183,11.1703,11.1811,11.1511,11.1511,11.1511,11.1511,11.1511,11.2011,11.2791,11.3714,11.5099,11.6418,11.6495,11.6495,11.6495,11.6495,11.6495,11.6688,11.7484,11.7715,11.7907,11.8715,11.9485,12.01,12.0292,12.0908,12.1497,12.1612,12.1612,12.1612,12.1612,12.1612,12.1612,12.1612,12.1612,12.1612,12.1612,12.1612,12.1908,12.2793,12.2908,12.3216,12.3985,12.4101,12.4486,12.5293,12.5409,12.5794,12.669,12.669,12.669,12.6614,12.6614,12.6614,12.6614,12.669,12.6614,12.6421,12.6421,12.6498,0.0,0.0,0.0,0.0,0.0,0.0,6.5586,0.0,6.375,0.0,0.0,0.0,0.0,0.0,0.0,0.0,7.0234,7.3437,7.3437,7.7578,8.2383,8.7031,8.7226,8.789,9.0273,9.1523,9.3398,9.6367,9.5273,9.6094,9.9883,10.1094,10.2187,10.3398,10.4804,10.5703,10.6015,10.7304,10.8008,10.8008,10.8008,10.8008,10.8008,10.8008,10.8008,10.8008,10.8008,10.8789,11.0117,11.0293,11.0915,11.1806,11.1892,11.168,11.1511,11.1511,11.1511,11.1511,11.1511,11.2406,11.3714,11.4984,11.5907,11.6495,11.6495,11.6495,11.6495,11.6495,11.6907,11.7292,11.7715,11.8215,11.8792,11.96,12.01,12.0408,12.0908,12.1293,12.1612,12.1612,12.1612,12.1612,12.1612,12.1612,12.1612,12.1612,12.1612,12.1612,12.1612,12.1612,12.21,12.3485,12.3601,12.3909,12.4793,12.5293,12.5486,12.5409,12.5909,12.6294,12.669,12.669,12.669,12.669,12.669,12.669,12.669,12.669,12.669,12.669,12.669,12.669,7.8476,0.0,0.0,0.0,0.0,0.0,0.0,0.0,0.0,0.0,0.0,0.0,0.0,0.0,0.0,0.0,0.0,7.0273,7.0039,7.2851,7.664,8.1172,8.1289,8.2383,8.5859,8.6992,8.9101,9.289,9.2109,9.3554,9.8398,10.0117,10.1406,10.25,10.4492,10.5508,10.5508,10.7187,10.8008,10.8008,10.8008,10.8008,10.8008,10.8203,10.8398,10.8398,10.8593,10.9609,11.0898,11.0711,11.1283,11.2289,11.2089,11.1796,11.1511,11.1511,11.1511,11.1511,11.1791,11.2906,11.4599,11.5995,11.6495,11.6495,11.6495,11.6495,11.6484,11.6792,11.7292,11.7907,11.8407,11.8985,11.96,12.0485,12.0677,12.0793,12.1497,12.1612,12.1612,12.1612,12.1612,12.1612,12.1612,12.1612,12.1612,12.1612,12.1612,12.1612,12.1612,12.1612,12.2189,12.3601,12.3985,12.4486,12.5293,12.6178,12.6409,12.5794,12.6421,12.669,12.669,12.669,12.669,12.669,12.669,12.669,12.669,12.669,12.669,12.669,12.669,12.669,0.0,0.0,0.0,7.5625,0.0,0.0,0.0,0.0,6.7773,0.0,0.0,0.0,0.0,0.0,0.0,0.0,0.0,0.0,0.0,6.6953,6.793,7.3047,7.8008,8.2383,8.5859,8.3203,8.4101,9.0859,8.7539,8.8867,9.7304,9.8594,9.9883,10.1601,10.4219,10.5508,10.5508,10.7187,10.8008,10.8008,10.8008,10.8008,10.8008,10.8906,10.9297,10.9297,11.0195,11.1015,11.1914,11.1797,11.2,11.2305,11.23,11.1987,11.1511,11.1511,11.1511,11.1588,11.2406,11.3791,11.5407,11.6176,11.6495,11.6495,11.6495,11.6495,11.6688,11.7484,11.7792,11.8215,11.9792,12.0216,12.0485,12.142,12.1612,12.1612,12.1612,12.1612,12.1612,12.1612,12.1612,12.1612,12.1612,12.1612,12.1612,12.1612,12.1612,12.1612,12.1612,12.1612,12.1908,12.2793,12.3601,12.4486,12.5293,12.6178,12.669,12.669,12.669,12.669,12.669,12.669,12.669,12.669,12.669,12.669,12.669,12.669,12.669,12.669,12.669,12.669,0.0,0.0,8.8125,8.0351,0.0,0.0,0.0,0.0,0.0,0.0,0.0,0.0,0.0,0.0,0.0,0.0,0.0,0.0,0.0,6.2812,6.3281,6.8437,7.2617,7.5508,7.668,7.9336,8.2226,8.5117,8.5078,8.789,9.4804,9.6562,9.8633,10.1484,10.4101,10.5508,10.5508,10.7187,10.8008,10.8008,10.8008,10.8281,10.8906,10.8593,10.9101,11.0117,10.9883,11.0586,11.1914,11.1914,11.2082,11.2305,11.2305,11.1995,11.1511,11.1511,11.178,11.2522,11.3907,11.4791,11.5407,11.6176,11.6495,11.6495,11.6495,11.6495,11.6688,11.76,11.8215,11.8908,11.9985,12.0716,12.1177,12.1485,12.1612,12.1612,12.1612,12.1612,12.1612,12.1612,12.1612,12.1612,12.1612,12.1612,12.1612,12.1612,12.1612,12.1612,12.1612,12.1612,12.1908,12.2793,12.3101,12.3601,12.4486,12.5293,12.6101,12.669,12.669,12.669,12.669,12.669,12.669,12.669,12.669,12.669,12.669,12.669,12.669,12.669,12.669,12.669,9.1992,9.2265,0.0,8.4883,8.1836,0.0,7.207,0.0,0.0,0.0,0.0,0.0,0.0,0.0,0.0,0.0,0.0,0.0,0.0,6.1211,6.2031,6.5976,6.8672,7.1015,7.3164,7.5781,7.8711,8.2031,8.2226,8.4922,9.1289,9.414,9.6875,9.9687,10.3203,10.5195,10.5508,10.7187,10.8008,10.8008,10.8008,10.8515,10.9297,10.8984,10.9687,11.1015,11.0781,11.1289,11.2383,11.2383,11.2316,11.2305,11.2305,11.1995,11.1511,11.178,11.2588,11.3791,11.4907,11.5495,11.5792,11.6303,11.6495,11.6495,11.6495,11.6676,11.71,11.7984,11.8908,11.9715,12.0485,12.1177,12.1612,12.1612,12.1612,12.1612,12.1612,12.1612,12.1612,12.1612,12.1612,12.1612,12.1612,12.1612,12.1612,12.1612,12.1612,12.1612,12.1612,12.1612,12.1908,12.2793,12.2908,12.3408,12.4486,12.5101,12.5794,12.6601,12.669,12.669,12.669,12.669,12.669,12.669,12.669,12.669,12.669,12.669,12.669,12.669,12.669,12.669]}]]